<?xml version="1.0" encoding="UTF-8" standalone="no" ?>
<gpx xmlns="http://www.topografix.com/GPX/1/1" xmlns:xsi="http://www.w3.org/2001/XMLSchema-instance" xsi:schemaLocation="http://www.topografix.com/GPX/1/1 http://www.topografix.com/GPX/1/1/gpx.xsd" version="1.1" creator="VisuGPX - https://www.visugpx.com">
  <metadata>
    <name>Trépassés-Beuzec</name>
    <desc><![CDATA[18 avril 2011]]></desc>
  </metadata>
  <trk>
    <name><![CDATA[J2 Trépassés-Beuzec]]></name>
    <trkseg>
      <trkpt lat="48.04603" lon="-4.70514">
        <ele>6</ele>
        <time>2011-04-18T06:38:25Z</time>
      </trkpt>
      <trkpt lat="48.04594" lon="-4.70497">
        <ele>6</ele>
        <time>2011-04-18T06:42:04Z</time>
      </trkpt>
      <trkpt lat="48.04594" lon="-4.70505">
        <ele>6</ele>
        <time>2011-04-18T06:42:27Z</time>
      </trkpt>
      <trkpt lat="48.04595" lon="-4.70503">
        <ele>6</ele>
        <time>2011-04-18T06:42:54Z</time>
      </trkpt>
      <trkpt lat="48.04592" lon="-4.70506">
        <ele>6</ele>
        <time>2011-04-18T06:43:11Z</time>
      </trkpt>
      <trkpt lat="48.0459" lon="-4.70509">
        <ele>6</ele>
        <time>2011-04-18T06:43:40Z</time>
      </trkpt>
      <trkpt lat="48.04593" lon="-4.70507">
        <ele>6</ele>
        <time>2011-04-18T06:44:00Z</time>
      </trkpt>
      <trkpt lat="48.04593" lon="-4.70507">
        <ele>6</ele>
        <time>2011-04-18T06:44:28Z</time>
      </trkpt>
      <trkpt lat="48.04588" lon="-4.7051">
        <ele>6</ele>
        <time>2011-04-18T06:45:04Z</time>
      </trkpt>
      <trkpt lat="48.0458" lon="-4.70515">
        <ele>6</ele>
        <time>2011-04-18T06:45:35Z</time>
      </trkpt>
      <trkpt lat="48.04583" lon="-4.70516">
        <ele>6</ele>
        <time>2011-04-18T06:46:19Z</time>
      </trkpt>
      <trkpt lat="48.04583" lon="-4.70513">
        <ele>6</ele>
        <time>2011-04-18T06:46:55Z</time>
      </trkpt>
      <trkpt lat="48.0459" lon="-4.70509">
        <ele>6</ele>
        <time>2011-04-18T06:47:25Z</time>
      </trkpt>
      <trkpt lat="48.04582" lon="-4.70512">
        <ele>6</ele>
        <time>2011-04-18T06:47:55Z</time>
      </trkpt>
      <trkpt lat="48.0459" lon="-4.70533">
        <ele>6</ele>
        <time>2011-04-18T06:48:15Z</time>
      </trkpt>
      <trkpt lat="48.04592" lon="-4.70535">
        <ele>6</ele>
        <time>2011-04-18T06:48:20Z</time>
      </trkpt>
      <trkpt lat="48.04587" lon="-4.70518">
        <ele>6</ele>
        <time>2011-04-18T06:48:33Z</time>
      </trkpt>
      <trkpt lat="48.04589" lon="-4.70511">
        <ele>6</ele>
        <time>2011-04-18T06:48:52Z</time>
      </trkpt>
      <trkpt lat="48.04588" lon="-4.70512">
        <ele>6</ele>
        <time>2011-04-18T06:48:53Z</time>
      </trkpt>
      <trkpt lat="48.04592" lon="-4.70539">
        <ele>6</ele>
        <time>2011-04-18T06:49:13Z</time>
      </trkpt>
      <trkpt lat="48.04595" lon="-4.70579">
        <ele>6</ele>
        <time>2011-04-18T06:49:36Z</time>
      </trkpt>
      <trkpt lat="48.04598" lon="-4.70583">
        <ele>6</ele>
        <time>2011-04-18T06:49:39Z</time>
      </trkpt>
      <trkpt lat="48.04613" lon="-4.70585">
        <ele>6</ele>
        <time>2011-04-18T06:49:52Z</time>
      </trkpt>
      <trkpt lat="48.04628" lon="-4.7058">
        <ele>6</ele>
        <time>2011-04-18T06:50:04Z</time>
      </trkpt>
      <trkpt lat="48.04634" lon="-4.70585">
        <ele>6</ele>
        <time>2011-04-18T06:50:12Z</time>
      </trkpt>
      <trkpt lat="48.04652" lon="-4.70609">
        <ele>6</ele>
        <time>2011-04-18T06:50:33Z</time>
      </trkpt>
      <trkpt lat="48.04653" lon="-4.70612">
        <ele>6</ele>
        <time>2011-04-18T06:50:47Z</time>
      </trkpt>
      <trkpt lat="48.04669" lon="-4.70607">
        <ele>6</ele>
        <time>2011-04-18T06:51:00Z</time>
      </trkpt>
      <trkpt lat="48.04675" lon="-4.70607">
        <ele>6</ele>
        <time>2011-04-18T06:51:13Z</time>
      </trkpt>
      <trkpt lat="48.04696" lon="-4.70601">
        <ele>6</ele>
        <time>2011-04-18T06:51:33Z</time>
      </trkpt>
      <trkpt lat="48.04715" lon="-4.70596">
        <ele>6</ele>
        <time>2011-04-18T06:51:49Z</time>
      </trkpt>
      <trkpt lat="48.04736" lon="-4.70589">
        <ele>6</ele>
        <time>2011-04-18T06:52:06Z</time>
      </trkpt>
      <trkpt lat="48.04751" lon="-4.70576">
        <ele>9</ele>
        <time>2011-04-18T06:52:20Z</time>
      </trkpt>
      <trkpt lat="48.0478" lon="-4.70561">
        <ele>9</ele>
        <time>2011-04-18T06:52:44Z</time>
      </trkpt>
      <trkpt lat="48.04799" lon="-4.70542">
        <ele>9</ele>
        <time>2011-04-18T06:53:06Z</time>
      </trkpt>
      <trkpt lat="48.04806" lon="-4.70529">
        <ele>9</ele>
        <time>2011-04-18T06:53:17Z</time>
      </trkpt>
      <trkpt lat="48.04813" lon="-4.7052">
        <ele>9</ele>
        <time>2011-04-18T06:53:27Z</time>
      </trkpt>
      <trkpt lat="48.04825" lon="-4.70512">
        <ele>10</ele>
        <time>2011-04-18T06:53:47Z</time>
      </trkpt>
      <trkpt lat="48.04835" lon="-4.70507">
        <ele>10</ele>
        <time>2011-04-18T06:54:01Z</time>
      </trkpt>
      <trkpt lat="48.04859" lon="-4.70507">
        <ele>10</ele>
        <time>2011-04-18T06:54:19Z</time>
      </trkpt>
      <trkpt lat="48.04867" lon="-4.70508">
        <ele>10</ele>
        <time>2011-04-18T06:54:26Z</time>
      </trkpt>
      <trkpt lat="48.04896" lon="-4.70506">
        <ele>11</ele>
        <time>2011-04-18T06:54:48Z</time>
      </trkpt>
      <trkpt lat="48.04905" lon="-4.70497">
        <ele>13</ele>
        <time>2011-04-18T06:54:58Z</time>
      </trkpt>
      <trkpt lat="48.04926" lon="-4.70489">
        <ele>17</ele>
        <time>2011-04-18T06:55:16Z</time>
      </trkpt>
      <trkpt lat="48.04948" lon="-4.70485">
        <ele>21</ele>
        <time>2011-04-18T06:55:36Z</time>
      </trkpt>
      <trkpt lat="48.04951" lon="-4.70485">
        <ele>21</ele>
        <time>2011-04-18T06:55:39Z</time>
      </trkpt>
      <trkpt lat="48.04962" lon="-4.70484">
        <ele>22</ele>
        <time>2011-04-18T06:55:48Z</time>
      </trkpt>
      <trkpt lat="48.04971" lon="-4.70502">
        <ele>19</ele>
        <time>2011-04-18T06:56:04Z</time>
      </trkpt>
      <trkpt lat="48.04962" lon="-4.70537">
        <ele>17</ele>
        <time>2011-04-18T06:56:25Z</time>
      </trkpt>
      <trkpt lat="48.04958" lon="-4.70545">
        <ele>16</ele>
        <time>2011-04-18T06:56:31Z</time>
      </trkpt>
      <trkpt lat="48.04968" lon="-4.7055">
        <ele>17</ele>
        <time>2011-04-18T06:56:46Z</time>
      </trkpt>
      <trkpt lat="48.04967" lon="-4.7056">
        <ele>17</ele>
        <time>2011-04-18T06:56:57Z</time>
      </trkpt>
      <trkpt lat="48.04975" lon="-4.7059">
        <ele>18</ele>
        <time>2011-04-18T06:57:18Z</time>
      </trkpt>
      <trkpt lat="48.04974" lon="-4.70588">
        <ele>18</ele>
        <time>2011-04-18T06:57:35Z</time>
      </trkpt>
      <trkpt lat="48.04975" lon="-4.70591">
        <ele>18</ele>
        <time>2011-04-18T06:57:51Z</time>
      </trkpt>
      <trkpt lat="48.04974" lon="-4.70593">
        <ele>18</ele>
        <time>2011-04-18T06:58:13Z</time>
      </trkpt>
      <trkpt lat="48.04981" lon="-4.70597">
        <ele>18</ele>
        <time>2011-04-18T06:58:40Z</time>
      </trkpt>
      <trkpt lat="48.04993" lon="-4.70606">
        <ele>19</ele>
        <time>2011-04-18T06:58:54Z</time>
      </trkpt>
      <trkpt lat="48.04997" lon="-4.70608">
        <ele>19</ele>
        <time>2011-04-18T06:58:58Z</time>
      </trkpt>
      <trkpt lat="48.05008" lon="-4.70642">
        <ele>28</ele>
        <time>2011-04-18T06:59:20Z</time>
      </trkpt>
      <trkpt lat="48.0501" lon="-4.70649">
        <ele>27</ele>
        <time>2011-04-18T06:59:39Z</time>
      </trkpt>
      <trkpt lat="48.05011" lon="-4.70651">
        <ele>27</ele>
        <time>2011-04-18T07:00:35Z</time>
      </trkpt>
      <trkpt lat="48.05025" lon="-4.70677">
        <ele>27</ele>
        <time>2011-04-18T07:00:55Z</time>
      </trkpt>
      <trkpt lat="48.05034" lon="-4.7069">
        <ele>30</ele>
        <time>2011-04-18T07:01:09Z</time>
      </trkpt>
      <trkpt lat="48.05035" lon="-4.70698">
        <ele>30</ele>
        <time>2011-04-18T07:01:17Z</time>
      </trkpt>
      <trkpt lat="48.05036" lon="-4.70737">
        <ele>28</ele>
        <time>2011-04-18T07:01:38Z</time>
      </trkpt>
      <trkpt lat="48.05041" lon="-4.70761">
        <ele>28</ele>
        <time>2011-04-18T07:01:55Z</time>
      </trkpt>
      <trkpt lat="48.05042" lon="-4.7078">
        <ele>29</ele>
        <time>2011-04-18T07:02:08Z</time>
      </trkpt>
      <trkpt lat="48.05046" lon="-4.70786">
        <ele>30</ele>
        <time>2011-04-18T07:02:14Z</time>
      </trkpt>
      <trkpt lat="48.05059" lon="-4.70811">
        <ele>30</ele>
        <time>2011-04-18T07:02:29Z</time>
      </trkpt>
      <trkpt lat="48.05069" lon="-4.70828">
        <ele>31</ele>
        <time>2011-04-18T07:02:44Z</time>
      </trkpt>
      <trkpt lat="48.05075" lon="-4.7084">
        <ele>30</ele>
        <time>2011-04-18T07:02:57Z</time>
      </trkpt>
      <trkpt lat="48.05082" lon="-4.70856">
        <ele>28</ele>
        <time>2011-04-18T07:03:13Z</time>
      </trkpt>
      <trkpt lat="48.0509" lon="-4.70886">
        <ele>29</ele>
        <time>2011-04-18T07:03:31Z</time>
      </trkpt>
      <trkpt lat="48.05094" lon="-4.70901">
        <ele>26</ele>
        <time>2011-04-18T07:03:45Z</time>
      </trkpt>
      <trkpt lat="48.05098" lon="-4.70906">
        <ele>26</ele>
        <time>2011-04-18T07:04:00Z</time>
      </trkpt>
      <trkpt lat="48.05096" lon="-4.70901">
        <ele>27</ele>
        <time>2011-04-18T07:04:32Z</time>
      </trkpt>
      <trkpt lat="48.05105" lon="-4.70895">
        <ele>29</ele>
        <time>2011-04-18T07:05:02Z</time>
      </trkpt>
      <trkpt lat="48.05111" lon="-4.70887">
        <ele>31</ele>
        <time>2011-04-18T07:05:41Z</time>
      </trkpt>
      <trkpt lat="48.05104" lon="-4.70899">
        <ele>29</ele>
        <time>2011-04-18T07:05:59Z</time>
      </trkpt>
      <trkpt lat="48.05104" lon="-4.70897">
        <ele>29</ele>
        <time>2011-04-18T07:06:05Z</time>
      </trkpt>
      <trkpt lat="48.05103" lon="-4.70892">
        <ele>29</ele>
        <time>2011-04-18T07:06:28Z</time>
      </trkpt>
      <trkpt lat="48.05105" lon="-4.70896">
        <ele>29</ele>
        <time>2011-04-18T07:06:43Z</time>
      </trkpt>
      <trkpt lat="48.05105" lon="-4.70896">
        <ele>29</ele>
        <time>2011-04-18T07:07:57Z</time>
      </trkpt>
      <trkpt lat="48.05106" lon="-4.70897">
        <ele>29</ele>
        <time>2011-04-18T07:08:30Z</time>
      </trkpt>
      <trkpt lat="48.05109" lon="-4.70906">
        <ele>29</ele>
        <time>2011-04-18T07:08:36Z</time>
      </trkpt>
      <trkpt lat="48.05113" lon="-4.7091">
        <ele>29</ele>
        <time>2011-04-18T07:08:41Z</time>
      </trkpt>
      <trkpt lat="48.05129" lon="-4.70943">
        <ele>24</ele>
        <time>2011-04-18T07:09:02Z</time>
      </trkpt>
      <trkpt lat="48.05131" lon="-4.70948">
        <ele>24</ele>
        <time>2011-04-18T07:09:05Z</time>
      </trkpt>
      <trkpt lat="48.05142" lon="-4.70983">
        <ele>21</ele>
        <time>2011-04-18T07:09:24Z</time>
      </trkpt>
      <trkpt lat="48.05153" lon="-4.71015">
        <ele>14</ele>
        <time>2011-04-18T07:09:43Z</time>
      </trkpt>
      <trkpt lat="48.05153" lon="-4.71015">
        <ele>14</ele>
        <time>2011-04-18T07:09:55Z</time>
      </trkpt>
      <trkpt lat="48.05152" lon="-4.70996">
        <ele>19</ele>
        <time>2011-04-18T07:10:12Z</time>
      </trkpt>
      <trkpt lat="48.05151" lon="-4.70994">
        <ele>19</ele>
        <time>2011-04-18T07:10:16Z</time>
      </trkpt>
      <trkpt lat="48.0515" lon="-4.70989">
        <ele>20</ele>
        <time>2011-04-18T07:10:21Z</time>
      </trkpt>
      <trkpt lat="48.0515" lon="-4.70983">
        <ele>21</ele>
        <time>2011-04-18T07:10:26Z</time>
      </trkpt>
      <trkpt lat="48.0515" lon="-4.70978">
        <ele>21</ele>
        <time>2011-04-18T07:10:32Z</time>
      </trkpt>
      <trkpt lat="48.05153" lon="-4.70963">
        <ele>23</ele>
        <time>2011-04-18T07:10:46Z</time>
      </trkpt>
      <trkpt lat="48.05156" lon="-4.70957">
        <ele>24</ele>
        <time>2011-04-18T07:10:51Z</time>
      </trkpt>
      <trkpt lat="48.05171" lon="-4.70936">
        <ele>27</ele>
        <time>2011-04-18T07:11:08Z</time>
      </trkpt>
      <trkpt lat="48.05182" lon="-4.70918">
        <ele>29</ele>
        <time>2011-04-18T07:11:22Z</time>
      </trkpt>
      <trkpt lat="48.05199" lon="-4.7089">
        <ele>37</ele>
        <time>2011-04-18T07:11:43Z</time>
      </trkpt>
      <trkpt lat="48.05206" lon="-4.70865">
        <ele>39</ele>
        <time>2011-04-18T07:11:59Z</time>
      </trkpt>
      <trkpt lat="48.0523" lon="-4.70849">
        <ele>40</ele>
        <time>2011-04-18T07:12:19Z</time>
      </trkpt>
      <trkpt lat="48.05246" lon="-4.70861">
        <ele>38</ele>
        <time>2011-04-18T07:12:38Z</time>
      </trkpt>
      <trkpt lat="48.05246" lon="-4.70862">
        <ele>38</ele>
        <time>2011-04-18T07:13:02Z</time>
      </trkpt>
      <trkpt lat="48.05253" lon="-4.70862">
        <ele>39</ele>
        <time>2011-04-18T07:13:08Z</time>
      </trkpt>
      <trkpt lat="48.05285" lon="-4.70876">
        <ele>38</ele>
        <time>2011-04-18T07:13:32Z</time>
      </trkpt>
      <trkpt lat="48.05287" lon="-4.70879">
        <ele>38</ele>
        <time>2011-04-18T07:13:34Z</time>
      </trkpt>
      <trkpt lat="48.05306" lon="-4.70925">
        <ele>28</ele>
        <time>2011-04-18T07:14:02Z</time>
      </trkpt>
      <trkpt lat="48.05318" lon="-4.70958">
        <ele>26</ele>
        <time>2011-04-18T07:14:22Z</time>
      </trkpt>
      <trkpt lat="48.05327" lon="-4.70986">
        <ele>25</ele>
        <time>2011-04-18T07:14:38Z</time>
      </trkpt>
      <trkpt lat="48.05336" lon="-4.71023">
        <ele>29</ele>
        <time>2011-04-18T07:15:00Z</time>
      </trkpt>
      <trkpt lat="48.05338" lon="-4.71065">
        <ele>26</ele>
        <time>2011-04-18T07:15:24Z</time>
      </trkpt>
      <trkpt lat="48.0534" lon="-4.71101">
        <ele>24</ele>
        <time>2011-04-18T07:15:45Z</time>
      </trkpt>
      <trkpt lat="48.05342" lon="-4.71156">
        <ele>21</ele>
        <time>2011-04-18T07:16:14Z</time>
      </trkpt>
      <trkpt lat="48.05338" lon="-4.71187">
        <ele>19</ele>
        <time>2011-04-18T07:16:31Z</time>
      </trkpt>
      <trkpt lat="48.05339" lon="-4.71208">
        <ele>20</ele>
        <time>2011-04-18T07:16:44Z</time>
      </trkpt>
      <trkpt lat="48.0534" lon="-4.71213">
        <ele>20</ele>
        <time>2011-04-18T07:16:48Z</time>
      </trkpt>
      <trkpt lat="48.05351" lon="-4.71244">
        <ele>19</ele>
        <time>2011-04-18T07:17:08Z</time>
      </trkpt>
      <trkpt lat="48.0536" lon="-4.71269">
        <ele>16</ele>
        <time>2011-04-18T07:17:26Z</time>
      </trkpt>
      <trkpt lat="48.0537" lon="-4.7129">
        <ele>16</ele>
        <time>2011-04-18T07:17:46Z</time>
      </trkpt>
      <trkpt lat="48.05379" lon="-4.71304">
        <ele>15</ele>
        <time>2011-04-18T07:18:01Z</time>
      </trkpt>
      <trkpt lat="48.05386" lon="-4.71303">
        <ele>15</ele>
        <time>2011-04-18T07:18:21Z</time>
      </trkpt>
      <trkpt lat="48.05385" lon="-4.713">
        <ele>15</ele>
        <time>2011-04-18T07:18:43Z</time>
      </trkpt>
      <trkpt lat="48.05384" lon="-4.71295">
        <ele>15</ele>
        <time>2011-04-18T07:18:50Z</time>
      </trkpt>
      <trkpt lat="48.05384" lon="-4.71287">
        <ele>16</ele>
        <time>2011-04-18T07:18:54Z</time>
      </trkpt>
      <trkpt lat="48.05384" lon="-4.71282">
        <ele>16</ele>
        <time>2011-04-18T07:18:57Z</time>
      </trkpt>
      <trkpt lat="48.05388" lon="-4.71266">
        <ele>17</ele>
        <time>2011-04-18T07:19:15Z</time>
      </trkpt>
      <trkpt lat="48.05389" lon="-4.71263">
        <ele>18</ele>
        <time>2011-04-18T07:19:17Z</time>
      </trkpt>
      <trkpt lat="48.05391" lon="-4.71252">
        <ele>18</ele>
        <time>2011-04-18T07:19:31Z</time>
      </trkpt>
      <trkpt lat="48.05391" lon="-4.7125">
        <ele>22</ele>
        <time>2011-04-18T07:19:36Z</time>
      </trkpt>
      <trkpt lat="48.054" lon="-4.71231">
        <ele>23</ele>
        <time>2011-04-18T07:19:52Z</time>
      </trkpt>
      <trkpt lat="48.05404" lon="-4.71226">
        <ele>23</ele>
        <time>2011-04-18T07:19:57Z</time>
      </trkpt>
      <trkpt lat="48.05408" lon="-4.71226">
        <ele>23</ele>
        <time>2011-04-18T07:20:00Z</time>
      </trkpt>
      <trkpt lat="48.05417" lon="-4.71216">
        <ele>22</ele>
        <time>2011-04-18T07:20:10Z</time>
      </trkpt>
      <trkpt lat="48.05419" lon="-4.71209">
        <ele>23</ele>
        <time>2011-04-18T07:20:16Z</time>
      </trkpt>
      <trkpt lat="48.05424" lon="-4.71203">
        <ele>23</ele>
        <time>2011-04-18T07:20:22Z</time>
      </trkpt>
      <trkpt lat="48.05431" lon="-4.71177">
        <ele>27</ele>
        <time>2011-04-18T07:20:38Z</time>
      </trkpt>
      <trkpt lat="48.05443" lon="-4.71151">
        <ele>31</ele>
        <time>2011-04-18T07:20:55Z</time>
      </trkpt>
      <trkpt lat="48.05444" lon="-4.71147">
        <ele>31</ele>
        <time>2011-04-18T07:20:58Z</time>
      </trkpt>
      <trkpt lat="48.05446" lon="-4.71143">
        <ele>31</ele>
        <time>2011-04-18T07:21:01Z</time>
      </trkpt>
      <trkpt lat="48.05448" lon="-4.71137">
        <ele>31</ele>
        <time>2011-04-18T07:21:05Z</time>
      </trkpt>
      <trkpt lat="48.05465" lon="-4.71118">
        <ele>30</ele>
        <time>2011-04-18T07:21:23Z</time>
      </trkpt>
      <trkpt lat="48.05467" lon="-4.71117">
        <ele>30</ele>
        <time>2011-04-18T07:21:26Z</time>
      </trkpt>
      <trkpt lat="48.05476" lon="-4.71105">
        <ele>30</ele>
        <time>2011-04-18T07:21:36Z</time>
      </trkpt>
      <trkpt lat="48.05481" lon="-4.71097">
        <ele>30</ele>
        <time>2011-04-18T07:21:44Z</time>
      </trkpt>
      <trkpt lat="48.05485" lon="-4.71088">
        <ele>30</ele>
        <time>2011-04-18T07:22:05Z</time>
      </trkpt>
      <trkpt lat="48.05492" lon="-4.71069">
        <ele>34</ele>
        <time>2011-04-18T07:22:23Z</time>
      </trkpt>
      <trkpt lat="48.05494" lon="-4.71067">
        <ele>34</ele>
        <time>2011-04-18T07:22:26Z</time>
      </trkpt>
      <trkpt lat="48.05504" lon="-4.71054">
        <ele>32</ele>
        <time>2011-04-18T07:22:43Z</time>
      </trkpt>
      <trkpt lat="48.05507" lon="-4.71038">
        <ele>33</ele>
        <time>2011-04-18T07:22:54Z</time>
      </trkpt>
      <trkpt lat="48.05512" lon="-4.71022">
        <ele>34</ele>
        <time>2011-04-18T07:23:08Z</time>
      </trkpt>
      <trkpt lat="48.05518" lon="-4.71036">
        <ele>33</ele>
        <time>2011-04-18T07:23:20Z</time>
      </trkpt>
      <trkpt lat="48.05523" lon="-4.7104">
        <ele>33</ele>
        <time>2011-04-18T07:23:26Z</time>
      </trkpt>
      <trkpt lat="48.05531" lon="-4.7103">
        <ele>34</ele>
        <time>2011-04-18T07:23:43Z</time>
      </trkpt>
      <trkpt lat="48.0553" lon="-4.71029">
        <ele>34</ele>
        <time>2011-04-18T07:23:59Z</time>
      </trkpt>
      <trkpt lat="48.05535" lon="-4.7102">
        <ele>34</ele>
        <time>2011-04-18T07:24:05Z</time>
      </trkpt>
      <trkpt lat="48.05545" lon="-4.71021">
        <ele>34</ele>
        <time>2011-04-18T07:24:14Z</time>
      </trkpt>
      <trkpt lat="48.05563" lon="-4.71059">
        <ele>31</ele>
        <time>2011-04-18T07:24:36Z</time>
      </trkpt>
      <trkpt lat="48.05567" lon="-4.71061">
        <ele>30</ele>
        <time>2011-04-18T07:24:48Z</time>
      </trkpt>
      <trkpt lat="48.05575" lon="-4.71067">
        <ele>29</ele>
        <time>2011-04-18T07:25:01Z</time>
      </trkpt>
      <trkpt lat="48.05584" lon="-4.71076">
        <ele>29</ele>
        <time>2011-04-18T07:25:15Z</time>
      </trkpt>
      <trkpt lat="48.05588" lon="-4.71081">
        <ele>28</ele>
        <time>2011-04-18T07:25:19Z</time>
      </trkpt>
      <trkpt lat="48.05597" lon="-4.71093">
        <ele>26</ele>
        <time>2011-04-18T07:25:37Z</time>
      </trkpt>
      <trkpt lat="48.05607" lon="-4.71102">
        <ele>27</ele>
        <time>2011-04-18T07:25:52Z</time>
      </trkpt>
      <trkpt lat="48.05616" lon="-4.7111">
        <ele>27</ele>
        <time>2011-04-18T07:26:05Z</time>
      </trkpt>
      <trkpt lat="48.05625" lon="-4.71121">
        <ele>27</ele>
        <time>2011-04-18T07:26:15Z</time>
      </trkpt>
      <trkpt lat="48.05628" lon="-4.71122">
        <ele>27</ele>
        <time>2011-04-18T07:26:18Z</time>
      </trkpt>
      <trkpt lat="48.05636" lon="-4.71114">
        <ele>29</ele>
        <time>2011-04-18T07:26:29Z</time>
      </trkpt>
      <trkpt lat="48.05663" lon="-4.71109">
        <ele>33</ele>
        <time>2011-04-18T07:26:46Z</time>
      </trkpt>
      <trkpt lat="48.05669" lon="-4.71114">
        <ele>42</ele>
        <time>2011-04-18T07:26:53Z</time>
      </trkpt>
      <trkpt lat="48.05671" lon="-4.7112">
        <ele>41</ele>
        <time>2011-04-18T07:26:58Z</time>
      </trkpt>
      <trkpt lat="48.05672" lon="-4.71121">
        <ele>41</ele>
        <time>2011-04-18T07:27:01Z</time>
      </trkpt>
      <trkpt lat="48.05666" lon="-4.71132">
        <ele>29</ele>
        <time>2011-04-18T07:27:09Z</time>
      </trkpt>
      <trkpt lat="48.05655" lon="-4.71143">
        <ele>28</ele>
        <time>2011-04-18T07:27:19Z</time>
      </trkpt>
      <trkpt lat="48.05662" lon="-4.71163">
        <ele>28</ele>
        <time>2011-04-18T07:27:30Z</time>
      </trkpt>
      <trkpt lat="48.0567" lon="-4.71167">
        <ele>30</ele>
        <time>2011-04-18T07:27:43Z</time>
      </trkpt>
      <trkpt lat="48.05681" lon="-4.71155">
        <ele>37</ele>
        <time>2011-04-18T07:27:58Z</time>
      </trkpt>
      <trkpt lat="48.05687" lon="-4.71158">
        <ele>38</ele>
        <time>2011-04-18T07:28:17Z</time>
      </trkpt>
      <trkpt lat="48.05687" lon="-4.71167">
        <ele>32</ele>
        <time>2011-04-18T07:28:28Z</time>
      </trkpt>
      <trkpt lat="48.05676" lon="-4.71199">
        <ele>30</ele>
        <time>2011-04-18T07:28:49Z</time>
      </trkpt>
      <trkpt lat="48.05678" lon="-4.71227">
        <ele>27</ele>
        <time>2011-04-18T07:29:06Z</time>
      </trkpt>
      <trkpt lat="48.05693" lon="-4.71237">
        <ele>28</ele>
        <time>2011-04-18T07:29:21Z</time>
      </trkpt>
      <trkpt lat="48.05699" lon="-4.7124">
        <ele>29</ele>
        <time>2011-04-18T07:29:26Z</time>
      </trkpt>
      <trkpt lat="48.05726" lon="-4.71245">
        <ele>33</ele>
        <time>2011-04-18T07:29:47Z</time>
      </trkpt>
      <trkpt lat="48.05744" lon="-4.71252">
        <ele>34</ele>
        <time>2011-04-18T07:30:01Z</time>
      </trkpt>
      <trkpt lat="48.05762" lon="-4.71272">
        <ele>32</ele>
        <time>2011-04-18T07:30:19Z</time>
      </trkpt>
      <trkpt lat="48.05762" lon="-4.71275">
        <ele>32</ele>
        <time>2011-04-18T07:30:31Z</time>
      </trkpt>
      <trkpt lat="48.0576" lon="-4.71301">
        <ele>27</ele>
        <time>2011-04-18T07:30:48Z</time>
      </trkpt>
      <trkpt lat="48.05773" lon="-4.71334">
        <ele>18</ele>
        <time>2011-04-18T07:31:07Z</time>
      </trkpt>
      <trkpt lat="48.05789" lon="-4.71345">
        <ele>19</ele>
        <time>2011-04-18T07:31:23Z</time>
      </trkpt>
      <trkpt lat="48.0579" lon="-4.71345">
        <ele>19</ele>
        <time>2011-04-18T07:31:35Z</time>
      </trkpt>
      <trkpt lat="48.05795" lon="-4.71325">
        <ele>27</ele>
        <time>2011-04-18T07:31:46Z</time>
      </trkpt>
      <trkpt lat="48.05815" lon="-4.71303">
        <ele>29</ele>
        <time>2011-04-18T07:32:03Z</time>
      </trkpt>
      <trkpt lat="48.05838" lon="-4.71292">
        <ele>31</ele>
        <time>2011-04-18T07:32:20Z</time>
      </trkpt>
      <trkpt lat="48.05848" lon="-4.71287">
        <ele>31</ele>
        <time>2011-04-18T07:32:34Z</time>
      </trkpt>
      <trkpt lat="48.05848" lon="-4.71285">
        <ele>32</ele>
        <time>2011-04-18T07:32:36Z</time>
      </trkpt>
      <trkpt lat="48.05848" lon="-4.71281">
        <ele>33</ele>
        <time>2011-04-18T07:32:42Z</time>
      </trkpt>
      <trkpt lat="48.05848" lon="-4.71281">
        <ele>33</ele>
        <time>2011-04-18T07:32:55Z</time>
      </trkpt>
      <trkpt lat="48.05848" lon="-4.71281">
        <ele>32</ele>
        <time>2011-04-18T07:33:33Z</time>
      </trkpt>
      <trkpt lat="48.05868" lon="-4.71285">
        <ele>30</ele>
        <time>2011-04-18T07:33:49Z</time>
      </trkpt>
      <trkpt lat="48.0587" lon="-4.71286">
        <ele>30</ele>
        <time>2011-04-18T07:33:51Z</time>
      </trkpt>
      <trkpt lat="48.0589" lon="-4.71286">
        <ele>29</ele>
        <time>2011-04-18T07:34:09Z</time>
      </trkpt>
      <trkpt lat="48.05893" lon="-4.71284">
        <ele>29</ele>
        <time>2011-04-18T07:34:37Z</time>
      </trkpt>
      <trkpt lat="48.05892" lon="-4.71284">
        <ele>29</ele>
        <time>2011-04-18T07:35:10Z</time>
      </trkpt>
      <trkpt lat="48.05891" lon="-4.7127">
        <ele>31</ele>
        <time>2011-04-18T07:35:17Z</time>
      </trkpt>
      <trkpt lat="48.05897" lon="-4.71237">
        <ele>43</ele>
        <time>2011-04-18T07:35:33Z</time>
      </trkpt>
      <trkpt lat="48.05905" lon="-4.71199">
        <ele>46</ele>
        <time>2011-04-18T07:35:50Z</time>
      </trkpt>
      <trkpt lat="48.05914" lon="-4.71173">
        <ele>49</ele>
        <time>2011-04-18T07:36:02Z</time>
      </trkpt>
      <trkpt lat="48.05921" lon="-4.71163">
        <ele>50</ele>
        <time>2011-04-18T07:36:08Z</time>
      </trkpt>
      <trkpt lat="48.05947" lon="-4.71174">
        <ele>44</ele>
        <time>2011-04-18T07:36:25Z</time>
      </trkpt>
      <trkpt lat="48.05965" lon="-4.71183">
        <ele>43</ele>
        <time>2011-04-18T07:36:39Z</time>
      </trkpt>
      <trkpt lat="48.05988" lon="-4.71201">
        <ele>42</ele>
        <time>2011-04-18T07:36:58Z</time>
      </trkpt>
      <trkpt lat="48.05992" lon="-4.71203">
        <ele>41</ele>
        <time>2011-04-18T07:37:11Z</time>
      </trkpt>
      <trkpt lat="48.05995" lon="-4.71202">
        <ele>42</ele>
        <time>2011-04-18T07:37:14Z</time>
      </trkpt>
      <trkpt lat="48.06005" lon="-4.71187">
        <ele>45</ele>
        <time>2011-04-18T07:37:29Z</time>
      </trkpt>
      <trkpt lat="48.0601" lon="-4.71188">
        <ele>45</ele>
        <time>2011-04-18T07:37:33Z</time>
      </trkpt>
      <trkpt lat="48.06016" lon="-4.71194">
        <ele>44</ele>
        <time>2011-04-18T07:37:39Z</time>
      </trkpt>
      <trkpt lat="48.06017" lon="-4.71213">
        <ele>42</ele>
        <time>2011-04-18T07:37:48Z</time>
      </trkpt>
      <trkpt lat="48.06012" lon="-4.71225">
        <ele>39</ele>
        <time>2011-04-18T07:37:56Z</time>
      </trkpt>
      <trkpt lat="48.06006" lon="-4.71225">
        <ele>39</ele>
        <time>2011-04-18T07:38:00Z</time>
      </trkpt>
      <trkpt lat="48.06001" lon="-4.71225">
        <ele>39</ele>
        <time>2011-04-18T07:38:05Z</time>
      </trkpt>
      <trkpt lat="48.06" lon="-4.71205">
        <ele>41</ele>
        <time>2011-04-18T07:38:18Z</time>
      </trkpt>
      <trkpt lat="48.06" lon="-4.71204">
        <ele>43</ele>
        <time>2011-04-18T07:38:23Z</time>
      </trkpt>
      <trkpt lat="48.06001" lon="-4.71189">
        <ele>45</ele>
        <time>2011-04-18T07:38:31Z</time>
      </trkpt>
      <trkpt lat="48.06004" lon="-4.71181">
        <ele>46</ele>
        <time>2011-04-18T07:38:37Z</time>
      </trkpt>
      <trkpt lat="48.06024" lon="-4.71172">
        <ele>46</ele>
        <time>2011-04-18T07:38:57Z</time>
      </trkpt>
      <trkpt lat="48.06039" lon="-4.7116">
        <ele>53</ele>
        <time>2011-04-18T07:39:14Z</time>
      </trkpt>
      <trkpt lat="48.06045" lon="-4.71154">
        <ele>53</ele>
        <time>2011-04-18T07:39:30Z</time>
      </trkpt>
      <trkpt lat="48.06051" lon="-4.71154">
        <ele>53</ele>
        <time>2011-04-18T07:39:43Z</time>
      </trkpt>
      <trkpt lat="48.06048" lon="-4.71154">
        <ele>53</ele>
        <time>2011-04-18T07:39:54Z</time>
      </trkpt>
      <trkpt lat="48.0605" lon="-4.71151">
        <ele>53</ele>
        <time>2011-04-18T07:40:18Z</time>
      </trkpt>
      <trkpt lat="48.06052" lon="-4.71153">
        <ele>53</ele>
        <time>2011-04-18T07:40:34Z</time>
      </trkpt>
      <trkpt lat="48.06051" lon="-4.71154">
        <ele>53</ele>
        <time>2011-04-18T07:40:35Z</time>
      </trkpt>
      <trkpt lat="48.06045" lon="-4.71159">
        <ele>53</ele>
        <time>2011-04-18T07:40:42Z</time>
      </trkpt>
      <trkpt lat="48.06033" lon="-4.71164">
        <ele>52</ele>
        <time>2011-04-18T07:40:56Z</time>
      </trkpt>
      <trkpt lat="48.06021" lon="-4.71172">
        <ele>46</ele>
        <time>2011-04-18T07:41:11Z</time>
      </trkpt>
      <trkpt lat="48.06013" lon="-4.71184">
        <ele>46</ele>
        <time>2011-04-18T07:41:22Z</time>
      </trkpt>
      <trkpt lat="48.06016" lon="-4.71189">
        <ele>45</ele>
        <time>2011-04-18T07:41:26Z</time>
      </trkpt>
      <trkpt lat="48.06032" lon="-4.71203">
        <ele>44</ele>
        <time>2011-04-18T07:41:43Z</time>
      </trkpt>
      <trkpt lat="48.06035" lon="-4.71207">
        <ele>44</ele>
        <time>2011-04-18T07:41:46Z</time>
      </trkpt>
      <trkpt lat="48.06036" lon="-4.7121">
        <ele>43</ele>
        <time>2011-04-18T07:41:48Z</time>
      </trkpt>
      <trkpt lat="48.06038" lon="-4.71215">
        <ele>43</ele>
        <time>2011-04-18T07:41:53Z</time>
      </trkpt>
      <trkpt lat="48.06047" lon="-4.71241">
        <ele>42</ele>
        <time>2011-04-18T07:42:10Z</time>
      </trkpt>
      <trkpt lat="48.06052" lon="-4.71253">
        <ele>33</ele>
        <time>2011-04-18T07:42:18Z</time>
      </trkpt>
      <trkpt lat="48.06062" lon="-4.71271">
        <ele>34</ele>
        <time>2011-04-18T07:42:31Z</time>
      </trkpt>
      <trkpt lat="48.06068" lon="-4.71277">
        <ele>33</ele>
        <time>2011-04-18T07:42:37Z</time>
      </trkpt>
      <trkpt lat="48.06083" lon="-4.713">
        <ele>32</ele>
        <time>2011-04-18T07:42:55Z</time>
      </trkpt>
      <trkpt lat="48.06088" lon="-4.71312">
        <ele>40</ele>
        <time>2011-04-18T07:43:14Z</time>
      </trkpt>
      <trkpt lat="48.06099" lon="-4.71333">
        <ele>39</ele>
        <time>2011-04-18T07:43:51Z</time>
      </trkpt>
      <trkpt lat="48.06102" lon="-4.71337">
        <ele>34</ele>
        <time>2011-04-18T07:43:53Z</time>
      </trkpt>
      <trkpt lat="48.06109" lon="-4.71343">
        <ele>35</ele>
        <time>2011-04-18T07:44:00Z</time>
      </trkpt>
      <trkpt lat="48.06128" lon="-4.7137">
        <ele>36</ele>
        <time>2011-04-18T07:44:23Z</time>
      </trkpt>
      <trkpt lat="48.06147" lon="-4.71392">
        <ele>37</ele>
        <time>2011-04-18T07:44:43Z</time>
      </trkpt>
      <trkpt lat="48.06168" lon="-4.71419">
        <ele>40</ele>
        <time>2011-04-18T07:45:05Z</time>
      </trkpt>
      <trkpt lat="48.06172" lon="-4.71424">
        <ele>40</ele>
        <time>2011-04-18T07:45:10Z</time>
      </trkpt>
      <trkpt lat="48.06178" lon="-4.71425">
        <ele>39</ele>
        <time>2011-04-18T07:45:24Z</time>
      </trkpt>
      <trkpt lat="48.06185" lon="-4.71425">
        <ele>40</ele>
        <time>2011-04-18T07:45:39Z</time>
      </trkpt>
      <trkpt lat="48.06204" lon="-4.71425">
        <ele>41</ele>
        <time>2011-04-18T07:45:58Z</time>
      </trkpt>
      <trkpt lat="48.06227" lon="-4.7142">
        <ele>44</ele>
        <time>2011-04-18T07:46:17Z</time>
      </trkpt>
      <trkpt lat="48.06247" lon="-4.71413">
        <ele>52</ele>
        <time>2011-04-18T07:46:34Z</time>
      </trkpt>
      <trkpt lat="48.06266" lon="-4.71406">
        <ele>53</ele>
        <time>2011-04-18T07:46:51Z</time>
      </trkpt>
      <trkpt lat="48.06285" lon="-4.71417">
        <ele>48</ele>
        <time>2011-04-18T07:47:07Z</time>
      </trkpt>
      <trkpt lat="48.06308" lon="-4.7144">
        <ele>46</ele>
        <time>2011-04-18T07:47:33Z</time>
      </trkpt>
      <trkpt lat="48.06308" lon="-4.71441">
        <ele>46</ele>
        <time>2011-04-18T07:47:40Z</time>
      </trkpt>
      <trkpt lat="48.06319" lon="-4.71451">
        <ele>45</ele>
        <time>2011-04-18T07:47:53Z</time>
      </trkpt>
      <trkpt lat="48.06321" lon="-4.71456">
        <ele>45</ele>
        <time>2011-04-18T07:47:59Z</time>
      </trkpt>
      <trkpt lat="48.0633" lon="-4.71455">
        <ele>45</ele>
        <time>2011-04-18T07:48:12Z</time>
      </trkpt>
      <trkpt lat="48.06332" lon="-4.71454">
        <ele>45</ele>
        <time>2011-04-18T07:48:14Z</time>
      </trkpt>
      <trkpt lat="48.06337" lon="-4.71449">
        <ele>37</ele>
        <time>2011-04-18T07:48:32Z</time>
      </trkpt>
      <trkpt lat="48.06346" lon="-4.71441">
        <ele>37</ele>
        <time>2011-04-18T07:48:49Z</time>
      </trkpt>
      <trkpt lat="48.06364" lon="-4.71418">
        <ele>36</ele>
        <time>2011-04-18T07:49:10Z</time>
      </trkpt>
      <trkpt lat="48.06379" lon="-4.71395">
        <ele>40</ele>
        <time>2011-04-18T07:49:29Z</time>
      </trkpt>
      <trkpt lat="48.06378" lon="-4.71397">
        <ele>41</ele>
        <time>2011-04-18T07:49:43Z</time>
      </trkpt>
      <trkpt lat="48.06395" lon="-4.71382">
        <ele>39</ele>
        <time>2011-04-18T07:49:59Z</time>
      </trkpt>
      <trkpt lat="48.06409" lon="-4.71354">
        <ele>39</ele>
        <time>2011-04-18T07:50:18Z</time>
      </trkpt>
      <trkpt lat="48.06397" lon="-4.7133">
        <ele>42</ele>
        <time>2011-04-18T07:50:36Z</time>
      </trkpt>
      <trkpt lat="48.06385" lon="-4.71296">
        <ele>46</ele>
        <time>2011-04-18T07:50:58Z</time>
      </trkpt>
      <trkpt lat="48.0638" lon="-4.71265">
        <ele>46</ele>
        <time>2011-04-18T07:51:18Z</time>
      </trkpt>
      <trkpt lat="48.06375" lon="-4.71239">
        <ele>48</ele>
        <time>2011-04-18T07:51:34Z</time>
      </trkpt>
      <trkpt lat="48.0638" lon="-4.71204">
        <ele>48</ele>
        <time>2011-04-18T07:51:52Z</time>
      </trkpt>
      <trkpt lat="48.06385" lon="-4.71188">
        <ele>48</ele>
        <time>2011-04-18T07:52:05Z</time>
      </trkpt>
      <trkpt lat="48.06391" lon="-4.7118">
        <ele>47</ele>
        <time>2011-04-18T07:52:19Z</time>
      </trkpt>
      <trkpt lat="48.06392" lon="-4.71178">
        <ele>46</ele>
        <time>2011-04-18T07:52:21Z</time>
      </trkpt>
      <trkpt lat="48.06395" lon="-4.71172">
        <ele>46</ele>
        <time>2011-04-18T07:52:25Z</time>
      </trkpt>
      <trkpt lat="48.06395" lon="-4.71169">
        <ele>45</ele>
        <time>2011-04-18T07:52:27Z</time>
      </trkpt>
      <trkpt lat="48.06402" lon="-4.71151">
        <ele>42</ele>
        <time>2011-04-18T07:52:46Z</time>
      </trkpt>
      <trkpt lat="48.06407" lon="-4.71153">
        <ele>41</ele>
        <time>2011-04-18T07:52:52Z</time>
      </trkpt>
      <trkpt lat="48.06414" lon="-4.71164">
        <ele>40</ele>
        <time>2011-04-18T07:53:08Z</time>
      </trkpt>
      <trkpt lat="48.06415" lon="-4.71163">
        <ele>40</ele>
        <time>2011-04-18T07:53:19Z</time>
      </trkpt>
      <trkpt lat="48.06414" lon="-4.71151">
        <ele>41</ele>
        <time>2011-04-18T07:53:27Z</time>
      </trkpt>
      <trkpt lat="48.06411" lon="-4.71143">
        <ele>41</ele>
        <time>2011-04-18T07:53:43Z</time>
      </trkpt>
      <trkpt lat="48.0641" lon="-4.71143">
        <ele>41</ele>
        <time>2011-04-18T07:54:16Z</time>
      </trkpt>
      <trkpt lat="48.06401" lon="-4.71151">
        <ele>42</ele>
        <time>2011-04-18T07:54:32Z</time>
      </trkpt>
      <trkpt lat="48.064" lon="-4.71154">
        <ele>42</ele>
        <time>2011-04-18T07:54:47Z</time>
      </trkpt>
      <trkpt lat="48.06391" lon="-4.71165">
        <ele>43</ele>
        <time>2011-04-18T07:55:23Z</time>
      </trkpt>
      <trkpt lat="48.06384" lon="-4.71167">
        <ele>47</ele>
        <time>2011-04-18T07:55:29Z</time>
      </trkpt>
      <trkpt lat="48.06372" lon="-4.71133">
        <ele>44</ele>
        <time>2011-04-18T07:55:50Z</time>
      </trkpt>
      <trkpt lat="48.0635" lon="-4.71112">
        <ele>46</ele>
        <time>2011-04-18T07:56:10Z</time>
      </trkpt>
      <trkpt lat="48.06333" lon="-4.71082">
        <ele>50</ele>
        <time>2011-04-18T07:56:31Z</time>
      </trkpt>
      <trkpt lat="48.06323" lon="-4.71072">
        <ele>50</ele>
        <time>2011-04-18T07:56:44Z</time>
      </trkpt>
      <trkpt lat="48.06316" lon="-4.71071">
        <ele>50</ele>
        <time>2011-04-18T07:56:49Z</time>
      </trkpt>
      <trkpt lat="48.06302" lon="-4.7105">
        <ele>49</ele>
        <time>2011-04-18T07:57:06Z</time>
      </trkpt>
      <trkpt lat="48.06296" lon="-4.71043">
        <ele>49</ele>
        <time>2011-04-18T07:57:12Z</time>
      </trkpt>
      <trkpt lat="48.06286" lon="-4.71029">
        <ele>49</ele>
        <time>2011-04-18T07:57:22Z</time>
      </trkpt>
      <trkpt lat="48.06266" lon="-4.70985">
        <ele>46</ele>
        <time>2011-04-18T07:57:48Z</time>
      </trkpt>
      <trkpt lat="48.06254" lon="-4.7096">
        <ele>45</ele>
        <time>2011-04-18T07:58:05Z</time>
      </trkpt>
      <trkpt lat="48.0625" lon="-4.7095">
        <ele>45</ele>
        <time>2011-04-18T07:58:11Z</time>
      </trkpt>
      <trkpt lat="48.06249" lon="-4.70906">
        <ele>55</ele>
        <time>2011-04-18T07:58:33Z</time>
      </trkpt>
      <trkpt lat="48.06249" lon="-4.70855">
        <ele>57</ele>
        <time>2011-04-18T07:58:55Z</time>
      </trkpt>
      <trkpt lat="48.06253" lon="-4.70823">
        <ele>49</ele>
        <time>2011-04-18T07:59:13Z</time>
      </trkpt>
      <trkpt lat="48.06254" lon="-4.70792">
        <ele>44</ele>
        <time>2011-04-18T07:59:31Z</time>
      </trkpt>
      <trkpt lat="48.06264" lon="-4.70757">
        <ele>47</ele>
        <time>2011-04-18T07:59:49Z</time>
      </trkpt>
      <trkpt lat="48.06268" lon="-4.70749">
        <ele>45</ele>
        <time>2011-04-18T07:59:55Z</time>
      </trkpt>
      <trkpt lat="48.06276" lon="-4.70742">
        <ele>41</ele>
        <time>2011-04-18T08:00:01Z</time>
      </trkpt>
      <trkpt lat="48.06279" lon="-4.70739">
        <ele>40</ele>
        <time>2011-04-18T08:00:04Z</time>
      </trkpt>
      <trkpt lat="48.06284" lon="-4.70724">
        <ele>37</ele>
        <time>2011-04-18T08:00:13Z</time>
      </trkpt>
      <trkpt lat="48.06287" lon="-4.70707">
        <ele>36</ele>
        <time>2011-04-18T08:00:24Z</time>
      </trkpt>
      <trkpt lat="48.06288" lon="-4.70696">
        <ele>35</ele>
        <time>2011-04-18T08:00:41Z</time>
      </trkpt>
      <trkpt lat="48.06285" lon="-4.70699">
        <ele>36</ele>
        <time>2011-04-18T08:00:56Z</time>
      </trkpt>
      <trkpt lat="48.06278" lon="-4.70693">
        <ele>38</ele>
        <time>2011-04-18T08:01:04Z</time>
      </trkpt>
      <trkpt lat="48.06275" lon="-4.70689">
        <ele>39</ele>
        <time>2011-04-18T08:01:08Z</time>
      </trkpt>
      <trkpt lat="48.06274" lon="-4.70687">
        <ele>40</ele>
        <time>2011-04-18T08:01:10Z</time>
      </trkpt>
      <trkpt lat="48.0627" lon="-4.70682">
        <ele>41</ele>
        <time>2011-04-18T08:01:15Z</time>
      </trkpt>
      <trkpt lat="48.06269" lon="-4.70679">
        <ele>42</ele>
        <time>2011-04-18T08:01:17Z</time>
      </trkpt>
      <trkpt lat="48.06268" lon="-4.70676">
        <ele>43</ele>
        <time>2011-04-18T08:01:19Z</time>
      </trkpt>
      <trkpt lat="48.06257" lon="-4.7065">
        <ele>42</ele>
        <time>2011-04-18T08:01:35Z</time>
      </trkpt>
      <trkpt lat="48.06243" lon="-4.70625">
        <ele>54</ele>
        <time>2011-04-18T08:01:53Z</time>
      </trkpt>
      <trkpt lat="48.06243" lon="-4.70621">
        <ele>54</ele>
        <time>2011-04-18T08:01:55Z</time>
      </trkpt>
      <trkpt lat="48.06241" lon="-4.70614">
        <ele>54</ele>
        <time>2011-04-18T08:01:59Z</time>
      </trkpt>
      <trkpt lat="48.0623" lon="-4.7059">
        <ele>53</ele>
        <time>2011-04-18T08:02:15Z</time>
      </trkpt>
      <trkpt lat="48.06225" lon="-4.70562">
        <ele>50</ele>
        <time>2011-04-18T08:02:29Z</time>
      </trkpt>
      <trkpt lat="48.06229" lon="-4.70555">
        <ele>49</ele>
        <time>2011-04-18T08:02:33Z</time>
      </trkpt>
      <trkpt lat="48.06231" lon="-4.70551">
        <ele>49</ele>
        <time>2011-04-18T08:02:35Z</time>
      </trkpt>
      <trkpt lat="48.06229" lon="-4.70546">
        <ele>49</ele>
        <time>2011-04-18T08:02:39Z</time>
      </trkpt>
      <trkpt lat="48.06228" lon="-4.70541">
        <ele>49</ele>
        <time>2011-04-18T08:02:55Z</time>
      </trkpt>
      <trkpt lat="48.06227" lon="-4.70542">
        <ele>49</ele>
        <time>2011-04-18T08:02:57Z</time>
      </trkpt>
      <trkpt lat="48.06209" lon="-4.70521">
        <ele>50</ele>
        <time>2011-04-18T08:03:15Z</time>
      </trkpt>
      <trkpt lat="48.06203" lon="-4.7048">
        <ele>47</ele>
        <time>2011-04-18T08:03:36Z</time>
      </trkpt>
      <trkpt lat="48.06198" lon="-4.70469">
        <ele>47</ele>
        <time>2011-04-18T08:03:43Z</time>
      </trkpt>
      <trkpt lat="48.06194" lon="-4.70465">
        <ele>48</ele>
        <time>2011-04-18T08:03:47Z</time>
      </trkpt>
      <trkpt lat="48.06188" lon="-4.70452">
        <ele>49</ele>
        <time>2011-04-18T08:03:55Z</time>
      </trkpt>
      <trkpt lat="48.06169" lon="-4.70413">
        <ele>57</ele>
        <time>2011-04-18T08:04:19Z</time>
      </trkpt>
      <trkpt lat="48.06156" lon="-4.70373">
        <ele>61</ele>
        <time>2011-04-18T08:04:42Z</time>
      </trkpt>
      <trkpt lat="48.06146" lon="-4.70334">
        <ele>59</ele>
        <time>2011-04-18T08:05:04Z</time>
      </trkpt>
      <trkpt lat="48.06133" lon="-4.70296">
        <ele>58</ele>
        <time>2011-04-18T08:05:27Z</time>
      </trkpt>
      <trkpt lat="48.06129" lon="-4.70266">
        <ele>57</ele>
        <time>2011-04-18T08:05:44Z</time>
      </trkpt>
      <trkpt lat="48.0613" lon="-4.70234">
        <ele>55</ele>
        <time>2011-04-18T08:06:01Z</time>
      </trkpt>
      <trkpt lat="48.06128" lon="-4.70228">
        <ele>55</ele>
        <time>2011-04-18T08:06:05Z</time>
      </trkpt>
      <trkpt lat="48.06126" lon="-4.70205">
        <ele>56</ele>
        <time>2011-04-18T08:06:17Z</time>
      </trkpt>
      <trkpt lat="48.0613" lon="-4.70198">
        <ele>55</ele>
        <time>2011-04-18T08:06:21Z</time>
      </trkpt>
      <trkpt lat="48.06135" lon="-4.70187">
        <ele>54</ele>
        <time>2011-04-18T08:06:28Z</time>
      </trkpt>
      <trkpt lat="48.06144" lon="-4.70167">
        <ele>50</ele>
        <time>2011-04-18T08:06:42Z</time>
      </trkpt>
      <trkpt lat="48.06138" lon="-4.70145">
        <ele>53</ele>
        <time>2011-04-18T08:06:57Z</time>
      </trkpt>
      <trkpt lat="48.06139" lon="-4.70119">
        <ele>54</ele>
        <time>2011-04-18T08:07:13Z</time>
      </trkpt>
      <trkpt lat="48.06154" lon="-4.70079">
        <ele>52</ele>
        <time>2011-04-18T08:07:35Z</time>
      </trkpt>
      <trkpt lat="48.06164" lon="-4.70044">
        <ele>54</ele>
        <time>2011-04-18T08:07:54Z</time>
      </trkpt>
      <trkpt lat="48.06174" lon="-4.70012">
        <ele>40</ele>
        <time>2011-04-18T08:08:12Z</time>
      </trkpt>
      <trkpt lat="48.06166" lon="-4.69979">
        <ele>51</ele>
        <time>2011-04-18T08:08:31Z</time>
      </trkpt>
      <trkpt lat="48.06159" lon="-4.69947">
        <ele>50</ele>
        <time>2011-04-18T08:08:48Z</time>
      </trkpt>
      <trkpt lat="48.06169" lon="-4.69922">
        <ele>40</ele>
        <time>2011-04-18T08:09:03Z</time>
      </trkpt>
      <trkpt lat="48.06175" lon="-4.69907">
        <ele>36</ele>
        <time>2011-04-18T08:09:16Z</time>
      </trkpt>
      <trkpt lat="48.06169" lon="-4.69879">
        <ele>30</ele>
        <time>2011-04-18T08:09:31Z</time>
      </trkpt>
      <trkpt lat="48.06152" lon="-4.69864">
        <ele>41</ele>
        <time>2011-04-18T08:09:49Z</time>
      </trkpt>
      <trkpt lat="48.06152" lon="-4.69865">
        <ele>41</ele>
        <time>2011-04-18T08:10:08Z</time>
      </trkpt>
      <trkpt lat="48.06141" lon="-4.69869">
        <ele>42</ele>
        <time>2011-04-18T08:10:26Z</time>
      </trkpt>
      <trkpt lat="48.06132" lon="-4.69874">
        <ele>44</ele>
        <time>2011-04-18T08:10:35Z</time>
      </trkpt>
      <trkpt lat="48.06128" lon="-4.69871">
        <ele>44</ele>
        <time>2011-04-18T08:10:40Z</time>
      </trkpt>
      <trkpt lat="48.06113" lon="-4.69855">
        <ele>45</ele>
        <time>2011-04-18T08:10:54Z</time>
      </trkpt>
      <trkpt lat="48.0611" lon="-4.69823">
        <ele>38</ele>
        <time>2011-04-18T08:11:12Z</time>
      </trkpt>
      <trkpt lat="48.06103" lon="-4.69811">
        <ele>38</ele>
        <time>2011-04-18T08:11:23Z</time>
      </trkpt>
      <trkpt lat="48.06088" lon="-4.69791">
        <ele>37</ele>
        <time>2011-04-18T08:11:41Z</time>
      </trkpt>
      <trkpt lat="48.06088" lon="-4.69789">
        <ele>37</ele>
        <time>2011-04-18T08:12:08Z</time>
      </trkpt>
      <trkpt lat="48.0608" lon="-4.69765">
        <ele>48</ele>
        <time>2011-04-18T08:12:27Z</time>
      </trkpt>
      <trkpt lat="48.06081" lon="-4.69763">
        <ele>47</ele>
        <time>2011-04-18T08:12:58Z</time>
      </trkpt>
      <trkpt lat="48.06081" lon="-4.69762">
        <ele>46</ele>
        <time>2011-04-18T08:13:08Z</time>
      </trkpt>
      <trkpt lat="48.06088" lon="-4.69724">
        <ele>27</ele>
        <time>2011-04-18T08:13:29Z</time>
      </trkpt>
      <trkpt lat="48.0609" lon="-4.69686">
        <ele>23</ele>
        <time>2011-04-18T08:13:50Z</time>
      </trkpt>
      <trkpt lat="48.0608" lon="-4.69648">
        <ele>31</ele>
        <time>2011-04-18T08:14:11Z</time>
      </trkpt>
      <trkpt lat="48.06076" lon="-4.69651">
        <ele>31</ele>
        <time>2011-04-18T08:14:18Z</time>
      </trkpt>
      <trkpt lat="48.06069" lon="-4.69672">
        <ele>36</ele>
        <time>2011-04-18T08:14:37Z</time>
      </trkpt>
      <trkpt lat="48.06062" lon="-4.69665">
        <ele>34</ele>
        <time>2011-04-18T08:14:49Z</time>
      </trkpt>
      <trkpt lat="48.06055" lon="-4.69695">
        <ele>44</ele>
        <time>2011-04-18T08:15:10Z</time>
      </trkpt>
      <trkpt lat="48.06049" lon="-4.69701">
        <ele>46</ele>
        <time>2011-04-18T08:15:21Z</time>
      </trkpt>
      <trkpt lat="48.06037" lon="-4.69708">
        <ele>49</ele>
        <time>2011-04-18T08:15:37Z</time>
      </trkpt>
      <trkpt lat="48.06036" lon="-4.69705">
        <ele>49</ele>
        <time>2011-04-18T08:15:40Z</time>
      </trkpt>
      <trkpt lat="48.06024" lon="-4.6968">
        <ele>52</ele>
        <time>2011-04-18T08:16:01Z</time>
      </trkpt>
      <trkpt lat="48.06019" lon="-4.69664">
        <ele>50</ele>
        <time>2011-04-18T08:16:11Z</time>
      </trkpt>
      <trkpt lat="48.06018" lon="-4.69624">
        <ele>44</ele>
        <time>2011-04-18T08:16:33Z</time>
      </trkpt>
      <trkpt lat="48.06009" lon="-4.69586">
        <ele>52</ele>
        <time>2011-04-18T08:16:53Z</time>
      </trkpt>
      <trkpt lat="48.05995" lon="-4.69559">
        <ele>59</ele>
        <time>2011-04-18T08:17:15Z</time>
      </trkpt>
      <trkpt lat="48.05995" lon="-4.69551">
        <ele>59</ele>
        <time>2011-04-18T08:17:20Z</time>
      </trkpt>
      <trkpt lat="48.05987" lon="-4.69521">
        <ele>56</ele>
        <time>2011-04-18T08:17:38Z</time>
      </trkpt>
      <trkpt lat="48.05987" lon="-4.69518">
        <ele>56</ele>
        <time>2011-04-18T08:17:40Z</time>
      </trkpt>
      <trkpt lat="48.05992" lon="-4.69488">
        <ele>50</ele>
        <time>2011-04-18T08:17:55Z</time>
      </trkpt>
      <trkpt lat="48.05992" lon="-4.69481">
        <ele>50</ele>
        <time>2011-04-18T08:17:59Z</time>
      </trkpt>
      <trkpt lat="48.05991" lon="-4.69462">
        <ele>49</ele>
        <time>2011-04-18T08:18:13Z</time>
      </trkpt>
      <trkpt lat="48.05984" lon="-4.69454">
        <ele>49</ele>
        <time>2011-04-18T08:18:20Z</time>
      </trkpt>
      <trkpt lat="48.05982" lon="-4.6945">
        <ele>48</ele>
        <time>2011-04-18T08:18:23Z</time>
      </trkpt>
      <trkpt lat="48.05976" lon="-4.69448">
        <ele>49</ele>
        <time>2011-04-18T08:18:27Z</time>
      </trkpt>
      <trkpt lat="48.05973" lon="-4.69447">
        <ele>49</ele>
        <time>2011-04-18T08:18:29Z</time>
      </trkpt>
      <trkpt lat="48.05968" lon="-4.69441">
        <ele>50</ele>
        <time>2011-04-18T08:18:34Z</time>
      </trkpt>
      <trkpt lat="48.05959" lon="-4.69428">
        <ele>51</ele>
        <time>2011-04-18T08:18:44Z</time>
      </trkpt>
      <trkpt lat="48.05957" lon="-4.69415">
        <ele>47</ele>
        <time>2011-04-18T08:19:02Z</time>
      </trkpt>
      <trkpt lat="48.05947" lon="-4.69396">
        <ele>50</ele>
        <time>2011-04-18T08:19:17Z</time>
      </trkpt>
      <trkpt lat="48.05936" lon="-4.69377">
        <ele>51</ele>
        <time>2011-04-18T08:19:31Z</time>
      </trkpt>
      <trkpt lat="48.05933" lon="-4.69374">
        <ele>51</ele>
        <time>2011-04-18T08:19:33Z</time>
      </trkpt>
      <trkpt lat="48.05921" lon="-4.6935">
        <ele>55</ele>
        <time>2011-04-18T08:19:48Z</time>
      </trkpt>
      <trkpt lat="48.05904" lon="-4.69337">
        <ele>64</ele>
        <time>2011-04-18T08:20:04Z</time>
      </trkpt>
      <trkpt lat="48.05898" lon="-4.69336">
        <ele>64</ele>
        <time>2011-04-18T08:20:10Z</time>
      </trkpt>
      <trkpt lat="48.05898" lon="-4.6933">
        <ele>64</ele>
        <time>2011-04-18T08:20:14Z</time>
      </trkpt>
      <trkpt lat="48.05899" lon="-4.69319">
        <ele>64</ele>
        <time>2011-04-18T08:20:20Z</time>
      </trkpt>
      <trkpt lat="48.05906" lon="-4.69302">
        <ele>65</ele>
        <time>2011-04-18T08:20:29Z</time>
      </trkpt>
      <trkpt lat="48.05912" lon="-4.69272">
        <ele>65</ele>
        <time>2011-04-18T08:20:46Z</time>
      </trkpt>
      <trkpt lat="48.05924" lon="-4.69245">
        <ele>62</ele>
        <time>2011-04-18T08:21:03Z</time>
      </trkpt>
      <trkpt lat="48.05928" lon="-4.69241">
        <ele>61</ele>
        <time>2011-04-18T08:21:07Z</time>
      </trkpt>
      <trkpt lat="48.05933" lon="-4.69242">
        <ele>61</ele>
        <time>2011-04-18T08:21:11Z</time>
      </trkpt>
      <trkpt lat="48.0594" lon="-4.69247">
        <ele>60</ele>
        <time>2011-04-18T08:21:17Z</time>
      </trkpt>
      <trkpt lat="48.0596" lon="-4.6925">
        <ele>58</ele>
        <time>2011-04-18T08:21:33Z</time>
      </trkpt>
      <trkpt lat="48.05972" lon="-4.69243">
        <ele>56</ele>
        <time>2011-04-18T08:21:43Z</time>
      </trkpt>
      <trkpt lat="48.05996" lon="-4.69256">
        <ele>49</ele>
        <time>2011-04-18T08:22:03Z</time>
      </trkpt>
      <trkpt lat="48.06019" lon="-4.69241">
        <ele>44</ele>
        <time>2011-04-18T08:22:21Z</time>
      </trkpt>
      <trkpt lat="48.06033" lon="-4.69233">
        <ele>42</ele>
        <time>2011-04-18T08:22:30Z</time>
      </trkpt>
      <trkpt lat="48.06039" lon="-4.6923">
        <ele>41</ele>
        <time>2011-04-18T08:22:34Z</time>
      </trkpt>
      <trkpt lat="48.06042" lon="-4.69223">
        <ele>41</ele>
        <time>2011-04-18T08:22:38Z</time>
      </trkpt>
      <trkpt lat="48.06046" lon="-4.69221">
        <ele>40</ele>
        <time>2011-04-18T08:22:42Z</time>
      </trkpt>
      <trkpt lat="48.06058" lon="-4.69219">
        <ele>39</ele>
        <time>2011-04-18T08:22:57Z</time>
      </trkpt>
      <trkpt lat="48.0606" lon="-4.69219">
        <ele>38</ele>
        <time>2011-04-18T08:23:02Z</time>
      </trkpt>
      <trkpt lat="48.06065" lon="-4.69216">
        <ele>38</ele>
        <time>2011-04-18T08:23:05Z</time>
      </trkpt>
      <trkpt lat="48.06091" lon="-4.69208">
        <ele>26</ele>
        <time>2011-04-18T08:23:22Z</time>
      </trkpt>
      <trkpt lat="48.06111" lon="-4.69205">
        <ele>24</ele>
        <time>2011-04-18T08:23:38Z</time>
      </trkpt>
      <trkpt lat="48.06117" lon="-4.69202">
        <ele>23</ele>
        <time>2011-04-18T08:23:44Z</time>
      </trkpt>
      <trkpt lat="48.0612" lon="-4.69192">
        <ele>23</ele>
        <time>2011-04-18T08:24:00Z</time>
      </trkpt>
      <trkpt lat="48.0612" lon="-4.69192">
        <ele>23</ele>
        <time>2011-04-18T08:24:09Z</time>
      </trkpt>
      <trkpt lat="48.06116" lon="-4.6919">
        <ele>24</ele>
        <time>2011-04-18T08:24:12Z</time>
      </trkpt>
      <trkpt lat="48.06105" lon="-4.69175">
        <ele>28</ele>
        <time>2011-04-18T08:24:30Z</time>
      </trkpt>
      <trkpt lat="48.06105" lon="-4.69175">
        <ele>28</ele>
        <time>2011-04-18T08:24:35Z</time>
      </trkpt>
      <trkpt lat="48.06101" lon="-4.69174">
        <ele>30</ele>
        <time>2011-04-18T08:24:49Z</time>
      </trkpt>
      <trkpt lat="48.0608" lon="-4.69152">
        <ele>44</ele>
        <time>2011-04-18T08:25:07Z</time>
      </trkpt>
      <trkpt lat="48.0608" lon="-4.69142">
        <ele>46</ele>
        <time>2011-04-18T08:25:13Z</time>
      </trkpt>
      <trkpt lat="48.06093" lon="-4.69119">
        <ele>31</ele>
        <time>2011-04-18T08:25:32Z</time>
      </trkpt>
      <trkpt lat="48.06094" lon="-4.69114">
        <ele>31</ele>
        <time>2011-04-18T08:25:35Z</time>
      </trkpt>
      <trkpt lat="48.06091" lon="-4.69084">
        <ele>40</ele>
        <time>2011-04-18T08:25:54Z</time>
      </trkpt>
      <trkpt lat="48.06099" lon="-4.69045">
        <ele>36</ele>
        <time>2011-04-18T08:26:16Z</time>
      </trkpt>
      <trkpt lat="48.06087" lon="-4.69013">
        <ele>43</ele>
        <time>2011-04-18T08:26:37Z</time>
      </trkpt>
      <trkpt lat="48.0608" lon="-4.68977">
        <ele>56</ele>
        <time>2011-04-18T08:26:56Z</time>
      </trkpt>
      <trkpt lat="48.06086" lon="-4.68942">
        <ele>48</ele>
        <time>2011-04-18T08:27:16Z</time>
      </trkpt>
      <trkpt lat="48.06106" lon="-4.68928">
        <ele>47</ele>
        <time>2011-04-18T08:27:32Z</time>
      </trkpt>
      <trkpt lat="48.06119" lon="-4.6892">
        <ele>45</ele>
        <time>2011-04-18T08:27:44Z</time>
      </trkpt>
      <trkpt lat="48.06116" lon="-4.68912">
        <ele>51</ele>
        <time>2011-04-18T08:27:51Z</time>
      </trkpt>
      <trkpt lat="48.06113" lon="-4.68909">
        <ele>52</ele>
        <time>2011-04-18T08:27:53Z</time>
      </trkpt>
      <trkpt lat="48.06116" lon="-4.68902">
        <ele>51</ele>
        <time>2011-04-18T08:27:59Z</time>
      </trkpt>
      <trkpt lat="48.06132" lon="-4.68879">
        <ele>50</ele>
        <time>2011-04-18T08:28:19Z</time>
      </trkpt>
      <trkpt lat="48.06135" lon="-4.68877">
        <ele>50</ele>
        <time>2011-04-18T08:28:34Z</time>
      </trkpt>
      <trkpt lat="48.06135" lon="-4.68875">
        <ele>50</ele>
        <time>2011-04-18T08:28:53Z</time>
      </trkpt>
      <trkpt lat="48.06135" lon="-4.68875">
        <ele>50</ele>
        <time>2011-04-18T08:32:53Z</time>
      </trkpt>
      <trkpt lat="48.06136" lon="-4.68881">
        <ele>49</ele>
        <time>2011-04-18T08:34:11Z</time>
      </trkpt>
      <trkpt lat="48.06135" lon="-4.68877">
        <ele>50</ele>
        <time>2011-04-18T08:34:44Z</time>
      </trkpt>
      <trkpt lat="48.06145" lon="-4.68862">
        <ele>49</ele>
        <time>2011-04-18T08:35:04Z</time>
      </trkpt>
      <trkpt lat="48.0615" lon="-4.6885">
        <ele>49</ele>
        <time>2011-04-18T08:35:13Z</time>
      </trkpt>
      <trkpt lat="48.06148" lon="-4.6884">
        <ele>48</ele>
        <time>2011-04-18T08:35:19Z</time>
      </trkpt>
      <trkpt lat="48.06139" lon="-4.68802">
        <ele>46</ele>
        <time>2011-04-18T08:35:41Z</time>
      </trkpt>
      <trkpt lat="48.0612" lon="-4.68772">
        <ele>47</ele>
        <time>2011-04-18T08:36:03Z</time>
      </trkpt>
      <trkpt lat="48.06115" lon="-4.68765">
        <ele>49</ele>
        <time>2011-04-18T08:36:16Z</time>
      </trkpt>
      <trkpt lat="48.06114" lon="-4.68761">
        <ele>49</ele>
        <time>2011-04-18T08:36:34Z</time>
      </trkpt>
      <trkpt lat="48.06117" lon="-4.68751">
        <ele>48</ele>
        <time>2011-04-18T08:36:46Z</time>
      </trkpt>
      <trkpt lat="48.06114" lon="-4.68746">
        <ele>42</ele>
        <time>2011-04-18T08:36:50Z</time>
      </trkpt>
      <trkpt lat="48.06093" lon="-4.68719">
        <ele>44</ele>
        <time>2011-04-18T08:37:11Z</time>
      </trkpt>
      <trkpt lat="48.06092" lon="-4.68685">
        <ele>44</ele>
        <time>2011-04-18T08:37:29Z</time>
      </trkpt>
      <trkpt lat="48.06086" lon="-4.68639">
        <ele>35</ele>
        <time>2011-04-18T08:37:54Z</time>
      </trkpt>
      <trkpt lat="48.06083" lon="-4.68636">
        <ele>35</ele>
        <time>2011-04-18T08:38:08Z</time>
      </trkpt>
      <trkpt lat="48.06082" lon="-4.68634">
        <ele>51</ele>
        <time>2011-04-18T08:38:09Z</time>
      </trkpt>
      <trkpt lat="48.06082" lon="-4.6863">
        <ele>51</ele>
        <time>2011-04-18T08:38:11Z</time>
      </trkpt>
      <trkpt lat="48.06057" lon="-4.68614">
        <ele>51</ele>
        <time>2011-04-18T08:38:30Z</time>
      </trkpt>
      <trkpt lat="48.06033" lon="-4.6859">
        <ele>54</ele>
        <time>2011-04-18T08:38:53Z</time>
      </trkpt>
      <trkpt lat="48.06014" lon="-4.68559">
        <ele>51</ele>
        <time>2011-04-18T08:39:14Z</time>
      </trkpt>
      <trkpt lat="48.06009" lon="-4.68556">
        <ele>52</ele>
        <time>2011-04-18T08:39:18Z</time>
      </trkpt>
      <trkpt lat="48.06008" lon="-4.68549">
        <ele>51</ele>
        <time>2011-04-18T08:39:23Z</time>
      </trkpt>
      <trkpt lat="48.06008" lon="-4.68545">
        <ele>51</ele>
        <time>2011-04-18T08:39:26Z</time>
      </trkpt>
      <trkpt lat="48.06007" lon="-4.68537">
        <ele>51</ele>
        <time>2011-04-18T08:39:31Z</time>
      </trkpt>
      <trkpt lat="48.06004" lon="-4.68533">
        <ele>51</ele>
        <time>2011-04-18T08:39:35Z</time>
      </trkpt>
      <trkpt lat="48.06" lon="-4.6852">
        <ele>52</ele>
        <time>2011-04-18T08:39:46Z</time>
      </trkpt>
      <trkpt lat="48.05992" lon="-4.68504">
        <ele>59</ele>
        <time>2011-04-18T08:40:04Z</time>
      </trkpt>
      <trkpt lat="48.05995" lon="-4.68495">
        <ele>59</ele>
        <time>2011-04-18T08:40:11Z</time>
      </trkpt>
      <trkpt lat="48.06004" lon="-4.68493">
        <ele>55</ele>
        <time>2011-04-18T08:40:20Z</time>
      </trkpt>
      <trkpt lat="48.06013" lon="-4.68495">
        <ele>53</ele>
        <time>2011-04-18T08:40:29Z</time>
      </trkpt>
      <trkpt lat="48.06031" lon="-4.68479">
        <ele>49</ele>
        <time>2011-04-18T08:40:49Z</time>
      </trkpt>
      <trkpt lat="48.06063" lon="-4.68461">
        <ele>46</ele>
        <time>2011-04-18T08:41:14Z</time>
      </trkpt>
      <trkpt lat="48.06071" lon="-4.68432">
        <ele>46</ele>
        <time>2011-04-18T08:41:32Z</time>
      </trkpt>
      <trkpt lat="48.06073" lon="-4.68388">
        <ele>51</ele>
        <time>2011-04-18T08:41:54Z</time>
      </trkpt>
      <trkpt lat="48.06073" lon="-4.68366">
        <ele>52</ele>
        <time>2011-04-18T08:42:06Z</time>
      </trkpt>
      <trkpt lat="48.06083" lon="-4.68334">
        <ele>50</ele>
        <time>2011-04-18T08:42:24Z</time>
      </trkpt>
      <trkpt lat="48.06089" lon="-4.68328">
        <ele>47</ele>
        <time>2011-04-18T08:42:30Z</time>
      </trkpt>
      <trkpt lat="48.061" lon="-4.68317">
        <ele>43</ele>
        <time>2011-04-18T08:42:42Z</time>
      </trkpt>
      <trkpt lat="48.06103" lon="-4.68318">
        <ele>43</ele>
        <time>2011-04-18T08:42:45Z</time>
      </trkpt>
      <trkpt lat="48.06125" lon="-4.68296">
        <ele>39</ele>
        <time>2011-04-18T08:43:05Z</time>
      </trkpt>
      <trkpt lat="48.06129" lon="-4.68264">
        <ele>41</ele>
        <time>2011-04-18T08:43:25Z</time>
      </trkpt>
      <trkpt lat="48.06139" lon="-4.68241">
        <ele>46</ele>
        <time>2011-04-18T08:43:42Z</time>
      </trkpt>
      <trkpt lat="48.06142" lon="-4.68237">
        <ele>46</ele>
        <time>2011-04-18T08:43:45Z</time>
      </trkpt>
      <trkpt lat="48.06146" lon="-4.68235">
        <ele>45</ele>
        <time>2011-04-18T08:43:49Z</time>
      </trkpt>
      <trkpt lat="48.06153" lon="-4.68232">
        <ele>44</ele>
        <time>2011-04-18T08:43:55Z</time>
      </trkpt>
      <trkpt lat="48.0617" lon="-4.68202">
        <ele>36</ele>
        <time>2011-04-18T08:44:17Z</time>
      </trkpt>
      <trkpt lat="48.06172" lon="-4.68172">
        <ele>41</ele>
        <time>2011-04-18T08:44:36Z</time>
      </trkpt>
      <trkpt lat="48.06172" lon="-4.68169">
        <ele>42</ele>
        <time>2011-04-18T08:44:38Z</time>
      </trkpt>
      <trkpt lat="48.06183" lon="-4.68135">
        <ele>36</ele>
        <time>2011-04-18T08:45:00Z</time>
      </trkpt>
      <trkpt lat="48.06186" lon="-4.68117">
        <ele>36</ele>
        <time>2011-04-18T08:45:14Z</time>
      </trkpt>
      <trkpt lat="48.06174" lon="-4.68105">
        <ele>38</ele>
        <time>2011-04-18T08:45:30Z</time>
      </trkpt>
      <trkpt lat="48.06171" lon="-4.68104">
        <ele>38</ele>
        <time>2011-04-18T08:45:34Z</time>
      </trkpt>
      <trkpt lat="48.06159" lon="-4.68106">
        <ele>48</ele>
        <time>2011-04-18T08:45:51Z</time>
      </trkpt>
      <trkpt lat="48.0615" lon="-4.68113">
        <ele>49</ele>
        <time>2011-04-18T08:46:02Z</time>
      </trkpt>
      <trkpt lat="48.06145" lon="-4.68116">
        <ele>50</ele>
        <time>2011-04-18T08:46:08Z</time>
      </trkpt>
      <trkpt lat="48.06137" lon="-4.68091">
        <ele>50</ele>
        <time>2011-04-18T08:46:25Z</time>
      </trkpt>
      <trkpt lat="48.06136" lon="-4.68086">
        <ele>50</ele>
        <time>2011-04-18T08:46:28Z</time>
      </trkpt>
      <trkpt lat="48.0613" lon="-4.68057">
        <ele>46</ele>
        <time>2011-04-18T08:46:46Z</time>
      </trkpt>
      <trkpt lat="48.06117" lon="-4.68035">
        <ele>46</ele>
        <time>2011-04-18T08:47:03Z</time>
      </trkpt>
      <trkpt lat="48.06099" lon="-4.68009">
        <ele>49</ele>
        <time>2011-04-18T08:47:23Z</time>
      </trkpt>
      <trkpt lat="48.06095" lon="-4.68003">
        <ele>51</ele>
        <time>2011-04-18T08:47:27Z</time>
      </trkpt>
      <trkpt lat="48.06093" lon="-4.68002">
        <ele>52</ele>
        <time>2011-04-18T08:47:30Z</time>
      </trkpt>
      <trkpt lat="48.06089" lon="-4.67997">
        <ele>52</ele>
        <time>2011-04-18T08:47:34Z</time>
      </trkpt>
      <trkpt lat="48.06087" lon="-4.67986">
        <ele>48</ele>
        <time>2011-04-18T08:47:41Z</time>
      </trkpt>
      <trkpt lat="48.06078" lon="-4.67957">
        <ele>51</ele>
        <time>2011-04-18T08:47:58Z</time>
      </trkpt>
      <trkpt lat="48.06078" lon="-4.67949">
        <ele>50</ele>
        <time>2011-04-18T08:48:03Z</time>
      </trkpt>
      <trkpt lat="48.0606" lon="-4.67933">
        <ele>49</ele>
        <time>2011-04-18T08:48:20Z</time>
      </trkpt>
      <trkpt lat="48.06052" lon="-4.67933">
        <ele>51</ele>
        <time>2011-04-18T08:48:29Z</time>
      </trkpt>
      <trkpt lat="48.06039" lon="-4.6792">
        <ele>52</ele>
        <time>2011-04-18T08:48:43Z</time>
      </trkpt>
      <trkpt lat="48.06038" lon="-4.67911">
        <ele>49</ele>
        <time>2011-04-18T08:48:48Z</time>
      </trkpt>
      <trkpt lat="48.06047" lon="-4.67868">
        <ele>46</ele>
        <time>2011-04-18T08:49:11Z</time>
      </trkpt>
      <trkpt lat="48.06061" lon="-4.67826">
        <ele>40</ele>
        <time>2011-04-18T08:49:35Z</time>
      </trkpt>
      <trkpt lat="48.06055" lon="-4.67787">
        <ele>43</ele>
        <time>2011-04-18T08:49:57Z</time>
      </trkpt>
      <trkpt lat="48.06059" lon="-4.6774">
        <ele>43</ele>
        <time>2011-04-18T08:50:22Z</time>
      </trkpt>
      <trkpt lat="48.06067" lon="-4.67703">
        <ele>44</ele>
        <time>2011-04-18T08:50:42Z</time>
      </trkpt>
      <trkpt lat="48.06074" lon="-4.67665">
        <ele>41</ele>
        <time>2011-04-18T08:51:03Z</time>
      </trkpt>
      <trkpt lat="48.06078" lon="-4.67644">
        <ele>45</ele>
        <time>2011-04-18T08:51:16Z</time>
      </trkpt>
      <trkpt lat="48.06088" lon="-4.67606">
        <ele>43</ele>
        <time>2011-04-18T08:51:37Z</time>
      </trkpt>
      <trkpt lat="48.06101" lon="-4.67561">
        <ele>46</ele>
        <time>2011-04-18T08:52:02Z</time>
      </trkpt>
      <trkpt lat="48.06108" lon="-4.67529">
        <ele>46</ele>
        <time>2011-04-18T08:52:20Z</time>
      </trkpt>
      <trkpt lat="48.06134" lon="-4.67518">
        <ele>46</ele>
        <time>2011-04-18T08:52:41Z</time>
      </trkpt>
      <trkpt lat="48.06146" lon="-4.67499">
        <ele>31</ele>
        <time>2011-04-18T08:52:58Z</time>
      </trkpt>
      <trkpt lat="48.06141" lon="-4.67485">
        <ele>30</ele>
        <time>2011-04-18T08:53:13Z</time>
      </trkpt>
      <trkpt lat="48.0613" lon="-4.67464">
        <ele>29</ele>
        <time>2011-04-18T08:53:41Z</time>
      </trkpt>
      <trkpt lat="48.06115" lon="-4.67436">
        <ele>29</ele>
        <time>2011-04-18T08:54:00Z</time>
      </trkpt>
      <trkpt lat="48.061" lon="-4.67411">
        <ele>24</ele>
        <time>2011-04-18T08:54:17Z</time>
      </trkpt>
      <trkpt lat="48.06086" lon="-4.67373">
        <ele>19</ele>
        <time>2011-04-18T08:54:39Z</time>
      </trkpt>
      <trkpt lat="48.0608" lon="-4.67358">
        <ele>28</ele>
        <time>2011-04-18T08:54:47Z</time>
      </trkpt>
      <trkpt lat="48.06077" lon="-4.67339">
        <ele>23</ele>
        <time>2011-04-18T08:55:04Z</time>
      </trkpt>
      <trkpt lat="48.06077" lon="-4.67339">
        <ele>23</ele>
        <time>2011-04-18T08:55:36Z</time>
      </trkpt>
      <trkpt lat="48.06075" lon="-4.67338">
        <ele>24</ele>
        <time>2011-04-18T08:55:38Z</time>
      </trkpt>
      <trkpt lat="48.06058" lon="-4.67336">
        <ele>29</ele>
        <time>2011-04-18T08:55:50Z</time>
      </trkpt>
      <trkpt lat="48.06057" lon="-4.6733">
        <ele>25</ele>
        <time>2011-04-18T08:55:54Z</time>
      </trkpt>
      <trkpt lat="48.06059" lon="-4.67326">
        <ele>25</ele>
        <time>2011-04-18T08:55:56Z</time>
      </trkpt>
      <trkpt lat="48.06055" lon="-4.67316">
        <ele>26</ele>
        <time>2011-04-18T08:56:08Z</time>
      </trkpt>
      <trkpt lat="48.06057" lon="-4.67313">
        <ele>26</ele>
        <time>2011-04-18T08:56:11Z</time>
      </trkpt>
      <trkpt lat="48.06062" lon="-4.67298">
        <ele>25</ele>
        <time>2011-04-18T08:56:21Z</time>
      </trkpt>
      <trkpt lat="48.0606" lon="-4.67291">
        <ele>25</ele>
        <time>2011-04-18T08:56:25Z</time>
      </trkpt>
      <trkpt lat="48.06053" lon="-4.67264">
        <ele>25</ele>
        <time>2011-04-18T08:56:41Z</time>
      </trkpt>
      <trkpt lat="48.06044" lon="-4.67246">
        <ele>24</ele>
        <time>2011-04-18T08:56:52Z</time>
      </trkpt>
      <trkpt lat="48.06042" lon="-4.67241">
        <ele>24</ele>
        <time>2011-04-18T08:56:55Z</time>
      </trkpt>
      <trkpt lat="48.06039" lon="-4.67239">
        <ele>25</ele>
        <time>2011-04-18T08:56:58Z</time>
      </trkpt>
      <trkpt lat="48.06037" lon="-4.67231">
        <ele>25</ele>
        <time>2011-04-18T08:57:03Z</time>
      </trkpt>
      <trkpt lat="48.06028" lon="-4.67195">
        <ele>24</ele>
        <time>2011-04-18T08:57:23Z</time>
      </trkpt>
      <trkpt lat="48.06016" lon="-4.67173">
        <ele>25</ele>
        <time>2011-04-18T08:57:37Z</time>
      </trkpt>
      <trkpt lat="48.06017" lon="-4.67162">
        <ele>25</ele>
        <time>2011-04-18T08:57:56Z</time>
      </trkpt>
      <trkpt lat="48.06016" lon="-4.67161">
        <ele>25</ele>
        <time>2011-04-18T08:57:57Z</time>
      </trkpt>
      <trkpt lat="48.06013" lon="-4.6715">
        <ele>25</ele>
        <time>2011-04-18T08:58:03Z</time>
      </trkpt>
      <trkpt lat="48.06013" lon="-4.67143">
        <ele>25</ele>
        <time>2011-04-18T08:58:08Z</time>
      </trkpt>
      <trkpt lat="48.06017" lon="-4.67131">
        <ele>25</ele>
        <time>2011-04-18T08:58:16Z</time>
      </trkpt>
      <trkpt lat="48.06023" lon="-4.67138">
        <ele>24</ele>
        <time>2011-04-18T08:58:30Z</time>
      </trkpt>
      <trkpt lat="48.06023" lon="-4.67137">
        <ele>24</ele>
        <time>2011-04-18T08:58:47Z</time>
      </trkpt>
      <trkpt lat="48.06024" lon="-4.67133">
        <ele>24</ele>
        <time>2011-04-18T08:59:42Z</time>
      </trkpt>
      <trkpt lat="48.06023" lon="-4.67129">
        <ele>24</ele>
        <time>2011-04-18T09:00:05Z</time>
      </trkpt>
      <trkpt lat="48.06025" lon="-4.67129">
        <ele>24</ele>
        <time>2011-04-18T09:00:29Z</time>
      </trkpt>
      <trkpt lat="48.06023" lon="-4.67127">
        <ele>24</ele>
        <time>2011-04-18T09:01:40Z</time>
      </trkpt>
      <trkpt lat="48.06023" lon="-4.67127">
        <ele>24</ele>
        <time>2011-04-18T09:03:25Z</time>
      </trkpt>
      <trkpt lat="48.06023" lon="-4.67126">
        <ele>25</ele>
        <time>2011-04-18T09:05:10Z</time>
      </trkpt>
      <trkpt lat="48.06023" lon="-4.67128">
        <ele>24</ele>
        <time>2011-04-18T09:08:23Z</time>
      </trkpt>
      <trkpt lat="48.06024" lon="-4.67127">
        <ele>24</ele>
        <time>2011-04-18T09:09:17Z</time>
      </trkpt>
      <trkpt lat="48.06024" lon="-4.67118">
        <ele>25</ele>
        <time>2011-04-18T09:09:33Z</time>
      </trkpt>
      <trkpt lat="48.06024" lon="-4.67112">
        <ele>25</ele>
        <time>2011-04-18T09:09:39Z</time>
      </trkpt>
      <trkpt lat="48.06027" lon="-4.67097">
        <ele>25</ele>
        <time>2011-04-18T09:09:49Z</time>
      </trkpt>
      <trkpt lat="48.06035" lon="-4.67087">
        <ele>25</ele>
        <time>2011-04-18T09:10:00Z</time>
      </trkpt>
      <trkpt lat="48.06051" lon="-4.67103">
        <ele>25</ele>
        <time>2011-04-18T09:10:22Z</time>
      </trkpt>
      <trkpt lat="48.06068" lon="-4.67112">
        <ele>25</ele>
        <time>2011-04-18T09:10:43Z</time>
      </trkpt>
      <trkpt lat="48.06085" lon="-4.67116">
        <ele>20</ele>
        <time>2011-04-18T09:11:03Z</time>
      </trkpt>
      <trkpt lat="48.06103" lon="-4.67132">
        <ele>18</ele>
        <time>2011-04-18T09:11:22Z</time>
      </trkpt>
      <trkpt lat="48.06135" lon="-4.6714">
        <ele>16</ele>
        <time>2011-04-18T09:11:47Z</time>
      </trkpt>
      <trkpt lat="48.06163" lon="-4.67126">
        <ele>16</ele>
        <time>2011-04-18T09:12:10Z</time>
      </trkpt>
      <trkpt lat="48.06181" lon="-4.67087">
        <ele>18</ele>
        <time>2011-04-18T09:12:35Z</time>
      </trkpt>
      <trkpt lat="48.06193" lon="-4.67051">
        <ele>26</ele>
        <time>2011-04-18T09:12:55Z</time>
      </trkpt>
      <trkpt lat="48.06199" lon="-4.67043">
        <ele>26</ele>
        <time>2011-04-18T09:13:03Z</time>
      </trkpt>
      <trkpt lat="48.06212" lon="-4.67031">
        <ele>27</ele>
        <time>2011-04-18T09:13:19Z</time>
      </trkpt>
      <trkpt lat="48.06214" lon="-4.67023">
        <ele>28</ele>
        <time>2011-04-18T09:13:24Z</time>
      </trkpt>
      <trkpt lat="48.06214" lon="-4.67001">
        <ele>29</ele>
        <time>2011-04-18T09:13:42Z</time>
      </trkpt>
      <trkpt lat="48.0622" lon="-4.67002">
        <ele>29</ele>
        <time>2011-04-18T09:13:59Z</time>
      </trkpt>
      <trkpt lat="48.0622" lon="-4.6701">
        <ele>28</ele>
        <time>2011-04-18T09:14:16Z</time>
      </trkpt>
      <trkpt lat="48.06223" lon="-4.67004">
        <ele>29</ele>
        <time>2011-04-18T09:14:27Z</time>
      </trkpt>
      <trkpt lat="48.06227" lon="-4.67014">
        <ele>28</ele>
        <time>2011-04-18T09:14:42Z</time>
      </trkpt>
      <trkpt lat="48.06232" lon="-4.67016">
        <ele>28</ele>
        <time>2011-04-18T09:14:47Z</time>
      </trkpt>
      <trkpt lat="48.06241" lon="-4.67038">
        <ele>26</ele>
        <time>2011-04-18T09:15:04Z</time>
      </trkpt>
      <trkpt lat="48.06246" lon="-4.67062">
        <ele>23</ele>
        <time>2011-04-18T09:15:21Z</time>
      </trkpt>
      <trkpt lat="48.06248" lon="-4.67067">
        <ele>22</ele>
        <time>2011-04-18T09:15:34Z</time>
      </trkpt>
      <trkpt lat="48.06249" lon="-4.67061">
        <ele>23</ele>
        <time>2011-04-18T09:15:39Z</time>
      </trkpt>
      <trkpt lat="48.06254" lon="-4.67043">
        <ele>30</ele>
        <time>2011-04-18T09:15:54Z</time>
      </trkpt>
      <trkpt lat="48.06256" lon="-4.67027">
        <ele>31</ele>
        <time>2011-04-18T09:16:08Z</time>
      </trkpt>
      <trkpt lat="48.0626" lon="-4.67035">
        <ele>31</ele>
        <time>2011-04-18T09:16:22Z</time>
      </trkpt>
      <trkpt lat="48.06261" lon="-4.67036">
        <ele>31</ele>
        <time>2011-04-18T09:16:23Z</time>
      </trkpt>
      <trkpt lat="48.06268" lon="-4.67067">
        <ele>28</ele>
        <time>2011-04-18T09:16:44Z</time>
      </trkpt>
      <trkpt lat="48.06275" lon="-4.6708">
        <ele>28</ele>
        <time>2011-04-18T09:16:55Z</time>
      </trkpt>
      <trkpt lat="48.06294" lon="-4.67085">
        <ele>23</ele>
        <time>2011-04-18T09:17:18Z</time>
      </trkpt>
      <trkpt lat="48.06307" lon="-4.6708">
        <ele>33</ele>
        <time>2011-04-18T09:17:36Z</time>
      </trkpt>
      <trkpt lat="48.0631" lon="-4.67081">
        <ele>34</ele>
        <time>2011-04-18T09:17:45Z</time>
      </trkpt>
      <trkpt lat="48.06316" lon="-4.67077">
        <ele>35</ele>
        <time>2011-04-18T09:17:52Z</time>
      </trkpt>
      <trkpt lat="48.0632" lon="-4.67077">
        <ele>35</ele>
        <time>2011-04-18T09:17:57Z</time>
      </trkpt>
      <trkpt lat="48.06338" lon="-4.67087">
        <ele>34</ele>
        <time>2011-04-18T09:18:18Z</time>
      </trkpt>
      <trkpt lat="48.06352" lon="-4.67109">
        <ele>27</ele>
        <time>2011-04-18T09:18:36Z</time>
      </trkpt>
      <trkpt lat="48.06374" lon="-4.67128">
        <ele>23</ele>
        <time>2011-04-18T09:18:59Z</time>
      </trkpt>
      <trkpt lat="48.06384" lon="-4.67116">
        <ele>25</ele>
        <time>2011-04-18T09:19:14Z</time>
      </trkpt>
      <trkpt lat="48.06385" lon="-4.67112">
        <ele>25</ele>
        <time>2011-04-18T09:19:18Z</time>
      </trkpt>
      <trkpt lat="48.06388" lon="-4.67097">
        <ele>27</ele>
        <time>2011-04-18T09:19:29Z</time>
      </trkpt>
      <trkpt lat="48.06398" lon="-4.67078">
        <ele>37</ele>
        <time>2011-04-18T09:19:46Z</time>
      </trkpt>
      <trkpt lat="48.06416" lon="-4.67062">
        <ele>38</ele>
        <time>2011-04-18T09:20:06Z</time>
      </trkpt>
      <trkpt lat="48.06437" lon="-4.67039">
        <ele>36</ele>
        <time>2011-04-18T09:20:29Z</time>
      </trkpt>
      <trkpt lat="48.06444" lon="-4.67031">
        <ele>36</ele>
        <time>2011-04-18T09:20:36Z</time>
      </trkpt>
      <trkpt lat="48.06446" lon="-4.67029">
        <ele>36</ele>
        <time>2011-04-18T09:20:40Z</time>
      </trkpt>
      <trkpt lat="48.06452" lon="-4.67027">
        <ele>36</ele>
        <time>2011-04-18T09:20:58Z</time>
      </trkpt>
      <trkpt lat="48.06464" lon="-4.67015">
        <ele>36</ele>
        <time>2011-04-18T09:21:12Z</time>
      </trkpt>
      <trkpt lat="48.06487" lon="-4.66993">
        <ele>46</ele>
        <time>2011-04-18T09:21:33Z</time>
      </trkpt>
      <trkpt lat="48.06509" lon="-4.66966">
        <ele>37</ele>
        <time>2011-04-18T09:21:56Z</time>
      </trkpt>
      <trkpt lat="48.06527" lon="-4.66947">
        <ele>37</ele>
        <time>2011-04-18T09:22:15Z</time>
      </trkpt>
      <trkpt lat="48.0653" lon="-4.66941">
        <ele>37</ele>
        <time>2011-04-18T09:22:20Z</time>
      </trkpt>
      <trkpt lat="48.06533" lon="-4.66935">
        <ele>37</ele>
        <time>2011-04-18T09:22:24Z</time>
      </trkpt>
      <trkpt lat="48.06535" lon="-4.66933">
        <ele>37</ele>
        <time>2011-04-18T09:22:27Z</time>
      </trkpt>
      <trkpt lat="48.06541" lon="-4.66927">
        <ele>36</ele>
        <time>2011-04-18T09:22:46Z</time>
      </trkpt>
      <trkpt lat="48.06544" lon="-4.6692">
        <ele>35</ele>
        <time>2011-04-18T09:22:53Z</time>
      </trkpt>
      <trkpt lat="48.06556" lon="-4.66879">
        <ele>47</ele>
        <time>2011-04-18T09:23:20Z</time>
      </trkpt>
      <trkpt lat="48.06558" lon="-4.66845">
        <ele>50</ele>
        <time>2011-04-18T09:23:41Z</time>
      </trkpt>
      <trkpt lat="48.06572" lon="-4.66814">
        <ele>56</ele>
        <time>2011-04-18T09:24:03Z</time>
      </trkpt>
      <trkpt lat="48.06587" lon="-4.66804">
        <ele>48</ele>
        <time>2011-04-18T09:24:17Z</time>
      </trkpt>
      <trkpt lat="48.06612" lon="-4.66801">
        <ele>46</ele>
        <time>2011-04-18T09:24:34Z</time>
      </trkpt>
      <trkpt lat="48.0663" lon="-4.66781">
        <ele>45</ele>
        <time>2011-04-18T09:24:53Z</time>
      </trkpt>
      <trkpt lat="48.06639" lon="-4.66751">
        <ele>47</ele>
        <time>2011-04-18T09:25:11Z</time>
      </trkpt>
      <trkpt lat="48.06639" lon="-4.66732">
        <ele>57</ele>
        <time>2011-04-18T09:25:25Z</time>
      </trkpt>
      <trkpt lat="48.06639" lon="-4.66732">
        <ele>57</ele>
        <time>2011-04-18T09:25:44Z</time>
      </trkpt>
      <trkpt lat="48.06661" lon="-4.66701">
        <ele>59</ele>
        <time>2011-04-18T09:26:08Z</time>
      </trkpt>
      <trkpt lat="48.06673" lon="-4.66677">
        <ele>59</ele>
        <time>2011-04-18T09:26:25Z</time>
      </trkpt>
      <trkpt lat="48.06675" lon="-4.66675">
        <ele>59</ele>
        <time>2011-04-18T09:26:28Z</time>
      </trkpt>
      <trkpt lat="48.06697" lon="-4.66689">
        <ele>56</ele>
        <time>2011-04-18T09:26:49Z</time>
      </trkpt>
      <trkpt lat="48.06724" lon="-4.66696">
        <ele>55</ele>
        <time>2011-04-18T09:27:13Z</time>
      </trkpt>
      <trkpt lat="48.06749" lon="-4.66709">
        <ele>53</ele>
        <time>2011-04-18T09:27:35Z</time>
      </trkpt>
      <trkpt lat="48.0675" lon="-4.66711">
        <ele>53</ele>
        <time>2011-04-18T09:27:37Z</time>
      </trkpt>
      <trkpt lat="48.06771" lon="-4.66734">
        <ele>50</ele>
        <time>2011-04-18T09:27:59Z</time>
      </trkpt>
      <trkpt lat="48.06778" lon="-4.66743">
        <ele>50</ele>
        <time>2011-04-18T09:28:08Z</time>
      </trkpt>
      <trkpt lat="48.06789" lon="-4.66735">
        <ele>52</ele>
        <time>2011-04-18T09:28:22Z</time>
      </trkpt>
      <trkpt lat="48.06808" lon="-4.6672">
        <ele>54</ele>
        <time>2011-04-18T09:28:43Z</time>
      </trkpt>
      <trkpt lat="48.06831" lon="-4.66712">
        <ele>56</ele>
        <time>2011-04-18T09:29:02Z</time>
      </trkpt>
      <trkpt lat="48.06849" lon="-4.66734">
        <ele>53</ele>
        <time>2011-04-18T09:29:21Z</time>
      </trkpt>
      <trkpt lat="48.06858" lon="-4.66745">
        <ele>52</ele>
        <time>2011-04-18T09:29:34Z</time>
      </trkpt>
      <trkpt lat="48.0686" lon="-4.66762">
        <ele>38</ele>
        <time>2011-04-18T09:29:54Z</time>
      </trkpt>
      <trkpt lat="48.0686" lon="-4.66764">
        <ele>38</ele>
        <time>2011-04-18T09:29:57Z</time>
      </trkpt>
      <trkpt lat="48.0687" lon="-4.66781">
        <ele>34</ele>
        <time>2011-04-18T09:30:14Z</time>
      </trkpt>
      <trkpt lat="48.06879" lon="-4.6678">
        <ele>33</ele>
        <time>2011-04-18T09:30:27Z</time>
      </trkpt>
      <trkpt lat="48.06882" lon="-4.66774">
        <ele>34</ele>
        <time>2011-04-18T09:30:32Z</time>
      </trkpt>
      <trkpt lat="48.06882" lon="-4.66767">
        <ele>35</ele>
        <time>2011-04-18T09:30:37Z</time>
      </trkpt>
      <trkpt lat="48.06881" lon="-4.6675">
        <ele>37</ele>
        <time>2011-04-18T09:30:53Z</time>
      </trkpt>
      <trkpt lat="48.06888" lon="-4.66747">
        <ele>50</ele>
        <time>2011-04-18T09:31:12Z</time>
      </trkpt>
      <trkpt lat="48.06891" lon="-4.66741">
        <ele>50</ele>
        <time>2011-04-18T09:31:38Z</time>
      </trkpt>
      <trkpt lat="48.0691" lon="-4.66722">
        <ele>51</ele>
        <time>2011-04-18T09:31:55Z</time>
      </trkpt>
      <trkpt lat="48.06919" lon="-4.66704">
        <ele>49</ele>
        <time>2011-04-18T09:32:10Z</time>
      </trkpt>
      <trkpt lat="48.06935" lon="-4.66693">
        <ele>50</ele>
        <time>2011-04-18T09:32:27Z</time>
      </trkpt>
      <trkpt lat="48.06944" lon="-4.66688">
        <ele>50</ele>
        <time>2011-04-18T09:32:37Z</time>
      </trkpt>
      <trkpt lat="48.06972" lon="-4.66686">
        <ele>49</ele>
        <time>2011-04-18T09:32:59Z</time>
      </trkpt>
      <trkpt lat="48.06985" lon="-4.66689">
        <ele>49</ele>
        <time>2011-04-18T09:33:15Z</time>
      </trkpt>
      <trkpt lat="48.06989" lon="-4.66686">
        <ele>50</ele>
        <time>2011-04-18T09:33:25Z</time>
      </trkpt>
      <trkpt lat="48.06992" lon="-4.66681">
        <ele>51</ele>
        <time>2011-04-18T09:33:29Z</time>
      </trkpt>
      <trkpt lat="48.06999" lon="-4.6668">
        <ele>52</ele>
        <time>2011-04-18T09:33:44Z</time>
      </trkpt>
      <trkpt lat="48.07019" lon="-4.66676">
        <ele>42</ele>
        <time>2011-04-18T09:34:09Z</time>
      </trkpt>
      <trkpt lat="48.0704" lon="-4.66673">
        <ele>35</ele>
        <time>2011-04-18T09:34:26Z</time>
      </trkpt>
      <trkpt lat="48.07046" lon="-4.6667">
        <ele>34</ele>
        <time>2011-04-18T09:34:32Z</time>
      </trkpt>
      <trkpt lat="48.07047" lon="-4.66654">
        <ele>45</ele>
        <time>2011-04-18T09:34:42Z</time>
      </trkpt>
      <trkpt lat="48.07043" lon="-4.66646">
        <ele>46</ele>
        <time>2011-04-18T09:34:48Z</time>
      </trkpt>
      <trkpt lat="48.07047" lon="-4.66616">
        <ele>48</ele>
        <time>2011-04-18T09:35:07Z</time>
      </trkpt>
      <trkpt lat="48.0705" lon="-4.66604">
        <ele>49</ele>
        <time>2011-04-18T09:35:15Z</time>
      </trkpt>
      <trkpt lat="48.07062" lon="-4.6658">
        <ele>53</ele>
        <time>2011-04-18T09:35:30Z</time>
      </trkpt>
      <trkpt lat="48.07068" lon="-4.66558">
        <ele>54</ele>
        <time>2011-04-18T09:35:46Z</time>
      </trkpt>
      <trkpt lat="48.07072" lon="-4.66548">
        <ele>55</ele>
        <time>2011-04-18T09:35:55Z</time>
      </trkpt>
      <trkpt lat="48.07088" lon="-4.66518">
        <ele>47</ele>
        <time>2011-04-18T09:36:16Z</time>
      </trkpt>
      <trkpt lat="48.07091" lon="-4.66511">
        <ele>49</ele>
        <time>2011-04-18T09:36:20Z</time>
      </trkpt>
      <trkpt lat="48.07109" lon="-4.66491">
        <ele>47</ele>
        <time>2011-04-18T09:36:41Z</time>
      </trkpt>
      <trkpt lat="48.0713" lon="-4.66482">
        <ele>42</ele>
        <time>2011-04-18T09:37:02Z</time>
      </trkpt>
      <trkpt lat="48.07132" lon="-4.66476">
        <ele>42</ele>
        <time>2011-04-18T09:37:10Z</time>
      </trkpt>
      <trkpt lat="48.07136" lon="-4.66471">
        <ele>41</ele>
        <time>2011-04-18T09:37:15Z</time>
      </trkpt>
      <trkpt lat="48.07152" lon="-4.66455">
        <ele>39</ele>
        <time>2011-04-18T09:37:31Z</time>
      </trkpt>
      <trkpt lat="48.07153" lon="-4.66425">
        <ele>37</ele>
        <time>2011-04-18T09:37:53Z</time>
      </trkpt>
      <trkpt lat="48.07153" lon="-4.66419">
        <ele>37</ele>
        <time>2011-04-18T09:38:09Z</time>
      </trkpt>
      <trkpt lat="48.07151" lon="-4.6642">
        <ele>37</ele>
        <time>2011-04-18T09:38:48Z</time>
      </trkpt>
      <trkpt lat="48.07144" lon="-4.66419">
        <ele>39</ele>
        <time>2011-04-18T09:39:27Z</time>
      </trkpt>
      <trkpt lat="48.07143" lon="-4.66421">
        <ele>39</ele>
        <time>2011-04-18T09:39:55Z</time>
      </trkpt>
      <trkpt lat="48.07114" lon="-4.66418">
        <ele>44</ele>
        <time>2011-04-18T09:40:18Z</time>
      </trkpt>
      <trkpt lat="48.07095" lon="-4.66414">
        <ele>44</ele>
        <time>2011-04-18T09:40:35Z</time>
      </trkpt>
      <trkpt lat="48.07086" lon="-4.66416">
        <ele>49</ele>
        <time>2011-04-18T09:40:59Z</time>
      </trkpt>
      <trkpt lat="48.07085" lon="-4.66417">
        <ele>50</ele>
        <time>2011-04-18T09:41:18Z</time>
      </trkpt>
      <trkpt lat="48.07073" lon="-4.66423">
        <ele>53</ele>
        <time>2011-04-18T09:41:48Z</time>
      </trkpt>
      <trkpt lat="48.07046" lon="-4.66433">
        <ele>54</ele>
        <time>2011-04-18T09:42:09Z</time>
      </trkpt>
      <trkpt lat="48.07013" lon="-4.66441">
        <ele>54</ele>
        <time>2011-04-18T09:42:37Z</time>
      </trkpt>
      <trkpt lat="48.06986" lon="-4.66446">
        <ele>57</ele>
        <time>2011-04-18T09:43:00Z</time>
      </trkpt>
      <trkpt lat="48.06955" lon="-4.66442">
        <ele>58</ele>
        <time>2011-04-18T09:43:24Z</time>
      </trkpt>
      <trkpt lat="48.06928" lon="-4.66433">
        <ele>59</ele>
        <time>2011-04-18T09:43:47Z</time>
      </trkpt>
      <trkpt lat="48.06909" lon="-4.66414">
        <ele>57</ele>
        <time>2011-04-18T09:44:08Z</time>
      </trkpt>
      <trkpt lat="48.06907" lon="-4.66394">
        <ele>54</ele>
        <time>2011-04-18T09:44:23Z</time>
      </trkpt>
      <trkpt lat="48.06904" lon="-4.66383">
        <ele>53</ele>
        <time>2011-04-18T09:44:31Z</time>
      </trkpt>
      <trkpt lat="48.06888" lon="-4.66373">
        <ele>52</ele>
        <time>2011-04-18T09:44:50Z</time>
      </trkpt>
      <trkpt lat="48.06883" lon="-4.66367">
        <ele>52</ele>
        <time>2011-04-18T09:45:07Z</time>
      </trkpt>
      <trkpt lat="48.06863" lon="-4.66354">
        <ele>52</ele>
        <time>2011-04-18T09:45:26Z</time>
      </trkpt>
      <trkpt lat="48.0686" lon="-4.66354">
        <ele>52</ele>
        <time>2011-04-18T09:45:29Z</time>
      </trkpt>
      <trkpt lat="48.06852" lon="-4.66352">
        <ele>52</ele>
        <time>2011-04-18T09:45:37Z</time>
      </trkpt>
      <trkpt lat="48.06831" lon="-4.66333">
        <ele>53</ele>
        <time>2011-04-18T09:45:57Z</time>
      </trkpt>
      <trkpt lat="48.06807" lon="-4.66317">
        <ele>55</ele>
        <time>2011-04-18T09:46:16Z</time>
      </trkpt>
      <trkpt lat="48.06785" lon="-4.66296">
        <ele>56</ele>
        <time>2011-04-18T09:46:38Z</time>
      </trkpt>
      <trkpt lat="48.06785" lon="-4.66266">
        <ele>56</ele>
        <time>2011-04-18T09:46:57Z</time>
      </trkpt>
      <trkpt lat="48.06791" lon="-4.6625">
        <ele>52</ele>
        <time>2011-04-18T09:47:06Z</time>
      </trkpt>
      <trkpt lat="48.06791" lon="-4.66231">
        <ele>52</ele>
        <time>2011-04-18T09:47:19Z</time>
      </trkpt>
      <trkpt lat="48.06792" lon="-4.66218">
        <ele>52</ele>
        <time>2011-04-18T09:47:26Z</time>
      </trkpt>
      <trkpt lat="48.06791" lon="-4.6621">
        <ele>52</ele>
        <time>2011-04-18T09:47:30Z</time>
      </trkpt>
      <trkpt lat="48.06796" lon="-4.66179">
        <ele>51</ele>
        <time>2011-04-18T09:47:46Z</time>
      </trkpt>
      <trkpt lat="48.06798" lon="-4.66149">
        <ele>51</ele>
        <time>2011-04-18T09:48:02Z</time>
      </trkpt>
      <trkpt lat="48.068" lon="-4.66114">
        <ele>52</ele>
        <time>2011-04-18T09:48:20Z</time>
      </trkpt>
      <trkpt lat="48.06804" lon="-4.6608">
        <ele>53</ele>
        <time>2011-04-18T09:48:37Z</time>
      </trkpt>
      <trkpt lat="48.06805" lon="-4.66067">
        <ele>53</ele>
        <time>2011-04-18T09:48:44Z</time>
      </trkpt>
      <trkpt lat="48.06815" lon="-4.66034">
        <ele>54</ele>
        <time>2011-04-18T09:49:03Z</time>
      </trkpt>
      <trkpt lat="48.06829" lon="-4.66018">
        <ele>54</ele>
        <time>2011-04-18T09:49:18Z</time>
      </trkpt>
      <trkpt lat="48.0684" lon="-4.66001">
        <ele>47</ele>
        <time>2011-04-18T09:49:33Z</time>
      </trkpt>
      <trkpt lat="48.06848" lon="-4.65992">
        <ele>43</ele>
        <time>2011-04-18T09:49:42Z</time>
      </trkpt>
      <trkpt lat="48.06852" lon="-4.65991">
        <ele>42</ele>
        <time>2011-04-18T09:49:46Z</time>
      </trkpt>
      <trkpt lat="48.06856" lon="-4.65988">
        <ele>40</ele>
        <time>2011-04-18T09:49:58Z</time>
      </trkpt>
      <trkpt lat="48.06849" lon="-4.65958">
        <ele>39</ele>
        <time>2011-04-18T09:50:20Z</time>
      </trkpt>
      <trkpt lat="48.06849" lon="-4.65952">
        <ele>39</ele>
        <time>2011-04-18T09:50:24Z</time>
      </trkpt>
      <trkpt lat="48.0685" lon="-4.65945">
        <ele>39</ele>
        <time>2011-04-18T09:50:28Z</time>
      </trkpt>
      <trkpt lat="48.06851" lon="-4.6594">
        <ele>40</ele>
        <time>2011-04-18T09:50:31Z</time>
      </trkpt>
      <trkpt lat="48.06848" lon="-4.65923">
        <ele>43</ele>
        <time>2011-04-18T09:50:47Z</time>
      </trkpt>
      <trkpt lat="48.06846" lon="-4.65923">
        <ele>44</ele>
        <time>2011-04-18T09:51:06Z</time>
      </trkpt>
      <trkpt lat="48.06843" lon="-4.65921">
        <ele>45</ele>
        <time>2011-04-18T09:51:09Z</time>
      </trkpt>
      <trkpt lat="48.06841" lon="-4.65918">
        <ele>47</ele>
        <time>2011-04-18T09:51:27Z</time>
      </trkpt>
      <trkpt lat="48.0683" lon="-4.65913">
        <ele>52</ele>
        <time>2011-04-18T09:51:44Z</time>
      </trkpt>
      <trkpt lat="48.06819" lon="-4.65904">
        <ele>52</ele>
        <time>2011-04-18T09:51:55Z</time>
      </trkpt>
      <trkpt lat="48.06818" lon="-4.65881">
        <ele>51</ele>
        <time>2011-04-18T09:52:11Z</time>
      </trkpt>
      <trkpt lat="48.06819" lon="-4.65877">
        <ele>51</ele>
        <time>2011-04-18T09:52:13Z</time>
      </trkpt>
      <trkpt lat="48.06819" lon="-4.6587">
        <ele>50</ele>
        <time>2011-04-18T09:52:17Z</time>
      </trkpt>
      <trkpt lat="48.06818" lon="-4.6585">
        <ele>46</ele>
        <time>2011-04-18T09:52:28Z</time>
      </trkpt>
      <trkpt lat="48.06814" lon="-4.65847">
        <ele>47</ele>
        <time>2011-04-18T09:52:32Z</time>
      </trkpt>
      <trkpt lat="48.06792" lon="-4.65824">
        <ele>45</ele>
        <time>2011-04-18T09:52:54Z</time>
      </trkpt>
      <trkpt lat="48.06783" lon="-4.65792">
        <ele>45</ele>
        <time>2011-04-18T09:53:13Z</time>
      </trkpt>
      <trkpt lat="48.06778" lon="-4.65753">
        <ele>46</ele>
        <time>2011-04-18T09:53:33Z</time>
      </trkpt>
      <trkpt lat="48.06768" lon="-4.65721">
        <ele>41</ele>
        <time>2011-04-18T09:53:54Z</time>
      </trkpt>
      <trkpt lat="48.06762" lon="-4.65679">
        <ele>43</ele>
        <time>2011-04-18T09:54:16Z</time>
      </trkpt>
      <trkpt lat="48.06759" lon="-4.6566">
        <ele>42</ele>
        <time>2011-04-18T09:54:28Z</time>
      </trkpt>
      <trkpt lat="48.06747" lon="-4.65656">
        <ele>51</ele>
        <time>2011-04-18T09:54:41Z</time>
      </trkpt>
      <trkpt lat="48.06754" lon="-4.65645">
        <ele>38</ele>
        <time>2011-04-18T09:54:57Z</time>
      </trkpt>
      <trkpt lat="48.0676" lon="-4.65638">
        <ele>36</ele>
        <time>2011-04-18T09:55:11Z</time>
      </trkpt>
      <trkpt lat="48.0676" lon="-4.65637">
        <ele>36</ele>
        <time>2011-04-18T09:55:12Z</time>
      </trkpt>
      <trkpt lat="48.06758" lon="-4.65632">
        <ele>35</ele>
        <time>2011-04-18T09:55:16Z</time>
      </trkpt>
      <trkpt lat="48.06754" lon="-4.65623">
        <ele>35</ele>
        <time>2011-04-18T09:55:22Z</time>
      </trkpt>
      <trkpt lat="48.0674" lon="-4.65604">
        <ele>49</ele>
        <time>2011-04-18T09:55:41Z</time>
      </trkpt>
      <trkpt lat="48.06727" lon="-4.65591">
        <ele>50</ele>
        <time>2011-04-18T09:55:59Z</time>
      </trkpt>
      <trkpt lat="48.06717" lon="-4.65576">
        <ele>53</ele>
        <time>2011-04-18T09:56:14Z</time>
      </trkpt>
      <trkpt lat="48.06724" lon="-4.65559">
        <ele>53</ele>
        <time>2011-04-18T09:56:30Z</time>
      </trkpt>
      <trkpt lat="48.0673" lon="-4.65561">
        <ele>52</ele>
        <time>2011-04-18T09:56:35Z</time>
      </trkpt>
      <trkpt lat="48.06735" lon="-4.65561">
        <ele>51</ele>
        <time>2011-04-18T09:56:39Z</time>
      </trkpt>
      <trkpt lat="48.06737" lon="-4.65557">
        <ele>51</ele>
        <time>2011-04-18T09:56:43Z</time>
      </trkpt>
      <trkpt lat="48.06746" lon="-4.65547">
        <ele>52</ele>
        <time>2011-04-18T09:57:02Z</time>
      </trkpt>
      <trkpt lat="48.06754" lon="-4.65538">
        <ele>39</ele>
        <time>2011-04-18T09:57:18Z</time>
      </trkpt>
      <trkpt lat="48.06753" lon="-4.65528">
        <ele>41</ele>
        <time>2011-04-18T09:57:30Z</time>
      </trkpt>
      <trkpt lat="48.06751" lon="-4.65517">
        <ele>45</ele>
        <time>2011-04-18T09:57:45Z</time>
      </trkpt>
      <trkpt lat="48.06752" lon="-4.65516">
        <ele>45</ele>
        <time>2011-04-18T09:57:46Z</time>
      </trkpt>
      <trkpt lat="48.06756" lon="-4.655">
        <ele>50</ele>
        <time>2011-04-18T09:58:03Z</time>
      </trkpt>
      <trkpt lat="48.06758" lon="-4.65498">
        <ele>53</ele>
        <time>2011-04-18T09:58:06Z</time>
      </trkpt>
      <trkpt lat="48.06769" lon="-4.65481">
        <ele>50</ele>
        <time>2011-04-18T09:58:20Z</time>
      </trkpt>
      <trkpt lat="48.06786" lon="-4.65463">
        <ele>49</ele>
        <time>2011-04-18T09:58:37Z</time>
      </trkpt>
      <trkpt lat="48.06808" lon="-4.65452">
        <ele>46</ele>
        <time>2011-04-18T09:58:56Z</time>
      </trkpt>
      <trkpt lat="48.06819" lon="-4.65446">
        <ele>46</ele>
        <time>2011-04-18T09:59:08Z</time>
      </trkpt>
      <trkpt lat="48.06825" lon="-4.65445">
        <ele>45</ele>
        <time>2011-04-18T09:59:13Z</time>
      </trkpt>
      <trkpt lat="48.06829" lon="-4.6544">
        <ele>45</ele>
        <time>2011-04-18T09:59:17Z</time>
      </trkpt>
      <trkpt lat="48.06836" lon="-4.65415">
        <ele>42</ele>
        <time>2011-04-18T09:59:33Z</time>
      </trkpt>
      <trkpt lat="48.06828" lon="-4.6538">
        <ele>54</ele>
        <time>2011-04-18T09:59:51Z</time>
      </trkpt>
      <trkpt lat="48.06822" lon="-4.65355">
        <ele>55</ele>
        <time>2011-04-18T10:00:04Z</time>
      </trkpt>
      <trkpt lat="48.06823" lon="-4.65326">
        <ele>55</ele>
        <time>2011-04-18T10:00:25Z</time>
      </trkpt>
      <trkpt lat="48.0683" lon="-4.65321">
        <ele>55</ele>
        <time>2011-04-18T10:00:37Z</time>
      </trkpt>
      <trkpt lat="48.06831" lon="-4.6532">
        <ele>55</ele>
        <time>2011-04-18T10:01:02Z</time>
      </trkpt>
      <trkpt lat="48.06828" lon="-4.65322">
        <ele>55</ele>
        <time>2011-04-18T10:01:52Z</time>
      </trkpt>
      <trkpt lat="48.06828" lon="-4.65319">
        <ele>55</ele>
        <time>2011-04-18T10:02:57Z</time>
      </trkpt>
      <trkpt lat="48.06826" lon="-4.65324">
        <ele>54</ele>
        <time>2011-04-18T10:04:10Z</time>
      </trkpt>
      <trkpt lat="48.06826" lon="-4.65328">
        <ele>54</ele>
        <time>2011-04-18T10:04:40Z</time>
      </trkpt>
      <trkpt lat="48.06825" lon="-4.65307">
        <ele>57</ele>
        <time>2011-04-18T10:05:23Z</time>
      </trkpt>
      <trkpt lat="48.06825" lon="-4.65305">
        <ele>57</ele>
        <time>2011-04-18T10:05:24Z</time>
      </trkpt>
      <trkpt lat="48.06825" lon="-4.65285">
        <ele>57</ele>
        <time>2011-04-18T10:05:37Z</time>
      </trkpt>
      <trkpt lat="48.06824" lon="-4.65269">
        <ele>57</ele>
        <time>2011-04-18T10:05:52Z</time>
      </trkpt>
      <trkpt lat="48.06823" lon="-4.65252">
        <ele>55</ele>
        <time>2011-04-18T10:06:05Z</time>
      </trkpt>
      <trkpt lat="48.06822" lon="-4.65251">
        <ele>55</ele>
        <time>2011-04-18T10:06:06Z</time>
      </trkpt>
      <trkpt lat="48.06812" lon="-4.65232">
        <ele>58</ele>
        <time>2011-04-18T10:06:22Z</time>
      </trkpt>
      <trkpt lat="48.06811" lon="-4.65226">
        <ele>59</ele>
        <time>2011-04-18T10:06:25Z</time>
      </trkpt>
      <trkpt lat="48.06809" lon="-4.65221">
        <ele>59</ele>
        <time>2011-04-18T10:06:29Z</time>
      </trkpt>
      <trkpt lat="48.06803" lon="-4.65187">
        <ele>60</ele>
        <time>2011-04-18T10:06:48Z</time>
      </trkpt>
      <trkpt lat="48.06796" lon="-4.65152">
        <ele>64</ele>
        <time>2011-04-18T10:07:09Z</time>
      </trkpt>
      <trkpt lat="48.06787" lon="-4.6511">
        <ele>67</ele>
        <time>2011-04-18T10:07:33Z</time>
      </trkpt>
      <trkpt lat="48.06787" lon="-4.65085">
        <ele>68</ele>
        <time>2011-04-18T10:07:47Z</time>
      </trkpt>
      <trkpt lat="48.06807" lon="-4.65064">
        <ele>71</ele>
        <time>2011-04-18T10:08:09Z</time>
      </trkpt>
      <trkpt lat="48.06832" lon="-4.65063">
        <ele>70</ele>
        <time>2011-04-18T10:08:29Z</time>
      </trkpt>
      <trkpt lat="48.06857" lon="-4.65064">
        <ele>58</ele>
        <time>2011-04-18T10:08:47Z</time>
      </trkpt>
      <trkpt lat="48.0688" lon="-4.65068">
        <ele>53</ele>
        <time>2011-04-18T10:09:04Z</time>
      </trkpt>
      <trkpt lat="48.06885" lon="-4.65073">
        <ele>51</ele>
        <time>2011-04-18T10:09:09Z</time>
      </trkpt>
      <trkpt lat="48.06888" lon="-4.65068">
        <ele>50</ele>
        <time>2011-04-18T10:09:13Z</time>
      </trkpt>
      <trkpt lat="48.06889" lon="-4.65028">
        <ele>53</ele>
        <time>2011-04-18T10:09:35Z</time>
      </trkpt>
      <trkpt lat="48.06887" lon="-4.65018">
        <ele>53</ele>
        <time>2011-04-18T10:09:42Z</time>
      </trkpt>
      <trkpt lat="48.0687" lon="-4.65011">
        <ele>57</ele>
        <time>2011-04-18T10:10:02Z</time>
      </trkpt>
      <trkpt lat="48.06867" lon="-4.65006">
        <ele>58</ele>
        <time>2011-04-18T10:10:07Z</time>
      </trkpt>
      <trkpt lat="48.06864" lon="-4.64999">
        <ele>59</ele>
        <time>2011-04-18T10:10:13Z</time>
      </trkpt>
      <trkpt lat="48.06858" lon="-4.64975">
        <ele>59</ele>
        <time>2011-04-18T10:10:30Z</time>
      </trkpt>
      <trkpt lat="48.06852" lon="-4.64947">
        <ele>59</ele>
        <time>2011-04-18T10:10:48Z</time>
      </trkpt>
      <trkpt lat="48.06851" lon="-4.64942">
        <ele>60</ele>
        <time>2011-04-18T10:10:52Z</time>
      </trkpt>
      <trkpt lat="48.0685" lon="-4.6493">
        <ele>62</ele>
        <time>2011-04-18T10:11:02Z</time>
      </trkpt>
      <trkpt lat="48.06848" lon="-4.6492">
        <ele>64</ele>
        <time>2011-04-18T10:11:09Z</time>
      </trkpt>
      <trkpt lat="48.06848" lon="-4.64872">
        <ele>51</ele>
        <time>2011-04-18T10:11:36Z</time>
      </trkpt>
      <trkpt lat="48.0685" lon="-4.64861">
        <ele>51</ele>
        <time>2011-04-18T10:11:41Z</time>
      </trkpt>
      <trkpt lat="48.06848" lon="-4.64854">
        <ele>52</ele>
        <time>2011-04-18T10:11:45Z</time>
      </trkpt>
      <trkpt lat="48.06828" lon="-4.64826">
        <ele>63</ele>
        <time>2011-04-18T10:12:07Z</time>
      </trkpt>
      <trkpt lat="48.06818" lon="-4.64798">
        <ele>63</ele>
        <time>2011-04-18T10:12:25Z</time>
      </trkpt>
      <trkpt lat="48.06814" lon="-4.64778">
        <ele>61</ele>
        <time>2011-04-18T10:12:36Z</time>
      </trkpt>
      <trkpt lat="48.06816" lon="-4.64765">
        <ele>59</ele>
        <time>2011-04-18T10:12:44Z</time>
      </trkpt>
      <trkpt lat="48.06811" lon="-4.6475">
        <ele>54</ele>
        <time>2011-04-18T10:12:55Z</time>
      </trkpt>
      <trkpt lat="48.06813" lon="-4.64741">
        <ele>53</ele>
        <time>2011-04-18T10:13:01Z</time>
      </trkpt>
      <trkpt lat="48.06816" lon="-4.64716">
        <ele>52</ele>
        <time>2011-04-18T10:13:17Z</time>
      </trkpt>
      <trkpt lat="48.06802" lon="-4.64695">
        <ele>52</ele>
        <time>2011-04-18T10:13:33Z</time>
      </trkpt>
      <trkpt lat="48.06791" lon="-4.64657">
        <ele>43</ele>
        <time>2011-04-18T10:13:57Z</time>
      </trkpt>
      <trkpt lat="48.06782" lon="-4.64627">
        <ele>43</ele>
        <time>2011-04-18T10:14:16Z</time>
      </trkpt>
      <trkpt lat="48.0678" lon="-4.64623">
        <ele>43</ele>
        <time>2011-04-18T10:14:19Z</time>
      </trkpt>
      <trkpt lat="48.06766" lon="-4.64616">
        <ele>45</ele>
        <time>2011-04-18T10:14:35Z</time>
      </trkpt>
      <trkpt lat="48.0676" lon="-4.6462">
        <ele>46</ele>
        <time>2011-04-18T10:14:50Z</time>
      </trkpt>
      <trkpt lat="48.06752" lon="-4.64613">
        <ele>46</ele>
        <time>2011-04-18T10:15:05Z</time>
      </trkpt>
      <trkpt lat="48.0674" lon="-4.64596">
        <ele>58</ele>
        <time>2011-04-18T10:15:21Z</time>
      </trkpt>
      <trkpt lat="48.06734" lon="-4.64566">
        <ele>53</ele>
        <time>2011-04-18T10:15:39Z</time>
      </trkpt>
      <trkpt lat="48.06722" lon="-4.64543">
        <ele>53</ele>
        <time>2011-04-18T10:15:56Z</time>
      </trkpt>
      <trkpt lat="48.06714" lon="-4.64525">
        <ele>52</ele>
        <time>2011-04-18T10:16:10Z</time>
      </trkpt>
      <trkpt lat="48.06704" lon="-4.64528">
        <ele>54</ele>
        <time>2011-04-18T10:16:22Z</time>
      </trkpt>
      <trkpt lat="48.0669" lon="-4.64511">
        <ele>57</ele>
        <time>2011-04-18T10:16:41Z</time>
      </trkpt>
      <trkpt lat="48.06692" lon="-4.64484">
        <ele>54</ele>
        <time>2011-04-18T10:16:57Z</time>
      </trkpt>
      <trkpt lat="48.06689" lon="-4.64475">
        <ele>54</ele>
        <time>2011-04-18T10:17:04Z</time>
      </trkpt>
      <trkpt lat="48.06679" lon="-4.64442">
        <ele>54</ele>
        <time>2011-04-18T10:17:23Z</time>
      </trkpt>
      <trkpt lat="48.06674" lon="-4.64408">
        <ele>55</ele>
        <time>2011-04-18T10:17:41Z</time>
      </trkpt>
      <trkpt lat="48.06661" lon="-4.64375">
        <ele>58</ele>
        <time>2011-04-18T10:18:03Z</time>
      </trkpt>
      <trkpt lat="48.06653" lon="-4.64363">
        <ele>57</ele>
        <time>2011-04-18T10:18:13Z</time>
      </trkpt>
      <trkpt lat="48.0665" lon="-4.6436">
        <ele>57</ele>
        <time>2011-04-18T10:18:17Z</time>
      </trkpt>
      <trkpt lat="48.06647" lon="-4.64354">
        <ele>57</ele>
        <time>2011-04-18T10:18:21Z</time>
      </trkpt>
      <trkpt lat="48.06647" lon="-4.6434">
        <ele>55</ele>
        <time>2011-04-18T10:18:28Z</time>
      </trkpt>
      <trkpt lat="48.06638" lon="-4.64314">
        <ele>57</ele>
        <time>2011-04-18T10:18:46Z</time>
      </trkpt>
      <trkpt lat="48.06637" lon="-4.64305">
        <ele>57</ele>
        <time>2011-04-18T10:18:51Z</time>
      </trkpt>
      <trkpt lat="48.0664" lon="-4.64278">
        <ele>57</ele>
        <time>2011-04-18T10:19:08Z</time>
      </trkpt>
      <trkpt lat="48.06645" lon="-4.64266">
        <ele>56</ele>
        <time>2011-04-18T10:19:27Z</time>
      </trkpt>
      <trkpt lat="48.06647" lon="-4.64262">
        <ele>55</ele>
        <time>2011-04-18T10:19:43Z</time>
      </trkpt>
      <trkpt lat="48.06651" lon="-4.6425">
        <ele>53</ele>
        <time>2011-04-18T10:19:51Z</time>
      </trkpt>
      <trkpt lat="48.06656" lon="-4.64235">
        <ele>54</ele>
        <time>2011-04-18T10:20:07Z</time>
      </trkpt>
      <trkpt lat="48.06658" lon="-4.64222">
        <ele>56</ele>
        <time>2011-04-18T10:20:19Z</time>
      </trkpt>
      <trkpt lat="48.06659" lon="-4.64221">
        <ele>56</ele>
        <time>2011-04-18T10:20:20Z</time>
      </trkpt>
      <trkpt lat="48.06658" lon="-4.64214">
        <ele>57</ele>
        <time>2011-04-18T10:20:24Z</time>
      </trkpt>
      <trkpt lat="48.06655" lon="-4.64197">
        <ele>57</ele>
        <time>2011-04-18T10:20:43Z</time>
      </trkpt>
      <trkpt lat="48.06655" lon="-4.64172">
        <ele>55</ele>
        <time>2011-04-18T10:20:56Z</time>
      </trkpt>
      <trkpt lat="48.06653" lon="-4.64133">
        <ele>59</ele>
        <time>2011-04-18T10:21:17Z</time>
      </trkpt>
      <trkpt lat="48.06652" lon="-4.64093">
        <ele>59</ele>
        <time>2011-04-18T10:21:39Z</time>
      </trkpt>
      <trkpt lat="48.0665" lon="-4.64049">
        <ele>65</ele>
        <time>2011-04-18T10:22:04Z</time>
      </trkpt>
      <trkpt lat="48.06667" lon="-4.64011">
        <ele>56</ele>
        <time>2011-04-18T10:22:28Z</time>
      </trkpt>
      <trkpt lat="48.06685" lon="-4.6399">
        <ele>58</ele>
        <time>2011-04-18T10:22:45Z</time>
      </trkpt>
      <trkpt lat="48.06703" lon="-4.63977">
        <ele>53</ele>
        <time>2011-04-18T10:23:01Z</time>
      </trkpt>
      <trkpt lat="48.06705" lon="-4.63974">
        <ele>53</ele>
        <time>2011-04-18T10:23:04Z</time>
      </trkpt>
      <trkpt lat="48.06718" lon="-4.6396">
        <ele>51</ele>
        <time>2011-04-18T10:23:20Z</time>
      </trkpt>
      <trkpt lat="48.06727" lon="-4.63944">
        <ele>51</ele>
        <time>2011-04-18T10:23:33Z</time>
      </trkpt>
      <trkpt lat="48.0674" lon="-4.63918">
        <ele>50</ele>
        <time>2011-04-18T10:23:55Z</time>
      </trkpt>
      <trkpt lat="48.06755" lon="-4.63902">
        <ele>47</ele>
        <time>2011-04-18T10:24:09Z</time>
      </trkpt>
      <trkpt lat="48.06757" lon="-4.63863">
        <ele>50</ele>
        <time>2011-04-18T10:24:29Z</time>
      </trkpt>
      <trkpt lat="48.06751" lon="-4.63826">
        <ele>60</ele>
        <time>2011-04-18T10:24:52Z</time>
      </trkpt>
      <trkpt lat="48.06758" lon="-4.63777">
        <ele>53</ele>
        <time>2011-04-18T10:25:16Z</time>
      </trkpt>
      <trkpt lat="48.06764" lon="-4.63731">
        <ele>55</ele>
        <time>2011-04-18T10:25:40Z</time>
      </trkpt>
      <trkpt lat="48.06769" lon="-4.63697">
        <ele>52</ele>
        <time>2011-04-18T10:25:58Z</time>
      </trkpt>
      <trkpt lat="48.0677" lon="-4.6369">
        <ele>52</ele>
        <time>2011-04-18T10:26:02Z</time>
      </trkpt>
      <trkpt lat="48.06759" lon="-4.63672">
        <ele>60</ele>
        <time>2011-04-18T10:26:16Z</time>
      </trkpt>
      <trkpt lat="48.06737" lon="-4.6364">
        <ele>69</ele>
        <time>2011-04-18T10:26:40Z</time>
      </trkpt>
      <trkpt lat="48.06733" lon="-4.63633">
        <ele>69</ele>
        <time>2011-04-18T10:26:45Z</time>
      </trkpt>
      <trkpt lat="48.06733" lon="-4.63622">
        <ele>68</ele>
        <time>2011-04-18T10:26:51Z</time>
      </trkpt>
      <trkpt lat="48.06731" lon="-4.63595">
        <ele>66</ele>
        <time>2011-04-18T10:27:07Z</time>
      </trkpt>
      <trkpt lat="48.06729" lon="-4.63554">
        <ele>63</ele>
        <time>2011-04-18T10:27:29Z</time>
      </trkpt>
      <trkpt lat="48.06727" lon="-4.6353">
        <ele>62</ele>
        <time>2011-04-18T10:27:42Z</time>
      </trkpt>
      <trkpt lat="48.06727" lon="-4.63497">
        <ele>56</ele>
        <time>2011-04-18T10:28:00Z</time>
      </trkpt>
      <trkpt lat="48.06717" lon="-4.63469">
        <ele>58</ele>
        <time>2011-04-18T10:28:18Z</time>
      </trkpt>
      <trkpt lat="48.0671" lon="-4.63438">
        <ele>57</ele>
        <time>2011-04-18T10:28:37Z</time>
      </trkpt>
      <trkpt lat="48.06709" lon="-4.63429">
        <ele>57</ele>
        <time>2011-04-18T10:28:42Z</time>
      </trkpt>
      <trkpt lat="48.06684" lon="-4.63399">
        <ele>57</ele>
        <time>2011-04-18T10:29:07Z</time>
      </trkpt>
      <trkpt lat="48.06668" lon="-4.63367">
        <ele>55</ele>
        <time>2011-04-18T10:29:28Z</time>
      </trkpt>
      <trkpt lat="48.06657" lon="-4.63347">
        <ele>67</ele>
        <time>2011-04-18T10:29:47Z</time>
      </trkpt>
      <trkpt lat="48.06658" lon="-4.63337">
        <ele>65</ele>
        <time>2011-04-18T10:30:03Z</time>
      </trkpt>
      <trkpt lat="48.06658" lon="-4.63335">
        <ele>65</ele>
        <time>2011-04-18T10:30:04Z</time>
      </trkpt>
      <trkpt lat="48.06655" lon="-4.63303">
        <ele>64</ele>
        <time>2011-04-18T10:30:25Z</time>
      </trkpt>
      <trkpt lat="48.06655" lon="-4.63309">
        <ele>64</ele>
        <time>2011-04-18T10:30:32Z</time>
      </trkpt>
      <trkpt lat="48.06657" lon="-4.63329">
        <ele>63</ele>
        <time>2011-04-18T10:30:48Z</time>
      </trkpt>
      <trkpt lat="48.06658" lon="-4.63333">
        <ele>63</ele>
        <time>2011-04-18T10:31:09Z</time>
      </trkpt>
      <trkpt lat="48.06657" lon="-4.63332">
        <ele>63</ele>
        <time>2011-04-18T10:32:01Z</time>
      </trkpt>
      <trkpt lat="48.06656" lon="-4.63332">
        <ele>63</ele>
        <time>2011-04-18T10:32:41Z</time>
      </trkpt>
      <trkpt lat="48.06655" lon="-4.6332">
        <ele>64</ele>
        <time>2011-04-18T10:32:59Z</time>
      </trkpt>
      <trkpt lat="48.06654" lon="-4.6332">
        <ele>64</ele>
        <time>2011-04-18T10:34:31Z</time>
      </trkpt>
      <trkpt lat="48.06653" lon="-4.6332">
        <ele>64</ele>
        <time>2011-04-18T10:35:22Z</time>
      </trkpt>
      <trkpt lat="48.06653" lon="-4.6332">
        <ele>64</ele>
        <time>2011-04-18T10:36:16Z</time>
      </trkpt>
      <trkpt lat="48.0664" lon="-4.63272">
        <ele>63</ele>
        <time>2011-04-18T10:36:42Z</time>
      </trkpt>
      <trkpt lat="48.06631" lon="-4.63256">
        <ele>64</ele>
        <time>2011-04-18T10:36:53Z</time>
      </trkpt>
      <trkpt lat="48.06631" lon="-4.63245">
        <ele>61</ele>
        <time>2011-04-18T10:36:59Z</time>
      </trkpt>
      <trkpt lat="48.06642" lon="-4.63202">
        <ele>59</ele>
        <time>2011-04-18T10:37:22Z</time>
      </trkpt>
      <trkpt lat="48.06631" lon="-4.6315">
        <ele>56</ele>
        <time>2011-04-18T10:37:49Z</time>
      </trkpt>
      <trkpt lat="48.06623" lon="-4.63115">
        <ele>56</ele>
        <time>2011-04-18T10:38:07Z</time>
      </trkpt>
      <trkpt lat="48.06618" lon="-4.63104">
        <ele>57</ele>
        <time>2011-04-18T10:38:14Z</time>
      </trkpt>
      <trkpt lat="48.06616" lon="-4.63094">
        <ele>57</ele>
        <time>2011-04-18T10:38:19Z</time>
      </trkpt>
      <trkpt lat="48.06615" lon="-4.63087">
        <ele>57</ele>
        <time>2011-04-18T10:38:23Z</time>
      </trkpt>
      <trkpt lat="48.06611" lon="-4.63071">
        <ele>55</ele>
        <time>2011-04-18T10:38:35Z</time>
      </trkpt>
      <trkpt lat="48.06599" lon="-4.6307">
        <ele>58</ele>
        <time>2011-04-18T10:38:48Z</time>
      </trkpt>
      <trkpt lat="48.06602" lon="-4.63063">
        <ele>56</ele>
        <time>2011-04-18T10:38:53Z</time>
      </trkpt>
      <trkpt lat="48.06599" lon="-4.63056">
        <ele>56</ele>
        <time>2011-04-18T10:38:59Z</time>
      </trkpt>
      <trkpt lat="48.06593" lon="-4.63033">
        <ele>56</ele>
        <time>2011-04-18T10:39:13Z</time>
      </trkpt>
      <trkpt lat="48.06604" lon="-4.63018">
        <ele>55</ele>
        <time>2011-04-18T10:39:25Z</time>
      </trkpt>
      <trkpt lat="48.06591" lon="-4.63018">
        <ele>57</ele>
        <time>2011-04-18T10:39:38Z</time>
      </trkpt>
      <trkpt lat="48.06593" lon="-4.63008">
        <ele>58</ele>
        <time>2011-04-18T10:39:50Z</time>
      </trkpt>
      <trkpt lat="48.06593" lon="-4.63005">
        <ele>58</ele>
        <time>2011-04-18T10:39:52Z</time>
      </trkpt>
      <trkpt lat="48.0658" lon="-4.62967">
        <ele>67</ele>
        <time>2011-04-18T10:40:16Z</time>
      </trkpt>
      <trkpt lat="48.06572" lon="-4.6296">
        <ele>67</ele>
        <time>2011-04-18T10:40:25Z</time>
      </trkpt>
      <trkpt lat="48.06566" lon="-4.62915">
        <ele>68</ele>
        <time>2011-04-18T10:40:47Z</time>
      </trkpt>
      <trkpt lat="48.06577" lon="-4.62864">
        <ele>69</ele>
        <time>2011-04-18T10:41:14Z</time>
      </trkpt>
      <trkpt lat="48.06581" lon="-4.62858">
        <ele>69</ele>
        <time>2011-04-18T10:41:18Z</time>
      </trkpt>
      <trkpt lat="48.06611" lon="-4.62833">
        <ele>68</ele>
        <time>2011-04-18T10:41:44Z</time>
      </trkpt>
      <trkpt lat="48.06639" lon="-4.62837">
        <ele>63</ele>
        <time>2011-04-18T10:42:05Z</time>
      </trkpt>
      <trkpt lat="48.06667" lon="-4.62834">
        <ele>64</ele>
        <time>2011-04-18T10:42:25Z</time>
      </trkpt>
      <trkpt lat="48.06705" lon="-4.62842">
        <ele>57</ele>
        <time>2011-04-18T10:42:53Z</time>
      </trkpt>
      <trkpt lat="48.06731" lon="-4.62838">
        <ele>57</ele>
        <time>2011-04-18T10:43:13Z</time>
      </trkpt>
      <trkpt lat="48.06758" lon="-4.62801">
        <ele>61</ele>
        <time>2011-04-18T10:43:41Z</time>
      </trkpt>
      <trkpt lat="48.0678" lon="-4.62774">
        <ele>62</ele>
        <time>2011-04-18T10:44:03Z</time>
      </trkpt>
      <trkpt lat="48.06803" lon="-4.62755">
        <ele>62</ele>
        <time>2011-04-18T10:44:26Z</time>
      </trkpt>
      <trkpt lat="48.06832" lon="-4.62761">
        <ele>63</ele>
        <time>2011-04-18T10:44:48Z</time>
      </trkpt>
      <trkpt lat="48.06848" lon="-4.62743">
        <ele>65</ele>
        <time>2011-04-18T10:45:03Z</time>
      </trkpt>
      <trkpt lat="48.06853" lon="-4.62746">
        <ele>65</ele>
        <time>2011-04-18T10:45:08Z</time>
      </trkpt>
      <trkpt lat="48.06891" lon="-4.62742">
        <ele>66</ele>
        <time>2011-04-18T10:45:37Z</time>
      </trkpt>
      <trkpt lat="48.06917" lon="-4.62744">
        <ele>65</ele>
        <time>2011-04-18T10:45:57Z</time>
      </trkpt>
      <trkpt lat="48.06939" lon="-4.62747">
        <ele>66</ele>
        <time>2011-04-18T10:46:14Z</time>
      </trkpt>
      <trkpt lat="48.06977" lon="-4.62749">
        <ele>67</ele>
        <time>2011-04-18T10:46:45Z</time>
      </trkpt>
      <trkpt lat="48.07008" lon="-4.62753">
        <ele>64</ele>
        <time>2011-04-18T10:47:09Z</time>
      </trkpt>
      <trkpt lat="48.07029" lon="-4.62779">
        <ele>57</ele>
        <time>2011-04-18T10:47:30Z</time>
      </trkpt>
      <trkpt lat="48.07035" lon="-4.62788">
        <ele>56</ele>
        <time>2011-04-18T10:47:37Z</time>
      </trkpt>
      <trkpt lat="48.0706" lon="-4.62801">
        <ele>55</ele>
        <time>2011-04-18T10:47:58Z</time>
      </trkpt>
      <trkpt lat="48.0707" lon="-4.62806">
        <ele>56</ele>
        <time>2011-04-18T10:48:10Z</time>
      </trkpt>
      <trkpt lat="48.0708" lon="-4.62811">
        <ele>56</ele>
        <time>2011-04-18T10:48:20Z</time>
      </trkpt>
      <trkpt lat="48.07079" lon="-4.62788">
        <ele>54</ele>
        <time>2011-04-18T10:48:34Z</time>
      </trkpt>
      <trkpt lat="48.07079" lon="-4.62786">
        <ele>54</ele>
        <time>2011-04-18T10:48:35Z</time>
      </trkpt>
      <trkpt lat="48.07079" lon="-4.62782">
        <ele>53</ele>
        <time>2011-04-18T10:48:43Z</time>
      </trkpt>
      <trkpt lat="48.07079" lon="-4.62791">
        <ele>54</ele>
        <time>2011-04-18T10:48:48Z</time>
      </trkpt>
      <trkpt lat="48.07079" lon="-4.62804">
        <ele>55</ele>
        <time>2011-04-18T10:49:05Z</time>
      </trkpt>
      <trkpt lat="48.0708" lon="-4.62789">
        <ele>54</ele>
        <time>2011-04-18T10:49:15Z</time>
      </trkpt>
      <trkpt lat="48.07078" lon="-4.62782">
        <ele>53</ele>
        <time>2011-04-18T10:49:32Z</time>
      </trkpt>
      <trkpt lat="48.07079" lon="-4.62793">
        <ele>54</ele>
        <time>2011-04-18T10:49:39Z</time>
      </trkpt>
      <trkpt lat="48.07081" lon="-4.62813">
        <ele>56</ele>
        <time>2011-04-18T10:49:51Z</time>
      </trkpt>
      <trkpt lat="48.0709" lon="-4.62818">
        <ele>49</ele>
        <time>2011-04-18T10:50:04Z</time>
      </trkpt>
      <trkpt lat="48.07091" lon="-4.62819">
        <ele>49</ele>
        <time>2011-04-18T10:50:05Z</time>
      </trkpt>
      <trkpt lat="48.07094" lon="-4.62823">
        <ele>50</ele>
        <time>2011-04-18T10:50:18Z</time>
      </trkpt>
      <trkpt lat="48.07098" lon="-4.62826">
        <ele>49</ele>
        <time>2011-04-18T10:50:23Z</time>
      </trkpt>
      <trkpt lat="48.071" lon="-4.62833">
        <ele>49</ele>
        <time>2011-04-18T10:50:27Z</time>
      </trkpt>
      <trkpt lat="48.07099" lon="-4.62836">
        <ele>48</ele>
        <time>2011-04-18T10:50:29Z</time>
      </trkpt>
      <trkpt lat="48.07101" lon="-4.62845">
        <ele>46</ele>
        <time>2011-04-18T10:50:39Z</time>
      </trkpt>
      <trkpt lat="48.07104" lon="-4.62845">
        <ele>45</ele>
        <time>2011-04-18T10:50:52Z</time>
      </trkpt>
      <trkpt lat="48.07103" lon="-4.62845">
        <ele>45</ele>
        <time>2011-04-18T10:50:56Z</time>
      </trkpt>
      <trkpt lat="48.07099" lon="-4.62837">
        <ele>48</ele>
        <time>2011-04-18T10:51:12Z</time>
      </trkpt>
      <trkpt lat="48.071" lon="-4.6284">
        <ele>47</ele>
        <time>2011-04-18T10:51:35Z</time>
      </trkpt>
      <trkpt lat="48.07102" lon="-4.62843">
        <ele>45</ele>
        <time>2011-04-18T10:52:01Z</time>
      </trkpt>
      <trkpt lat="48.07105" lon="-4.62845">
        <ele>44</ele>
        <time>2011-04-18T10:52:18Z</time>
      </trkpt>
      <trkpt lat="48.07107" lon="-4.62847">
        <ele>43</ele>
        <time>2011-04-18T10:52:41Z</time>
      </trkpt>
      <trkpt lat="48.07105" lon="-4.62847">
        <ele>44</ele>
        <time>2011-04-18T10:53:38Z</time>
      </trkpt>
      <trkpt lat="48.07111" lon="-4.62844">
        <ele>42</ele>
        <time>2011-04-18T11:46:27Z</time>
      </trkpt>
      <trkpt lat="48.07095" lon="-4.62827">
        <ele>50</ele>
        <time>2011-04-18T11:46:38Z</time>
      </trkpt>
      <trkpt lat="48.07096" lon="-4.62828">
        <ele>50</ele>
        <time>2011-04-18T11:46:48Z</time>
      </trkpt>
      <trkpt lat="48.07096" lon="-4.62822">
        <ele>49</ele>
        <time>2011-04-18T11:46:53Z</time>
      </trkpt>
      <trkpt lat="48.07085" lon="-4.62811">
        <ele>48</ele>
        <time>2011-04-18T11:47:09Z</time>
      </trkpt>
      <trkpt lat="48.07079" lon="-4.62807">
        <ele>56</ele>
        <time>2011-04-18T11:47:27Z</time>
      </trkpt>
      <trkpt lat="48.07076" lon="-4.62797">
        <ele>55</ele>
        <time>2011-04-18T11:47:35Z</time>
      </trkpt>
      <trkpt lat="48.07069" lon="-4.62775">
        <ele>53</ele>
        <time>2011-04-18T11:47:54Z</time>
      </trkpt>
      <trkpt lat="48.0705" lon="-4.62735">
        <ele>50</ele>
        <time>2011-04-18T11:48:23Z</time>
      </trkpt>
      <trkpt lat="48.07044" lon="-4.62721">
        <ele>51</ele>
        <time>2011-04-18T11:48:33Z</time>
      </trkpt>
      <trkpt lat="48.07044" lon="-4.62718">
        <ele>50</ele>
        <time>2011-04-18T11:48:35Z</time>
      </trkpt>
      <trkpt lat="48.07029" lon="-4.62692">
        <ele>52</ele>
        <time>2011-04-18T11:48:55Z</time>
      </trkpt>
      <trkpt lat="48.07017" lon="-4.62657">
        <ele>51</ele>
        <time>2011-04-18T11:49:17Z</time>
      </trkpt>
      <trkpt lat="48.07013" lon="-4.62626">
        <ele>46</ele>
        <time>2011-04-18T11:49:34Z</time>
      </trkpt>
      <trkpt lat="48.07012" lon="-4.62624">
        <ele>46</ele>
        <time>2011-04-18T11:49:35Z</time>
      </trkpt>
      <trkpt lat="48.07013" lon="-4.62587">
        <ele>49</ele>
        <time>2011-04-18T11:49:55Z</time>
      </trkpt>
      <trkpt lat="48.07006" lon="-4.62555">
        <ele>46</ele>
        <time>2011-04-18T11:50:12Z</time>
      </trkpt>
      <trkpt lat="48.06994" lon="-4.62523">
        <ele>55</ele>
        <time>2011-04-18T11:50:33Z</time>
      </trkpt>
      <trkpt lat="48.06985" lon="-4.6249">
        <ele>49</ele>
        <time>2011-04-18T11:50:51Z</time>
      </trkpt>
      <trkpt lat="48.06985" lon="-4.62453">
        <ele>48</ele>
        <time>2011-04-18T11:51:11Z</time>
      </trkpt>
      <trkpt lat="48.06981" lon="-4.62417">
        <ele>43</ele>
        <time>2011-04-18T11:51:30Z</time>
      </trkpt>
      <trkpt lat="48.06975" lon="-4.62383">
        <ele>36</ele>
        <time>2011-04-18T11:51:50Z</time>
      </trkpt>
      <trkpt lat="48.06963" lon="-4.62359">
        <ele>35</ele>
        <time>2011-04-18T11:52:09Z</time>
      </trkpt>
      <trkpt lat="48.06946" lon="-4.62343">
        <ele>38</ele>
        <time>2011-04-18T11:52:27Z</time>
      </trkpt>
      <trkpt lat="48.06932" lon="-4.62325">
        <ele>35</ele>
        <time>2011-04-18T11:52:43Z</time>
      </trkpt>
      <trkpt lat="48.06918" lon="-4.62305">
        <ele>32</ele>
        <time>2011-04-18T11:53:00Z</time>
      </trkpt>
      <trkpt lat="48.0691" lon="-4.62293">
        <ele>37</ele>
        <time>2011-04-18T11:53:12Z</time>
      </trkpt>
      <trkpt lat="48.06904" lon="-4.62281">
        <ele>34</ele>
        <time>2011-04-18T11:53:25Z</time>
      </trkpt>
      <trkpt lat="48.06902" lon="-4.62281">
        <ele>34</ele>
        <time>2011-04-18T11:53:50Z</time>
      </trkpt>
      <trkpt lat="48.06891" lon="-4.62265">
        <ele>33</ele>
        <time>2011-04-18T11:54:05Z</time>
      </trkpt>
      <trkpt lat="48.06877" lon="-4.62244">
        <ele>24</ele>
        <time>2011-04-18T11:54:19Z</time>
      </trkpt>
      <trkpt lat="48.06857" lon="-4.62226">
        <ele>26</ele>
        <time>2011-04-18T11:54:37Z</time>
      </trkpt>
      <trkpt lat="48.06837" lon="-4.6222">
        <ele>26</ele>
        <time>2011-04-18T11:54:53Z</time>
      </trkpt>
      <trkpt lat="48.06815" lon="-4.62221">
        <ele>33</ele>
        <time>2011-04-18T11:55:10Z</time>
      </trkpt>
      <trkpt lat="48.06811" lon="-4.62222">
        <ele>34</ele>
        <time>2011-04-18T11:55:13Z</time>
      </trkpt>
      <trkpt lat="48.06798" lon="-4.62223">
        <ele>35</ele>
        <time>2011-04-18T11:55:24Z</time>
      </trkpt>
      <trkpt lat="48.06795" lon="-4.62225">
        <ele>35</ele>
        <time>2011-04-18T11:55:27Z</time>
      </trkpt>
      <trkpt lat="48.06776" lon="-4.62229">
        <ele>38</ele>
        <time>2011-04-18T11:55:47Z</time>
      </trkpt>
      <trkpt lat="48.06758" lon="-4.62222">
        <ele>39</ele>
        <time>2011-04-18T11:56:01Z</time>
      </trkpt>
      <trkpt lat="48.06746" lon="-4.62221">
        <ele>48</ele>
        <time>2011-04-18T11:56:12Z</time>
      </trkpt>
      <trkpt lat="48.06743" lon="-4.62223">
        <ele>48</ele>
        <time>2011-04-18T11:56:16Z</time>
      </trkpt>
      <trkpt lat="48.06723" lon="-4.62218">
        <ele>49</ele>
        <time>2011-04-18T11:56:36Z</time>
      </trkpt>
      <trkpt lat="48.0672" lon="-4.62218">
        <ele>49</ele>
        <time>2011-04-18T11:56:39Z</time>
      </trkpt>
      <trkpt lat="48.06707" lon="-4.62219">
        <ele>50</ele>
        <time>2011-04-18T11:56:53Z</time>
      </trkpt>
      <trkpt lat="48.06692" lon="-4.62218">
        <ele>51</ele>
        <time>2011-04-18T11:57:10Z</time>
      </trkpt>
      <trkpt lat="48.0669" lon="-4.62201">
        <ele>51</ele>
        <time>2011-04-18T11:57:27Z</time>
      </trkpt>
      <trkpt lat="48.06693" lon="-4.62196">
        <ele>51</ele>
        <time>2011-04-18T11:57:33Z</time>
      </trkpt>
      <trkpt lat="48.06705" lon="-4.6218">
        <ele>50</ele>
        <time>2011-04-18T11:57:50Z</time>
      </trkpt>
      <trkpt lat="48.06718" lon="-4.62164">
        <ele>50</ele>
        <time>2011-04-18T11:58:11Z</time>
      </trkpt>
      <trkpt lat="48.06717" lon="-4.62159">
        <ele>50</ele>
        <time>2011-04-18T11:58:17Z</time>
      </trkpt>
      <trkpt lat="48.06723" lon="-4.62142">
        <ele>50</ele>
        <time>2011-04-18T11:58:35Z</time>
      </trkpt>
      <trkpt lat="48.06722" lon="-4.62141">
        <ele>50</ele>
        <time>2011-04-18T11:58:37Z</time>
      </trkpt>
      <trkpt lat="48.06716" lon="-4.62136">
        <ele>51</ele>
        <time>2011-04-18T11:58:43Z</time>
      </trkpt>
      <trkpt lat="48.06715" lon="-4.62127">
        <ele>51</ele>
        <time>2011-04-18T11:58:50Z</time>
      </trkpt>
      <trkpt lat="48.06714" lon="-4.62101">
        <ele>52</ele>
        <time>2011-04-18T11:59:07Z</time>
      </trkpt>
      <trkpt lat="48.06714" lon="-4.6208">
        <ele>53</ele>
        <time>2011-04-18T11:59:21Z</time>
      </trkpt>
      <trkpt lat="48.06714" lon="-4.62042">
        <ele>54</ele>
        <time>2011-04-18T11:59:42Z</time>
      </trkpt>
      <trkpt lat="48.06714" lon="-4.61989">
        <ele>54</ele>
        <time>2011-04-18T12:00:10Z</time>
      </trkpt>
      <trkpt lat="48.06714" lon="-4.61987">
        <ele>54</ele>
        <time>2011-04-18T12:00:11Z</time>
      </trkpt>
      <trkpt lat="48.0672" lon="-4.61968">
        <ele>54</ele>
        <time>2011-04-18T12:00:28Z</time>
      </trkpt>
      <trkpt lat="48.06727" lon="-4.61969">
        <ele>54</ele>
        <time>2011-04-18T12:00:43Z</time>
      </trkpt>
      <trkpt lat="48.06721" lon="-4.6195">
        <ele>55</ele>
        <time>2011-04-18T12:00:57Z</time>
      </trkpt>
      <trkpt lat="48.06719" lon="-4.61939">
        <ele>55</ele>
        <time>2011-04-18T12:01:08Z</time>
      </trkpt>
      <trkpt lat="48.06721" lon="-4.61933">
        <ele>55</ele>
        <time>2011-04-18T12:01:20Z</time>
      </trkpt>
      <trkpt lat="48.06731" lon="-4.61933">
        <ele>55</ele>
        <time>2011-04-18T12:01:29Z</time>
      </trkpt>
      <trkpt lat="48.0675" lon="-4.61949">
        <ele>54</ele>
        <time>2011-04-18T12:01:48Z</time>
      </trkpt>
      <trkpt lat="48.06757" lon="-4.61952">
        <ele>53</ele>
        <time>2011-04-18T12:01:55Z</time>
      </trkpt>
      <trkpt lat="48.0678" lon="-4.6198">
        <ele>51</ele>
        <time>2011-04-18T12:02:20Z</time>
      </trkpt>
      <trkpt lat="48.06799" lon="-4.61996">
        <ele>50</ele>
        <time>2011-04-18T12:02:39Z</time>
      </trkpt>
      <trkpt lat="48.06816" lon="-4.62007">
        <ele>43</ele>
        <time>2011-04-18T12:02:58Z</time>
      </trkpt>
      <trkpt lat="48.06835" lon="-4.62009">
        <ele>39</ele>
        <time>2011-04-18T12:03:19Z</time>
      </trkpt>
      <trkpt lat="48.0685" lon="-4.61987">
        <ele>43</ele>
        <time>2011-04-18T12:03:40Z</time>
      </trkpt>
      <trkpt lat="48.06856" lon="-4.61955">
        <ele>45</ele>
        <time>2011-04-18T12:04:01Z</time>
      </trkpt>
      <trkpt lat="48.06857" lon="-4.61928">
        <ele>48</ele>
        <time>2011-04-18T12:04:18Z</time>
      </trkpt>
      <trkpt lat="48.06877" lon="-4.61881">
        <ele>55</ele>
        <time>2011-04-18T12:04:48Z</time>
      </trkpt>
      <trkpt lat="48.06896" lon="-4.61849">
        <ele>55</ele>
        <time>2011-04-18T12:05:10Z</time>
      </trkpt>
      <trkpt lat="48.06918" lon="-4.61824">
        <ele>51</ele>
        <time>2011-04-18T12:05:31Z</time>
      </trkpt>
      <trkpt lat="48.06935" lon="-4.61798">
        <ele>45</ele>
        <time>2011-04-18T12:05:52Z</time>
      </trkpt>
      <trkpt lat="48.0695" lon="-4.61779">
        <ele>43</ele>
        <time>2011-04-18T12:06:10Z</time>
      </trkpt>
      <trkpt lat="48.06952" lon="-4.61773">
        <ele>43</ele>
        <time>2011-04-18T12:06:28Z</time>
      </trkpt>
      <trkpt lat="48.06952" lon="-4.61773">
        <ele>43</ele>
        <time>2011-04-18T12:06:34Z</time>
      </trkpt>
      <trkpt lat="48.0695" lon="-4.61768">
        <ele>44</ele>
        <time>2011-04-18T12:06:37Z</time>
      </trkpt>
      <trkpt lat="48.06949" lon="-4.61762">
        <ele>45</ele>
        <time>2011-04-18T12:06:41Z</time>
      </trkpt>
      <trkpt lat="48.06949" lon="-4.61739">
        <ele>49</ele>
        <time>2011-04-18T12:06:57Z</time>
      </trkpt>
      <trkpt lat="48.0694" lon="-4.61711">
        <ele>50</ele>
        <time>2011-04-18T12:07:16Z</time>
      </trkpt>
      <trkpt lat="48.06938" lon="-4.61702">
        <ele>51</ele>
        <time>2011-04-18T12:07:21Z</time>
      </trkpt>
      <trkpt lat="48.06939" lon="-4.61695">
        <ele>51</ele>
        <time>2011-04-18T12:07:25Z</time>
      </trkpt>
      <trkpt lat="48.06948" lon="-4.61661">
        <ele>52</ele>
        <time>2011-04-18T12:07:47Z</time>
      </trkpt>
      <trkpt lat="48.06943" lon="-4.61649">
        <ele>53</ele>
        <time>2011-04-18T12:08:00Z</time>
      </trkpt>
      <trkpt lat="48.06945" lon="-4.61647">
        <ele>53</ele>
        <time>2011-04-18T12:08:03Z</time>
      </trkpt>
      <trkpt lat="48.06946" lon="-4.61641">
        <ele>52</ele>
        <time>2011-04-18T12:08:07Z</time>
      </trkpt>
      <trkpt lat="48.06951" lon="-4.61621">
        <ele>52</ele>
        <time>2011-04-18T12:08:22Z</time>
      </trkpt>
      <trkpt lat="48.06956" lon="-4.61617">
        <ele>51</ele>
        <time>2011-04-18T12:08:28Z</time>
      </trkpt>
      <trkpt lat="48.06958" lon="-4.6161">
        <ele>51</ele>
        <time>2011-04-18T12:08:32Z</time>
      </trkpt>
      <trkpt lat="48.06958" lon="-4.61603">
        <ele>51</ele>
        <time>2011-04-18T12:08:36Z</time>
      </trkpt>
      <trkpt lat="48.06949" lon="-4.61583">
        <ele>54</ele>
        <time>2011-04-18T12:08:51Z</time>
      </trkpt>
      <trkpt lat="48.06928" lon="-4.61572">
        <ele>59</ele>
        <time>2011-04-18T12:09:09Z</time>
      </trkpt>
      <trkpt lat="48.06901" lon="-4.6156">
        <ele>65</ele>
        <time>2011-04-18T12:09:32Z</time>
      </trkpt>
      <trkpt lat="48.06874" lon="-4.61549">
        <ele>65</ele>
        <time>2011-04-18T12:09:56Z</time>
      </trkpt>
      <trkpt lat="48.06874" lon="-4.61538">
        <ele>65</ele>
        <time>2011-04-18T12:10:06Z</time>
      </trkpt>
      <trkpt lat="48.06882" lon="-4.61509">
        <ele>65</ele>
        <time>2011-04-18T12:10:24Z</time>
      </trkpt>
      <trkpt lat="48.06885" lon="-4.61502">
        <ele>65</ele>
        <time>2011-04-18T12:10:29Z</time>
      </trkpt>
      <trkpt lat="48.06889" lon="-4.61491">
        <ele>66</ele>
        <time>2011-04-18T12:10:36Z</time>
      </trkpt>
      <trkpt lat="48.06889" lon="-4.61487">
        <ele>66</ele>
        <time>2011-04-18T12:10:38Z</time>
      </trkpt>
      <trkpt lat="48.06903" lon="-4.61444">
        <ele>67</ele>
        <time>2011-04-18T12:11:05Z</time>
      </trkpt>
      <trkpt lat="48.06913" lon="-4.61407">
        <ele>68</ele>
        <time>2011-04-18T12:11:28Z</time>
      </trkpt>
      <trkpt lat="48.06927" lon="-4.61363">
        <ele>65</ele>
        <time>2011-04-18T12:11:52Z</time>
      </trkpt>
      <trkpt lat="48.06929" lon="-4.61356">
        <ele>65</ele>
        <time>2011-04-18T12:11:56Z</time>
      </trkpt>
      <trkpt lat="48.06939" lon="-4.61319">
        <ele>67</ele>
        <time>2011-04-18T12:12:17Z</time>
      </trkpt>
      <trkpt lat="48.06948" lon="-4.61288">
        <ele>67</ele>
        <time>2011-04-18T12:12:34Z</time>
      </trkpt>
      <trkpt lat="48.06952" lon="-4.61274">
        <ele>67</ele>
        <time>2011-04-18T12:12:42Z</time>
      </trkpt>
      <trkpt lat="48.06955" lon="-4.61271">
        <ele>67</ele>
        <time>2011-04-18T12:12:45Z</time>
      </trkpt>
      <trkpt lat="48.06965" lon="-4.6124">
        <ele>69</ele>
        <time>2011-04-18T12:13:02Z</time>
      </trkpt>
      <trkpt lat="48.06972" lon="-4.61216">
        <ele>69</ele>
        <time>2011-04-18T12:13:16Z</time>
      </trkpt>
      <trkpt lat="48.06976" lon="-4.61206">
        <ele>69</ele>
        <time>2011-04-18T12:13:22Z</time>
      </trkpt>
      <trkpt lat="48.06976" lon="-4.61203">
        <ele>69</ele>
        <time>2011-04-18T12:13:24Z</time>
      </trkpt>
      <trkpt lat="48.0699" lon="-4.6116">
        <ele>69</ele>
        <time>2011-04-18T12:13:50Z</time>
      </trkpt>
      <trkpt lat="48.0699" lon="-4.61146">
        <ele>70</ele>
        <time>2011-04-18T12:13:58Z</time>
      </trkpt>
      <trkpt lat="48.06998" lon="-4.61126">
        <ele>70</ele>
        <time>2011-04-18T12:14:12Z</time>
      </trkpt>
      <trkpt lat="48.07013" lon="-4.61088">
        <ele>68</ele>
        <time>2011-04-18T12:14:34Z</time>
      </trkpt>
      <trkpt lat="48.07025" lon="-4.61059">
        <ele>67</ele>
        <time>2011-04-18T12:14:52Z</time>
      </trkpt>
      <trkpt lat="48.07026" lon="-4.61054">
        <ele>67</ele>
        <time>2011-04-18T12:14:55Z</time>
      </trkpt>
      <trkpt lat="48.07032" lon="-4.61043">
        <ele>67</ele>
        <time>2011-04-18T12:15:02Z</time>
      </trkpt>
      <trkpt lat="48.07044" lon="-4.61012">
        <ele>66</ele>
        <time>2011-04-18T12:15:21Z</time>
      </trkpt>
      <trkpt lat="48.07059" lon="-4.60978">
        <ele>64</ele>
        <time>2011-04-18T12:15:44Z</time>
      </trkpt>
      <trkpt lat="48.07068" lon="-4.60964">
        <ele>63</ele>
        <time>2011-04-18T12:15:54Z</time>
      </trkpt>
      <trkpt lat="48.07079" lon="-4.60947">
        <ele>62</ele>
        <time>2011-04-18T12:16:07Z</time>
      </trkpt>
      <trkpt lat="48.07086" lon="-4.60935">
        <ele>55</ele>
        <time>2011-04-18T12:16:15Z</time>
      </trkpt>
      <trkpt lat="48.07098" lon="-4.60912">
        <ele>53</ele>
        <time>2011-04-18T12:16:31Z</time>
      </trkpt>
      <trkpt lat="48.07101" lon="-4.60909">
        <ele>52</ele>
        <time>2011-04-18T12:16:34Z</time>
      </trkpt>
      <trkpt lat="48.07105" lon="-4.60904">
        <ele>51</ele>
        <time>2011-04-18T12:16:38Z</time>
      </trkpt>
      <trkpt lat="48.07112" lon="-4.60898">
        <ele>50</ele>
        <time>2011-04-18T12:16:44Z</time>
      </trkpt>
      <trkpt lat="48.07117" lon="-4.60887">
        <ele>49</ele>
        <time>2011-04-18T12:16:51Z</time>
      </trkpt>
      <trkpt lat="48.07118" lon="-4.6088">
        <ele>48</ele>
        <time>2011-04-18T12:16:55Z</time>
      </trkpt>
      <trkpt lat="48.07127" lon="-4.60863">
        <ele>47</ele>
        <time>2011-04-18T12:17:09Z</time>
      </trkpt>
      <trkpt lat="48.0713" lon="-4.60863">
        <ele>46</ele>
        <time>2011-04-18T12:17:11Z</time>
      </trkpt>
      <trkpt lat="48.07133" lon="-4.60867">
        <ele>46</ele>
        <time>2011-04-18T12:17:15Z</time>
      </trkpt>
      <trkpt lat="48.07134" lon="-4.60869">
        <ele>46</ele>
        <time>2011-04-18T12:17:17Z</time>
      </trkpt>
      <trkpt lat="48.07141" lon="-4.60875">
        <ele>46</ele>
        <time>2011-04-18T12:17:25Z</time>
      </trkpt>
      <trkpt lat="48.07144" lon="-4.60879">
        <ele>46</ele>
        <time>2011-04-18T12:17:29Z</time>
      </trkpt>
      <trkpt lat="48.07162" lon="-4.60882">
        <ele>45</ele>
        <time>2011-04-18T12:17:45Z</time>
      </trkpt>
      <trkpt lat="48.07164" lon="-4.6088">
        <ele>45</ele>
        <time>2011-04-18T12:17:47Z</time>
      </trkpt>
      <trkpt lat="48.07175" lon="-4.60879">
        <ele>35</ele>
        <time>2011-04-18T12:17:58Z</time>
      </trkpt>
      <trkpt lat="48.07171" lon="-4.60862">
        <ele>34</ele>
        <time>2011-04-18T12:18:12Z</time>
      </trkpt>
      <trkpt lat="48.07165" lon="-4.60849">
        <ele>42</ele>
        <time>2011-04-18T12:18:19Z</time>
      </trkpt>
      <trkpt lat="48.07164" lon="-4.6084">
        <ele>39</ele>
        <time>2011-04-18T12:18:28Z</time>
      </trkpt>
      <trkpt lat="48.07178" lon="-4.6083">
        <ele>35</ele>
        <time>2011-04-18T12:18:43Z</time>
      </trkpt>
      <trkpt lat="48.0718" lon="-4.60819">
        <ele>35</ele>
        <time>2011-04-18T12:18:57Z</time>
      </trkpt>
      <trkpt lat="48.07192" lon="-4.60819">
        <ele>34</ele>
        <time>2011-04-18T12:19:09Z</time>
      </trkpt>
      <trkpt lat="48.072" lon="-4.60817">
        <ele>33</ele>
        <time>2011-04-18T12:19:18Z</time>
      </trkpt>
      <trkpt lat="48.07214" lon="-4.60819">
        <ele>32</ele>
        <time>2011-04-18T12:19:34Z</time>
      </trkpt>
      <trkpt lat="48.07219" lon="-4.60807">
        <ele>32</ele>
        <time>2011-04-18T12:19:47Z</time>
      </trkpt>
      <trkpt lat="48.07218" lon="-4.60795">
        <ele>33</ele>
        <time>2011-04-18T12:20:00Z</time>
      </trkpt>
      <trkpt lat="48.07211" lon="-4.6078">
        <ele>34</ele>
        <time>2011-04-18T12:20:17Z</time>
      </trkpt>
      <trkpt lat="48.07209" lon="-4.60776">
        <ele>35</ele>
        <time>2011-04-18T12:20:29Z</time>
      </trkpt>
      <trkpt lat="48.07215" lon="-4.60772">
        <ele>35</ele>
        <time>2011-04-18T12:20:48Z</time>
      </trkpt>
      <trkpt lat="48.07227" lon="-4.60769">
        <ele>35</ele>
        <time>2011-04-18T12:21:03Z</time>
      </trkpt>
      <trkpt lat="48.07236" lon="-4.60759">
        <ele>36</ele>
        <time>2011-04-18T12:21:17Z</time>
      </trkpt>
      <trkpt lat="48.0725" lon="-4.60752">
        <ele>37</ele>
        <time>2011-04-18T12:21:31Z</time>
      </trkpt>
      <trkpt lat="48.07262" lon="-4.60745">
        <ele>38</ele>
        <time>2011-04-18T12:21:51Z</time>
      </trkpt>
      <trkpt lat="48.07274" lon="-4.60741">
        <ele>37</ele>
        <time>2011-04-18T12:22:07Z</time>
      </trkpt>
      <trkpt lat="48.07279" lon="-4.60741">
        <ele>37</ele>
        <time>2011-04-18T12:22:19Z</time>
      </trkpt>
      <trkpt lat="48.07277" lon="-4.60742">
        <ele>37</ele>
        <time>2011-04-18T12:22:41Z</time>
      </trkpt>
      <trkpt lat="48.07277" lon="-4.60738">
        <ele>37</ele>
        <time>2011-04-18T12:22:55Z</time>
      </trkpt>
      <trkpt lat="48.07281" lon="-4.60731">
        <ele>37</ele>
        <time>2011-04-18T12:23:01Z</time>
      </trkpt>
      <trkpt lat="48.07284" lon="-4.60721">
        <ele>38</ele>
        <time>2011-04-18T12:23:11Z</time>
      </trkpt>
      <trkpt lat="48.07298" lon="-4.60705">
        <ele>38</ele>
        <time>2011-04-18T12:23:29Z</time>
      </trkpt>
      <trkpt lat="48.07302" lon="-4.60697">
        <ele>39</ele>
        <time>2011-04-18T12:23:50Z</time>
      </trkpt>
      <trkpt lat="48.07304" lon="-4.60698">
        <ele>39</ele>
        <time>2011-04-18T12:24:22Z</time>
      </trkpt>
      <trkpt lat="48.07307" lon="-4.60698">
        <ele>39</ele>
        <time>2011-04-18T12:24:47Z</time>
      </trkpt>
      <trkpt lat="48.07307" lon="-4.60698">
        <ele>39</ele>
        <time>2011-04-18T12:25:40Z</time>
      </trkpt>
      <trkpt lat="48.07308" lon="-4.60697">
        <ele>39</ele>
        <time>2011-04-18T12:25:42Z</time>
      </trkpt>
      <trkpt lat="48.07323" lon="-4.60688">
        <ele>39</ele>
        <time>2011-04-18T12:25:56Z</time>
      </trkpt>
      <trkpt lat="48.0733" lon="-4.6068">
        <ele>41</ele>
        <time>2011-04-18T12:26:03Z</time>
      </trkpt>
      <trkpt lat="48.07331" lon="-4.60678">
        <ele>41</ele>
        <time>2011-04-18T12:26:05Z</time>
      </trkpt>
      <trkpt lat="48.0734" lon="-4.60671">
        <ele>37</ele>
        <time>2011-04-18T12:26:13Z</time>
      </trkpt>
      <trkpt lat="48.07348" lon="-4.60659">
        <ele>39</ele>
        <time>2011-04-18T12:26:23Z</time>
      </trkpt>
      <trkpt lat="48.07351" lon="-4.6064">
        <ele>38</ele>
        <time>2011-04-18T12:26:32Z</time>
      </trkpt>
      <trkpt lat="48.07352" lon="-4.60623">
        <ele>39</ele>
        <time>2011-04-18T12:26:41Z</time>
      </trkpt>
      <trkpt lat="48.07366" lon="-4.60604">
        <ele>39</ele>
        <time>2011-04-18T12:26:56Z</time>
      </trkpt>
      <trkpt lat="48.07376" lon="-4.60597">
        <ele>37</ele>
        <time>2011-04-18T12:27:06Z</time>
      </trkpt>
      <trkpt lat="48.0738" lon="-4.60594">
        <ele>36</ele>
        <time>2011-04-18T12:27:09Z</time>
      </trkpt>
      <trkpt lat="48.07384" lon="-4.6059">
        <ele>35</ele>
        <time>2011-04-18T12:27:13Z</time>
      </trkpt>
      <trkpt lat="48.07387" lon="-4.60583">
        <ele>43</ele>
        <time>2011-04-18T12:27:18Z</time>
      </trkpt>
      <trkpt lat="48.07388" lon="-4.60574">
        <ele>43</ele>
        <time>2011-04-18T12:27:23Z</time>
      </trkpt>
      <trkpt lat="48.07384" lon="-4.60556">
        <ele>46</ele>
        <time>2011-04-18T12:27:37Z</time>
      </trkpt>
      <trkpt lat="48.0738" lon="-4.60536">
        <ele>48</ele>
        <time>2011-04-18T12:27:52Z</time>
      </trkpt>
      <trkpt lat="48.07375" lon="-4.60516">
        <ele>51</ele>
        <time>2011-04-18T12:28:10Z</time>
      </trkpt>
      <trkpt lat="48.07373" lon="-4.60506">
        <ele>51</ele>
        <time>2011-04-18T12:28:22Z</time>
      </trkpt>
      <trkpt lat="48.07368" lon="-4.60487">
        <ele>59</ele>
        <time>2011-04-18T12:28:37Z</time>
      </trkpt>
      <trkpt lat="48.07365" lon="-4.60464">
        <ele>60</ele>
        <time>2011-04-18T12:28:55Z</time>
      </trkpt>
      <trkpt lat="48.07367" lon="-4.60458">
        <ele>60</ele>
        <time>2011-04-18T12:29:02Z</time>
      </trkpt>
      <trkpt lat="48.07375" lon="-4.60437">
        <ele>60</ele>
        <time>2011-04-18T12:29:16Z</time>
      </trkpt>
      <trkpt lat="48.07378" lon="-4.60429">
        <ele>60</ele>
        <time>2011-04-18T12:29:21Z</time>
      </trkpt>
      <trkpt lat="48.0738" lon="-4.60424">
        <ele>60</ele>
        <time>2011-04-18T12:29:24Z</time>
      </trkpt>
      <trkpt lat="48.07387" lon="-4.60402">
        <ele>65</ele>
        <time>2011-04-18T12:29:37Z</time>
      </trkpt>
      <trkpt lat="48.074" lon="-4.60388">
        <ele>66</ele>
        <time>2011-04-18T12:29:51Z</time>
      </trkpt>
      <trkpt lat="48.07406" lon="-4.60386">
        <ele>66</ele>
        <time>2011-04-18T12:29:57Z</time>
      </trkpt>
      <trkpt lat="48.07425" lon="-4.60374">
        <ele>57</ele>
        <time>2011-04-18T12:30:20Z</time>
      </trkpt>
      <trkpt lat="48.07436" lon="-4.60364">
        <ele>57</ele>
        <time>2011-04-18T12:30:40Z</time>
      </trkpt>
      <trkpt lat="48.07447" lon="-4.60355">
        <ele>57</ele>
        <time>2011-04-18T12:31:02Z</time>
      </trkpt>
      <trkpt lat="48.0745" lon="-4.60344">
        <ele>57</ele>
        <time>2011-04-18T12:31:13Z</time>
      </trkpt>
      <trkpt lat="48.07448" lon="-4.60334">
        <ele>58</ele>
        <time>2011-04-18T12:31:22Z</time>
      </trkpt>
      <trkpt lat="48.0745" lon="-4.60326">
        <ele>60</ele>
        <time>2011-04-18T12:31:28Z</time>
      </trkpt>
      <trkpt lat="48.07446" lon="-4.60294">
        <ele>60</ele>
        <time>2011-04-18T12:31:47Z</time>
      </trkpt>
      <trkpt lat="48.07446" lon="-4.60289">
        <ele>60</ele>
        <time>2011-04-18T12:31:50Z</time>
      </trkpt>
      <trkpt lat="48.07442" lon="-4.60277">
        <ele>61</ele>
        <time>2011-04-18T12:31:57Z</time>
      </trkpt>
      <trkpt lat="48.07438" lon="-4.60238">
        <ele>63</ele>
        <time>2011-04-18T12:32:18Z</time>
      </trkpt>
      <trkpt lat="48.07437" lon="-4.60209">
        <ele>60</ele>
        <time>2011-04-18T12:32:36Z</time>
      </trkpt>
      <trkpt lat="48.07436" lon="-4.60205">
        <ele>61</ele>
        <time>2011-04-18T12:32:39Z</time>
      </trkpt>
      <trkpt lat="48.07434" lon="-4.60174">
        <ele>65</ele>
        <time>2011-04-18T12:32:57Z</time>
      </trkpt>
      <trkpt lat="48.07444" lon="-4.60139">
        <ele>60</ele>
        <time>2011-04-18T12:33:18Z</time>
      </trkpt>
      <trkpt lat="48.07445" lon="-4.60129">
        <ele>59</ele>
        <time>2011-04-18T12:33:24Z</time>
      </trkpt>
      <trkpt lat="48.07449" lon="-4.6011">
        <ele>59</ele>
        <time>2011-04-18T12:33:36Z</time>
      </trkpt>
      <trkpt lat="48.07453" lon="-4.60101">
        <ele>58</ele>
        <time>2011-04-18T12:33:44Z</time>
      </trkpt>
      <trkpt lat="48.07455" lon="-4.60079">
        <ele>56</ele>
        <time>2011-04-18T12:34:00Z</time>
      </trkpt>
      <trkpt lat="48.07457" lon="-4.60077">
        <ele>55</ele>
        <time>2011-04-18T12:34:02Z</time>
      </trkpt>
      <trkpt lat="48.07459" lon="-4.60062">
        <ele>54</ele>
        <time>2011-04-18T12:34:20Z</time>
      </trkpt>
      <trkpt lat="48.07464" lon="-4.60044">
        <ele>53</ele>
        <time>2011-04-18T12:34:38Z</time>
      </trkpt>
      <trkpt lat="48.07474" lon="-4.60028">
        <ele>51</ele>
        <time>2011-04-18T12:34:59Z</time>
      </trkpt>
      <trkpt lat="48.07476" lon="-4.60017">
        <ele>49</ele>
        <time>2011-04-18T12:35:18Z</time>
      </trkpt>
      <trkpt lat="48.0748" lon="-4.59989">
        <ele>46</ele>
        <time>2011-04-18T12:35:40Z</time>
      </trkpt>
      <trkpt lat="48.07486" lon="-4.59981">
        <ele>46</ele>
        <time>2011-04-18T12:35:49Z</time>
      </trkpt>
      <trkpt lat="48.07486" lon="-4.59977">
        <ele>47</ele>
        <time>2011-04-18T12:35:52Z</time>
      </trkpt>
      <trkpt lat="48.07487" lon="-4.59968">
        <ele>47</ele>
        <time>2011-04-18T12:35:56Z</time>
      </trkpt>
      <trkpt lat="48.07488" lon="-4.59958">
        <ele>48</ele>
        <time>2011-04-18T12:36:02Z</time>
      </trkpt>
      <trkpt lat="48.07495" lon="-4.5994">
        <ele>47</ele>
        <time>2011-04-18T12:36:20Z</time>
      </trkpt>
      <trkpt lat="48.07495" lon="-4.59938">
        <ele>47</ele>
        <time>2011-04-18T12:36:21Z</time>
      </trkpt>
      <trkpt lat="48.07501" lon="-4.59928">
        <ele>38</ele>
        <time>2011-04-18T12:36:34Z</time>
      </trkpt>
      <trkpt lat="48.07502" lon="-4.59907">
        <ele>42</ele>
        <time>2011-04-18T12:37:00Z</time>
      </trkpt>
      <trkpt lat="48.07502" lon="-4.59898">
        <ele>42</ele>
        <time>2011-04-18T12:37:20Z</time>
      </trkpt>
      <trkpt lat="48.07497" lon="-4.59889">
        <ele>52</ele>
        <time>2011-04-18T12:37:39Z</time>
      </trkpt>
      <trkpt lat="48.07498" lon="-4.59876">
        <ele>54</ele>
        <time>2011-04-18T12:38:05Z</time>
      </trkpt>
      <trkpt lat="48.07494" lon="-4.59865">
        <ele>55</ele>
        <time>2011-04-18T12:38:23Z</time>
      </trkpt>
      <trkpt lat="48.07492" lon="-4.59848">
        <ele>57</ele>
        <time>2011-04-18T12:38:46Z</time>
      </trkpt>
      <trkpt lat="48.07487" lon="-4.59829">
        <ele>61</ele>
        <time>2011-04-18T12:39:08Z</time>
      </trkpt>
      <trkpt lat="48.07489" lon="-4.59808">
        <ele>62</ele>
        <time>2011-04-18T12:39:32Z</time>
      </trkpt>
      <trkpt lat="48.07489" lon="-4.59789">
        <ele>62</ele>
        <time>2011-04-18T12:39:49Z</time>
      </trkpt>
      <trkpt lat="48.07484" lon="-4.59771">
        <ele>63</ele>
        <time>2011-04-18T12:40:09Z</time>
      </trkpt>
      <trkpt lat="48.07485" lon="-4.59772">
        <ele>63</ele>
        <time>2011-04-18T12:41:45Z</time>
      </trkpt>
      <trkpt lat="48.07485" lon="-4.5977">
        <ele>63</ele>
        <time>2011-04-18T12:42:41Z</time>
      </trkpt>
      <trkpt lat="48.07485" lon="-4.5977">
        <ele>63</ele>
        <time>2011-04-18T12:44:03Z</time>
      </trkpt>
      <trkpt lat="48.0748" lon="-4.59763">
        <ele>63</ele>
        <time>2011-04-18T12:44:27Z</time>
      </trkpt>
      <trkpt lat="48.0748" lon="-4.59765">
        <ele>63</ele>
        <time>2011-04-18T12:45:56Z</time>
      </trkpt>
      <trkpt lat="48.07473" lon="-4.59759">
        <ele>63</ele>
        <time>2011-04-18T12:46:25Z</time>
      </trkpt>
      <trkpt lat="48.07458" lon="-4.59743">
        <ele>65</ele>
        <time>2011-04-18T12:46:42Z</time>
      </trkpt>
      <trkpt lat="48.07437" lon="-4.59728">
        <ele>66</ele>
        <time>2011-04-18T12:47:02Z</time>
      </trkpt>
      <trkpt lat="48.07414" lon="-4.59714">
        <ele>69</ele>
        <time>2011-04-18T12:47:22Z</time>
      </trkpt>
      <trkpt lat="48.07398" lon="-4.59695">
        <ele>70</ele>
        <time>2011-04-18T12:47:40Z</time>
      </trkpt>
      <trkpt lat="48.07397" lon="-4.59694">
        <ele>70</ele>
        <time>2011-04-18T12:47:41Z</time>
      </trkpt>
      <trkpt lat="48.07393" lon="-4.59689">
        <ele>70</ele>
        <time>2011-04-18T12:48:01Z</time>
      </trkpt>
      <trkpt lat="48.07376" lon="-4.5968">
        <ele>70</ele>
        <time>2011-04-18T12:48:24Z</time>
      </trkpt>
      <trkpt lat="48.07373" lon="-4.59672">
        <ele>70</ele>
        <time>2011-04-18T12:48:40Z</time>
      </trkpt>
      <trkpt lat="48.07373" lon="-4.59672">
        <ele>70</ele>
        <time>2011-04-18T12:48:43Z</time>
      </trkpt>
      <trkpt lat="48.07373" lon="-4.59656">
        <ele>71</ele>
        <time>2011-04-18T12:48:51Z</time>
      </trkpt>
      <trkpt lat="48.07367" lon="-4.59639">
        <ele>71</ele>
        <time>2011-04-18T12:49:01Z</time>
      </trkpt>
      <trkpt lat="48.07368" lon="-4.59624">
        <ele>71</ele>
        <time>2011-04-18T12:49:09Z</time>
      </trkpt>
      <trkpt lat="48.07374" lon="-4.59598">
        <ele>71</ele>
        <time>2011-04-18T12:49:26Z</time>
      </trkpt>
      <trkpt lat="48.07377" lon="-4.59591">
        <ele>70</ele>
        <time>2011-04-18T12:49:30Z</time>
      </trkpt>
      <trkpt lat="48.07382" lon="-4.59579">
        <ele>69</ele>
        <time>2011-04-18T12:49:37Z</time>
      </trkpt>
      <trkpt lat="48.07384" lon="-4.5957">
        <ele>69</ele>
        <time>2011-04-18T12:49:42Z</time>
      </trkpt>
      <trkpt lat="48.07383" lon="-4.59556">
        <ele>68</ele>
        <time>2011-04-18T12:49:47Z</time>
      </trkpt>
      <trkpt lat="48.07387" lon="-4.59546">
        <ele>68</ele>
        <time>2011-04-18T12:49:52Z</time>
      </trkpt>
      <trkpt lat="48.07389" lon="-4.59535">
        <ele>67</ele>
        <time>2011-04-18T12:50:00Z</time>
      </trkpt>
      <trkpt lat="48.07365" lon="-4.59515">
        <ele>68</ele>
        <time>2011-04-18T12:50:21Z</time>
      </trkpt>
      <trkpt lat="48.07347" lon="-4.59491">
        <ele>65</ele>
        <time>2011-04-18T12:50:44Z</time>
      </trkpt>
      <trkpt lat="48.0735" lon="-4.59452">
        <ele>62</ele>
        <time>2011-04-18T12:51:04Z</time>
      </trkpt>
      <trkpt lat="48.07347" lon="-4.59411">
        <ele>58</ele>
        <time>2011-04-18T12:51:26Z</time>
      </trkpt>
      <trkpt lat="48.07345" lon="-4.59368">
        <ele>52</ele>
        <time>2011-04-18T12:51:50Z</time>
      </trkpt>
      <trkpt lat="48.07343" lon="-4.59335">
        <ele>56</ele>
        <time>2011-04-18T12:52:08Z</time>
      </trkpt>
      <trkpt lat="48.07347" lon="-4.59296">
        <ele>43</ele>
        <time>2011-04-18T12:52:30Z</time>
      </trkpt>
      <trkpt lat="48.0735" lon="-4.59275">
        <ele>43</ele>
        <time>2011-04-18T12:52:45Z</time>
      </trkpt>
      <trkpt lat="48.07352" lon="-4.59248">
        <ele>41</ele>
        <time>2011-04-18T12:53:00Z</time>
      </trkpt>
      <trkpt lat="48.07357" lon="-4.59226">
        <ele>36</ele>
        <time>2011-04-18T12:53:18Z</time>
      </trkpt>
      <trkpt lat="48.07343" lon="-4.59227">
        <ele>40</ele>
        <time>2011-04-18T12:53:33Z</time>
      </trkpt>
      <trkpt lat="48.07343" lon="-4.59225">
        <ele>40</ele>
        <time>2011-04-18T12:53:35Z</time>
      </trkpt>
      <trkpt lat="48.07328" lon="-4.59212">
        <ele>55</ele>
        <time>2011-04-18T12:53:53Z</time>
      </trkpt>
      <trkpt lat="48.07322" lon="-4.59208">
        <ele>56</ele>
        <time>2011-04-18T12:54:13Z</time>
      </trkpt>
      <trkpt lat="48.07324" lon="-4.59199">
        <ele>55</ele>
        <time>2011-04-18T12:54:32Z</time>
      </trkpt>
      <trkpt lat="48.07324" lon="-4.59199">
        <ele>55</ele>
        <time>2011-04-18T12:54:33Z</time>
      </trkpt>
      <trkpt lat="48.07324" lon="-4.59192">
        <ele>54</ele>
        <time>2011-04-18T12:54:37Z</time>
      </trkpt>
      <trkpt lat="48.07324" lon="-4.59186">
        <ele>53</ele>
        <time>2011-04-18T12:54:40Z</time>
      </trkpt>
      <trkpt lat="48.07322" lon="-4.59177">
        <ele>52</ele>
        <time>2011-04-18T12:54:44Z</time>
      </trkpt>
      <trkpt lat="48.07302" lon="-4.5914">
        <ele>54</ele>
        <time>2011-04-18T12:55:05Z</time>
      </trkpt>
      <trkpt lat="48.07288" lon="-4.59096">
        <ele>56</ele>
        <time>2011-04-18T12:55:29Z</time>
      </trkpt>
      <trkpt lat="48.07278" lon="-4.59058">
        <ele>58</ele>
        <time>2011-04-18T12:55:52Z</time>
      </trkpt>
      <trkpt lat="48.07274" lon="-4.59052">
        <ele>58</ele>
        <time>2011-04-18T12:55:58Z</time>
      </trkpt>
      <trkpt lat="48.07263" lon="-4.59024">
        <ele>59</ele>
        <time>2011-04-18T12:56:16Z</time>
      </trkpt>
      <trkpt lat="48.07262" lon="-4.59022">
        <ele>59</ele>
        <time>2011-04-18T12:56:18Z</time>
      </trkpt>
      <trkpt lat="48.07266" lon="-4.59009">
        <ele>59</ele>
        <time>2011-04-18T12:56:33Z</time>
      </trkpt>
      <trkpt lat="48.07267" lon="-4.59009">
        <ele>59</ele>
        <time>2011-04-18T12:56:34Z</time>
      </trkpt>
      <trkpt lat="48.07276" lon="-4.59021">
        <ele>59</ele>
        <time>2011-04-18T12:56:45Z</time>
      </trkpt>
      <trkpt lat="48.07277" lon="-4.59025">
        <ele>58</ele>
        <time>2011-04-18T12:56:47Z</time>
      </trkpt>
      <trkpt lat="48.07279" lon="-4.59028">
        <ele>58</ele>
        <time>2011-04-18T12:56:50Z</time>
      </trkpt>
      <trkpt lat="48.07288" lon="-4.59031">
        <ele>58</ele>
        <time>2011-04-18T12:56:59Z</time>
      </trkpt>
      <trkpt lat="48.07291" lon="-4.59031">
        <ele>58</ele>
        <time>2011-04-18T12:57:02Z</time>
      </trkpt>
      <trkpt lat="48.07296" lon="-4.59032">
        <ele>58</ele>
        <time>2011-04-18T12:57:18Z</time>
      </trkpt>
      <trkpt lat="48.07303" lon="-4.59037">
        <ele>57</ele>
        <time>2011-04-18T12:57:41Z</time>
      </trkpt>
      <trkpt lat="48.07318" lon="-4.59041">
        <ele>57</ele>
        <time>2011-04-18T12:57:57Z</time>
      </trkpt>
      <trkpt lat="48.07329" lon="-4.59038">
        <ele>57</ele>
        <time>2011-04-18T12:58:14Z</time>
      </trkpt>
      <trkpt lat="48.07343" lon="-4.59038">
        <ele>50</ele>
        <time>2011-04-18T12:58:30Z</time>
      </trkpt>
      <trkpt lat="48.0735" lon="-4.59032">
        <ele>50</ele>
        <time>2011-04-18T12:58:39Z</time>
      </trkpt>
      <trkpt lat="48.07359" lon="-4.59004">
        <ele>53</ele>
        <time>2011-04-18T12:58:58Z</time>
      </trkpt>
      <trkpt lat="48.07359" lon="-4.5899">
        <ele>61</ele>
        <time>2011-04-18T12:59:05Z</time>
      </trkpt>
      <trkpt lat="48.0736" lon="-4.58987">
        <ele>61</ele>
        <time>2011-04-18T12:59:08Z</time>
      </trkpt>
      <trkpt lat="48.07366" lon="-4.58981">
        <ele>61</ele>
        <time>2011-04-18T12:59:14Z</time>
      </trkpt>
      <trkpt lat="48.07381" lon="-4.5895">
        <ele>62</ele>
        <time>2011-04-18T12:59:37Z</time>
      </trkpt>
      <trkpt lat="48.07392" lon="-4.58945">
        <ele>62</ele>
        <time>2011-04-18T12:59:47Z</time>
      </trkpt>
      <trkpt lat="48.07407" lon="-4.58941">
        <ele>62</ele>
        <time>2011-04-18T13:00:01Z</time>
      </trkpt>
      <trkpt lat="48.07436" lon="-4.58936">
        <ele>60</ele>
        <time>2011-04-18T13:00:23Z</time>
      </trkpt>
      <trkpt lat="48.07443" lon="-4.58933">
        <ele>60</ele>
        <time>2011-04-18T13:00:29Z</time>
      </trkpt>
      <trkpt lat="48.07466" lon="-4.58929">
        <ele>60</ele>
        <time>2011-04-18T13:00:49Z</time>
      </trkpt>
      <trkpt lat="48.07481" lon="-4.58924">
        <ele>62</ele>
        <time>2011-04-18T13:01:04Z</time>
      </trkpt>
      <trkpt lat="48.07486" lon="-4.58923">
        <ele>62</ele>
        <time>2011-04-18T13:01:09Z</time>
      </trkpt>
      <trkpt lat="48.07502" lon="-4.58919">
        <ele>64</ele>
        <time>2011-04-18T13:01:24Z</time>
      </trkpt>
      <trkpt lat="48.07516" lon="-4.58914">
        <ele>66</ele>
        <time>2011-04-18T13:01:36Z</time>
      </trkpt>
      <trkpt lat="48.07538" lon="-4.58893">
        <ele>66</ele>
        <time>2011-04-18T13:01:57Z</time>
      </trkpt>
      <trkpt lat="48.07541" lon="-4.58891">
        <ele>66</ele>
        <time>2011-04-18T13:01:59Z</time>
      </trkpt>
      <trkpt lat="48.07544" lon="-4.58886">
        <ele>67</ele>
        <time>2011-04-18T13:02:03Z</time>
      </trkpt>
      <trkpt lat="48.07555" lon="-4.5887">
        <ele>67</ele>
        <time>2011-04-18T13:02:14Z</time>
      </trkpt>
      <trkpt lat="48.07576" lon="-4.58848">
        <ele>67</ele>
        <time>2011-04-18T13:02:33Z</time>
      </trkpt>
      <trkpt lat="48.07593" lon="-4.58822">
        <ele>67</ele>
        <time>2011-04-18T13:02:51Z</time>
      </trkpt>
      <trkpt lat="48.07598" lon="-4.5881">
        <ele>66</ele>
        <time>2011-04-18T13:03:00Z</time>
      </trkpt>
      <trkpt lat="48.07604" lon="-4.58797">
        <ele>66</ele>
        <time>2011-04-18T13:03:13Z</time>
      </trkpt>
      <trkpt lat="48.07621" lon="-4.58764">
        <ele>66</ele>
        <time>2011-04-18T13:03:36Z</time>
      </trkpt>
      <trkpt lat="48.0763" lon="-4.58746">
        <ele>66</ele>
        <time>2011-04-18T13:03:50Z</time>
      </trkpt>
      <trkpt lat="48.0765" lon="-4.5871">
        <ele>65</ele>
        <time>2011-04-18T13:04:13Z</time>
      </trkpt>
      <trkpt lat="48.07656" lon="-4.58696">
        <ele>65</ele>
        <time>2011-04-18T13:04:30Z</time>
      </trkpt>
      <trkpt lat="48.07674" lon="-4.58676">
        <ele>62</ele>
        <time>2011-04-18T13:04:46Z</time>
      </trkpt>
      <trkpt lat="48.077" lon="-4.58657">
        <ele>62</ele>
        <time>2011-04-18T13:05:09Z</time>
      </trkpt>
      <trkpt lat="48.07716" lon="-4.58636">
        <ele>62</ele>
        <time>2011-04-18T13:05:28Z</time>
      </trkpt>
      <trkpt lat="48.07734" lon="-4.58607">
        <ele>62</ele>
        <time>2011-04-18T13:05:54Z</time>
      </trkpt>
      <trkpt lat="48.07734" lon="-4.58607">
        <ele>62</ele>
        <time>2011-04-18T13:06:08Z</time>
      </trkpt>
      <trkpt lat="48.07733" lon="-4.58593">
        <ele>62</ele>
        <time>2011-04-18T13:06:42Z</time>
      </trkpt>
      <trkpt lat="48.07732" lon="-4.58592">
        <ele>62</ele>
        <time>2011-04-18T13:07:49Z</time>
      </trkpt>
      <trkpt lat="48.07732" lon="-4.58592">
        <ele>62</ele>
        <time>2011-04-18T13:09:06Z</time>
      </trkpt>
      <trkpt lat="48.0773" lon="-4.58588">
        <ele>62</ele>
        <time>2011-04-18T13:09:56Z</time>
      </trkpt>
      <trkpt lat="48.07731" lon="-4.58589">
        <ele>62</ele>
        <time>2011-04-18T13:10:19Z</time>
      </trkpt>
      <trkpt lat="48.07732" lon="-4.58589">
        <ele>62</ele>
        <time>2011-04-18T13:10:41Z</time>
      </trkpt>
      <trkpt lat="48.07729" lon="-4.58588">
        <ele>62</ele>
        <time>2011-04-18T13:10:57Z</time>
      </trkpt>
      <trkpt lat="48.0773" lon="-4.58587">
        <ele>62</ele>
        <time>2011-04-18T13:11:32Z</time>
      </trkpt>
      <trkpt lat="48.07734" lon="-4.58593">
        <ele>62</ele>
        <time>2011-04-18T13:11:48Z</time>
      </trkpt>
      <trkpt lat="48.07733" lon="-4.58592">
        <ele>62</ele>
        <time>2011-04-18T13:11:57Z</time>
      </trkpt>
      <trkpt lat="48.07729" lon="-4.58587">
        <ele>62</ele>
        <time>2011-04-18T13:12:13Z</time>
      </trkpt>
      <trkpt lat="48.07729" lon="-4.58589">
        <ele>62</ele>
        <time>2011-04-18T13:12:21Z</time>
      </trkpt>
      <trkpt lat="48.07731" lon="-4.58603">
        <ele>62</ele>
        <time>2011-04-18T13:12:29Z</time>
      </trkpt>
      <trkpt lat="48.0774" lon="-4.58612">
        <ele>62</ele>
        <time>2011-04-18T13:12:42Z</time>
      </trkpt>
      <trkpt lat="48.0775" lon="-4.58611">
        <ele>56</ele>
        <time>2011-04-18T13:13:02Z</time>
      </trkpt>
      <trkpt lat="48.07757" lon="-4.58611">
        <ele>56</ele>
        <time>2011-04-18T13:13:09Z</time>
      </trkpt>
      <trkpt lat="48.07779" lon="-4.58605">
        <ele>55</ele>
        <time>2011-04-18T13:13:25Z</time>
      </trkpt>
      <trkpt lat="48.07792" lon="-4.58604">
        <ele>53</ele>
        <time>2011-04-18T13:13:36Z</time>
      </trkpt>
      <trkpt lat="48.07794" lon="-4.58605">
        <ele>53</ele>
        <time>2011-04-18T13:13:37Z</time>
      </trkpt>
      <trkpt lat="48.07804" lon="-4.58604">
        <ele>53</ele>
        <time>2011-04-18T13:13:50Z</time>
      </trkpt>
      <trkpt lat="48.07817" lon="-4.5859">
        <ele>53</ele>
        <time>2011-04-18T13:14:03Z</time>
      </trkpt>
      <trkpt lat="48.0784" lon="-4.58584">
        <ele>50</ele>
        <time>2011-04-18T13:14:21Z</time>
      </trkpt>
      <trkpt lat="48.07863" lon="-4.5858">
        <ele>51</ele>
        <time>2011-04-18T13:14:37Z</time>
      </trkpt>
      <trkpt lat="48.0788" lon="-4.58575">
        <ele>50</ele>
        <time>2011-04-18T13:14:50Z</time>
      </trkpt>
      <trkpt lat="48.07896" lon="-4.58568">
        <ele>49</ele>
        <time>2011-04-18T13:15:02Z</time>
      </trkpt>
      <trkpt lat="48.07909" lon="-4.58555">
        <ele>49</ele>
        <time>2011-04-18T13:15:15Z</time>
      </trkpt>
      <trkpt lat="48.07916" lon="-4.58549">
        <ele>49</ele>
        <time>2011-04-18T13:15:21Z</time>
      </trkpt>
      <trkpt lat="48.07929" lon="-4.5855">
        <ele>36</ele>
        <time>2011-04-18T13:15:37Z</time>
      </trkpt>
      <trkpt lat="48.07943" lon="-4.5855">
        <ele>34</ele>
        <time>2011-04-18T13:15:52Z</time>
      </trkpt>
      <trkpt lat="48.07944" lon="-4.5855">
        <ele>33</ele>
        <time>2011-04-18T13:15:53Z</time>
      </trkpt>
      <trkpt lat="48.07959" lon="-4.58553">
        <ele>31</ele>
        <time>2011-04-18T13:16:08Z</time>
      </trkpt>
      <trkpt lat="48.07971" lon="-4.58558">
        <ele>28</ele>
        <time>2011-04-18T13:16:23Z</time>
      </trkpt>
      <trkpt lat="48.07975" lon="-4.5856">
        <ele>27</ele>
        <time>2011-04-18T13:16:27Z</time>
      </trkpt>
      <trkpt lat="48.07988" lon="-4.58564">
        <ele>24</ele>
        <time>2011-04-18T13:16:43Z</time>
      </trkpt>
      <trkpt lat="48.0799" lon="-4.58582">
        <ele>21</ele>
        <time>2011-04-18T13:17:00Z</time>
      </trkpt>
      <trkpt lat="48.07988" lon="-4.58589">
        <ele>20</ele>
        <time>2011-04-18T13:17:17Z</time>
      </trkpt>
      <trkpt lat="48.07987" lon="-4.58604">
        <ele>22</ele>
        <time>2011-04-18T13:17:39Z</time>
      </trkpt>
      <trkpt lat="48.07982" lon="-4.58605">
        <ele>23</ele>
        <time>2011-04-18T13:18:57Z</time>
      </trkpt>
      <trkpt lat="48.07972" lon="-4.58612">
        <ele>24</ele>
        <time>2011-04-18T13:19:08Z</time>
      </trkpt>
      <trkpt lat="48.07962" lon="-4.58619">
        <ele>26</ele>
        <time>2011-04-18T13:19:17Z</time>
      </trkpt>
      <trkpt lat="48.07949" lon="-4.58629">
        <ele>28</ele>
        <time>2011-04-18T13:19:30Z</time>
      </trkpt>
      <trkpt lat="48.07948" lon="-4.5863">
        <ele>28</ele>
        <time>2011-04-18T13:19:32Z</time>
      </trkpt>
      <trkpt lat="48.07944" lon="-4.58633">
        <ele>28</ele>
        <time>2011-04-18T13:19:36Z</time>
      </trkpt>
      <trkpt lat="48.07936" lon="-4.5865">
        <ele>29</ele>
        <time>2011-04-18T13:19:49Z</time>
      </trkpt>
      <trkpt lat="48.07932" lon="-4.58665">
        <ele>31</ele>
        <time>2011-04-18T13:20:01Z</time>
      </trkpt>
      <trkpt lat="48.07927" lon="-4.58675">
        <ele>29</ele>
        <time>2011-04-18T13:20:11Z</time>
      </trkpt>
      <trkpt lat="48.07921" lon="-4.58685">
        <ele>27</ele>
        <time>2011-04-18T13:20:27Z</time>
      </trkpt>
      <trkpt lat="48.07921" lon="-4.5868">
        <ele>29</ele>
        <time>2011-04-18T13:21:03Z</time>
      </trkpt>
      <trkpt lat="48.07921" lon="-4.58674">
        <ele>31</ele>
        <time>2011-04-18T13:21:43Z</time>
      </trkpt>
      <trkpt lat="48.07917" lon="-4.58673">
        <ele>32</ele>
        <time>2011-04-18T13:22:13Z</time>
      </trkpt>
      <trkpt lat="48.07907" lon="-4.58664">
        <ele>37</ele>
        <time>2011-04-18T13:22:25Z</time>
      </trkpt>
      <trkpt lat="48.07907" lon="-4.58663">
        <ele>37</ele>
        <time>2011-04-18T13:22:26Z</time>
      </trkpt>
      <trkpt lat="48.07905" lon="-4.58661">
        <ele>38</ele>
        <time>2011-04-18T13:22:28Z</time>
      </trkpt>
      <trkpt lat="48.07902" lon="-4.5866">
        <ele>38</ele>
        <time>2011-04-18T13:22:31Z</time>
      </trkpt>
      <trkpt lat="48.07885" lon="-4.58658">
        <ele>40</ele>
        <time>2011-04-18T13:22:47Z</time>
      </trkpt>
      <trkpt lat="48.07871" lon="-4.58647">
        <ele>41</ele>
        <time>2011-04-18T13:22:58Z</time>
      </trkpt>
      <trkpt lat="48.07865" lon="-4.58641">
        <ele>41</ele>
        <time>2011-04-18T13:23:03Z</time>
      </trkpt>
      <trkpt lat="48.07861" lon="-4.58637">
        <ele>42</ele>
        <time>2011-04-18T13:23:06Z</time>
      </trkpt>
      <trkpt lat="48.07857" lon="-4.58637">
        <ele>42</ele>
        <time>2011-04-18T13:23:10Z</time>
      </trkpt>
      <trkpt lat="48.07854" lon="-4.58635">
        <ele>42</ele>
        <time>2011-04-18T13:23:13Z</time>
      </trkpt>
      <trkpt lat="48.0785" lon="-4.58635">
        <ele>42</ele>
        <time>2011-04-18T13:23:15Z</time>
      </trkpt>
      <trkpt lat="48.07847" lon="-4.58634">
        <ele>42</ele>
        <time>2011-04-18T13:23:19Z</time>
      </trkpt>
      <trkpt lat="48.07844" lon="-4.58634">
        <ele>42</ele>
        <time>2011-04-18T13:23:22Z</time>
      </trkpt>
      <trkpt lat="48.07831" lon="-4.58624">
        <ele>50</ele>
        <time>2011-04-18T13:23:39Z</time>
      </trkpt>
      <trkpt lat="48.07819" lon="-4.58618">
        <ele>51</ele>
        <time>2011-04-18T13:23:51Z</time>
      </trkpt>
      <trkpt lat="48.07811" lon="-4.58616">
        <ele>51</ele>
        <time>2011-04-18T13:24:00Z</time>
      </trkpt>
      <trkpt lat="48.07804" lon="-4.58611">
        <ele>52</ele>
        <time>2011-04-18T13:24:07Z</time>
      </trkpt>
      <trkpt lat="48.07802" lon="-4.58607">
        <ele>53</ele>
        <time>2011-04-18T13:24:10Z</time>
      </trkpt>
      <trkpt lat="48.07801" lon="-4.58606">
        <ele>53</ele>
        <time>2011-04-18T13:24:12Z</time>
      </trkpt>
      <trkpt lat="48.07791" lon="-4.58611">
        <ele>53</ele>
        <time>2011-04-18T13:24:22Z</time>
      </trkpt>
      <trkpt lat="48.07785" lon="-4.58611">
        <ele>54</ele>
        <time>2011-04-18T13:24:26Z</time>
      </trkpt>
      <trkpt lat="48.07783" lon="-4.58612">
        <ele>54</ele>
        <time>2011-04-18T13:24:28Z</time>
      </trkpt>
      <trkpt lat="48.07777" lon="-4.58613">
        <ele>54</ele>
        <time>2011-04-18T13:24:33Z</time>
      </trkpt>
      <trkpt lat="48.07764" lon="-4.58614">
        <ele>55</ele>
        <time>2011-04-18T13:24:45Z</time>
      </trkpt>
      <trkpt lat="48.07757" lon="-4.58612">
        <ele>56</ele>
        <time>2011-04-18T13:24:50Z</time>
      </trkpt>
      <trkpt lat="48.07744" lon="-4.58614">
        <ele>61</ele>
        <time>2011-04-18T13:25:03Z</time>
      </trkpt>
      <trkpt lat="48.07741" lon="-4.58612">
        <ele>62</ele>
        <time>2011-04-18T13:25:11Z</time>
      </trkpt>
      <trkpt lat="48.07733" lon="-4.586">
        <ele>62</ele>
        <time>2011-04-18T13:25:26Z</time>
      </trkpt>
      <trkpt lat="48.07731" lon="-4.5859">
        <ele>62</ele>
        <time>2011-04-18T13:25:45Z</time>
      </trkpt>
      <trkpt lat="48.07731" lon="-4.58588">
        <ele>62</ele>
        <time>2011-04-18T13:29:49Z</time>
      </trkpt>
      <trkpt lat="48.07728" lon="-4.58582">
        <ele>63</ele>
        <time>2011-04-18T13:30:11Z</time>
      </trkpt>
      <trkpt lat="48.0773" lon="-4.58575">
        <ele>63</ele>
        <time>2011-04-18T13:30:19Z</time>
      </trkpt>
      <trkpt lat="48.07733" lon="-4.58563">
        <ele>63</ele>
        <time>2011-04-18T13:30:31Z</time>
      </trkpt>
      <trkpt lat="48.07735" lon="-4.58557">
        <ele>63</ele>
        <time>2011-04-18T13:30:35Z</time>
      </trkpt>
      <trkpt lat="48.07751" lon="-4.5853">
        <ele>61</ele>
        <time>2011-04-18T13:30:55Z</time>
      </trkpt>
      <trkpt lat="48.07753" lon="-4.58524">
        <ele>61</ele>
        <time>2011-04-18T13:30:59Z</time>
      </trkpt>
      <trkpt lat="48.07761" lon="-4.58505">
        <ele>61</ele>
        <time>2011-04-18T13:31:16Z</time>
      </trkpt>
      <trkpt lat="48.07767" lon="-4.58495">
        <ele>61</ele>
        <time>2011-04-18T13:31:25Z</time>
      </trkpt>
      <trkpt lat="48.07771" lon="-4.58482">
        <ele>61</ele>
        <time>2011-04-18T13:31:34Z</time>
      </trkpt>
      <trkpt lat="48.0777" lon="-4.58474">
        <ele>61</ele>
        <time>2011-04-18T13:31:39Z</time>
      </trkpt>
      <trkpt lat="48.07779" lon="-4.58464">
        <ele>60</ele>
        <time>2011-04-18T13:31:51Z</time>
      </trkpt>
      <trkpt lat="48.07788" lon="-4.5846">
        <ele>60</ele>
        <time>2011-04-18T13:31:59Z</time>
      </trkpt>
      <trkpt lat="48.07791" lon="-4.58457">
        <ele>60</ele>
        <time>2011-04-18T13:32:03Z</time>
      </trkpt>
      <trkpt lat="48.07794" lon="-4.58456">
        <ele>60</ele>
        <time>2011-04-18T13:32:09Z</time>
      </trkpt>
      <trkpt lat="48.07811" lon="-4.58436">
        <ele>59</ele>
        <time>2011-04-18T13:32:28Z</time>
      </trkpt>
      <trkpt lat="48.07835" lon="-4.58416">
        <ele>57</ele>
        <time>2011-04-18T13:32:51Z</time>
      </trkpt>
      <trkpt lat="48.07856" lon="-4.58397">
        <ele>52</ele>
        <time>2011-04-18T13:33:11Z</time>
      </trkpt>
      <trkpt lat="48.07876" lon="-4.58365">
        <ele>49</ele>
        <time>2011-04-18T13:33:37Z</time>
      </trkpt>
      <trkpt lat="48.07886" lon="-4.58351">
        <ele>48</ele>
        <time>2011-04-18T13:33:52Z</time>
      </trkpt>
      <trkpt lat="48.07886" lon="-4.58349">
        <ele>47</ele>
        <time>2011-04-18T13:33:53Z</time>
      </trkpt>
      <trkpt lat="48.07894" lon="-4.58339">
        <ele>46</ele>
        <time>2011-04-18T13:34:03Z</time>
      </trkpt>
      <trkpt lat="48.07897" lon="-4.58339">
        <ele>45</ele>
        <time>2011-04-18T13:34:06Z</time>
      </trkpt>
      <trkpt lat="48.07915" lon="-4.58346">
        <ele>44</ele>
        <time>2011-04-18T13:34:28Z</time>
      </trkpt>
      <trkpt lat="48.07929" lon="-4.58349">
        <ele>34</ele>
        <time>2011-04-18T13:34:47Z</time>
      </trkpt>
      <trkpt lat="48.0794" lon="-4.5835">
        <ele>32</ele>
        <time>2011-04-18T13:35:04Z</time>
      </trkpt>
      <trkpt lat="48.07947" lon="-4.58345">
        <ele>31</ele>
        <time>2011-04-18T13:35:18Z</time>
      </trkpt>
      <trkpt lat="48.07946" lon="-4.58343">
        <ele>31</ele>
        <time>2011-04-18T13:35:20Z</time>
      </trkpt>
      <trkpt lat="48.07945" lon="-4.58341">
        <ele>32</ele>
        <time>2011-04-18T13:35:22Z</time>
      </trkpt>
      <trkpt lat="48.07941" lon="-4.5832">
        <ele>32</ele>
        <time>2011-04-18T13:35:40Z</time>
      </trkpt>
      <trkpt lat="48.07951" lon="-4.58319">
        <ele>30</ele>
        <time>2011-04-18T13:35:56Z</time>
      </trkpt>
      <trkpt lat="48.07957" lon="-4.58319">
        <ele>29</ele>
        <time>2011-04-18T13:36:06Z</time>
      </trkpt>
      <trkpt lat="48.07964" lon="-4.58311">
        <ele>28</ele>
        <time>2011-04-18T13:36:22Z</time>
      </trkpt>
      <trkpt lat="48.07967" lon="-4.58308">
        <ele>28</ele>
        <time>2011-04-18T13:36:38Z</time>
      </trkpt>
      <trkpt lat="48.07965" lon="-4.58301">
        <ele>28</ele>
        <time>2011-04-18T13:36:51Z</time>
      </trkpt>
      <trkpt lat="48.07955" lon="-4.58295">
        <ele>30</ele>
        <time>2011-04-18T13:37:06Z</time>
      </trkpt>
      <trkpt lat="48.07942" lon="-4.58287">
        <ele>32</ele>
        <time>2011-04-18T13:37:23Z</time>
      </trkpt>
      <trkpt lat="48.07938" lon="-4.5828">
        <ele>32</ele>
        <time>2011-04-18T13:37:32Z</time>
      </trkpt>
      <trkpt lat="48.07938" lon="-4.58267">
        <ele>33</ele>
        <time>2011-04-18T13:37:48Z</time>
      </trkpt>
      <trkpt lat="48.07939" lon="-4.58259">
        <ele>34</ele>
        <time>2011-04-18T13:38:02Z</time>
      </trkpt>
      <trkpt lat="48.07947" lon="-4.58257">
        <ele>32</ele>
        <time>2011-04-18T13:38:17Z</time>
      </trkpt>
      <trkpt lat="48.0795" lon="-4.5825">
        <ele>38</ele>
        <time>2011-04-18T13:38:32Z</time>
      </trkpt>
      <trkpt lat="48.0794" lon="-4.58242">
        <ele>39</ele>
        <time>2011-04-18T13:38:52Z</time>
      </trkpt>
      <trkpt lat="48.07942" lon="-4.58241">
        <ele>39</ele>
        <time>2011-04-18T13:39:03Z</time>
      </trkpt>
      <trkpt lat="48.07958" lon="-4.58236">
        <ele>38</ele>
        <time>2011-04-18T13:39:20Z</time>
      </trkpt>
      <trkpt lat="48.07981" lon="-4.5822">
        <ele>36</ele>
        <time>2011-04-18T13:39:41Z</time>
      </trkpt>
      <trkpt lat="48.07996" lon="-4.58201">
        <ele>38</ele>
        <time>2011-04-18T13:40:01Z</time>
      </trkpt>
      <trkpt lat="48.07997" lon="-4.58202">
        <ele>38</ele>
        <time>2011-04-18T13:40:13Z</time>
      </trkpt>
      <trkpt lat="48.08002" lon="-4.58198">
        <ele>30</ele>
        <time>2011-04-18T13:40:18Z</time>
      </trkpt>
      <trkpt lat="48.08004" lon="-4.5819">
        <ele>32</ele>
        <time>2011-04-18T13:40:23Z</time>
      </trkpt>
      <trkpt lat="48.08014" lon="-4.58157">
        <ele>42</ele>
        <time>2011-04-18T13:40:45Z</time>
      </trkpt>
      <trkpt lat="48.08016" lon="-4.58155">
        <ele>42</ele>
        <time>2011-04-18T13:40:47Z</time>
      </trkpt>
      <trkpt lat="48.08042" lon="-4.58149">
        <ele>40</ele>
        <time>2011-04-18T13:41:09Z</time>
      </trkpt>
      <trkpt lat="48.0807" lon="-4.58154">
        <ele>35</ele>
        <time>2011-04-18T13:41:32Z</time>
      </trkpt>
      <trkpt lat="48.08091" lon="-4.58159">
        <ele>29</ele>
        <time>2011-04-18T13:41:51Z</time>
      </trkpt>
      <trkpt lat="48.08113" lon="-4.58162">
        <ele>32</ele>
        <time>2011-04-18T13:42:09Z</time>
      </trkpt>
      <trkpt lat="48.08124" lon="-4.58167">
        <ele>21</ele>
        <time>2011-04-18T13:42:26Z</time>
      </trkpt>
      <trkpt lat="48.08133" lon="-4.58176">
        <ele>20</ele>
        <time>2011-04-18T13:42:48Z</time>
      </trkpt>
      <trkpt lat="48.08138" lon="-4.58186">
        <ele>19</ele>
        <time>2011-04-18T13:43:00Z</time>
      </trkpt>
      <trkpt lat="48.08141" lon="-4.58188">
        <ele>19</ele>
        <time>2011-04-18T13:43:18Z</time>
      </trkpt>
      <trkpt lat="48.08142" lon="-4.58189">
        <ele>19</ele>
        <time>2011-04-18T13:43:19Z</time>
      </trkpt>
      <trkpt lat="48.08154" lon="-4.58193">
        <ele>18</ele>
        <time>2011-04-18T13:43:32Z</time>
      </trkpt>
      <trkpt lat="48.08158" lon="-4.58192">
        <ele>18</ele>
        <time>2011-04-18T13:43:37Z</time>
      </trkpt>
      <trkpt lat="48.08164" lon="-4.58165">
        <ele>35</ele>
        <time>2011-04-18T13:43:53Z</time>
      </trkpt>
      <trkpt lat="48.08169" lon="-4.58131">
        <ele>29.6</ele>
        <time>2011-04-18T13:44:14Z</time>
      </trkpt>
      <trkpt lat="48.0817" lon="-4.58117">
        <ele>30.7</ele>
        <time>2011-04-18T13:44:32Z</time>
      </trkpt>
      <trkpt lat="48.08172" lon="-4.58109">
        <ele>30.2</ele>
        <time>2011-04-18T13:44:55Z</time>
      </trkpt>
      <trkpt lat="48.08175" lon="-4.58087">
        <ele>26</ele>
        <time>2011-04-18T13:45:10Z</time>
      </trkpt>
      <trkpt lat="48.08175" lon="-4.58061">
        <ele>24.6</ele>
        <time>2011-04-18T13:45:25Z</time>
      </trkpt>
      <trkpt lat="48.08178" lon="-4.58027">
        <ele>21.2</ele>
        <time>2011-04-18T13:45:46Z</time>
      </trkpt>
      <trkpt lat="48.08177" lon="-4.58023">
        <ele>21.8</ele>
        <time>2011-04-18T13:45:49Z</time>
      </trkpt>
      <trkpt lat="48.08172" lon="-4.58016">
        <ele>24.8</ele>
        <time>2011-04-18T13:46:00Z</time>
      </trkpt>
      <trkpt lat="48.08164" lon="-4.57988">
        <ele>51</ele>
        <time>2011-04-18T13:46:17Z</time>
      </trkpt>
      <trkpt lat="48.08153" lon="-4.57967">
        <ele>51</ele>
        <time>2011-04-18T13:46:35Z</time>
      </trkpt>
      <trkpt lat="48.08145" lon="-4.57957">
        <ele>50</ele>
        <time>2011-04-18T13:46:53Z</time>
      </trkpt>
      <trkpt lat="48.0814" lon="-4.57947">
        <ele>50</ele>
        <time>2011-04-18T13:47:10Z</time>
      </trkpt>
      <trkpt lat="48.08132" lon="-4.57944">
        <ele>50</ele>
        <time>2011-04-18T13:47:24Z</time>
      </trkpt>
      <trkpt lat="48.08124" lon="-4.57938">
        <ele>50</ele>
        <time>2011-04-18T13:47:43Z</time>
      </trkpt>
      <trkpt lat="48.08117" lon="-4.57921">
        <ele>50</ele>
        <time>2011-04-18T13:48:05Z</time>
      </trkpt>
      <trkpt lat="48.08112" lon="-4.57915">
        <ele>41</ele>
        <time>2011-04-18T13:48:22Z</time>
      </trkpt>
      <trkpt lat="48.08104" lon="-4.57898">
        <ele>40</ele>
        <time>2011-04-18T13:48:40Z</time>
      </trkpt>
      <trkpt lat="48.08103" lon="-4.57895">
        <ele>40</ele>
        <time>2011-04-18T13:48:45Z</time>
      </trkpt>
      <trkpt lat="48.08098" lon="-4.57877">
        <ele>38</ele>
        <time>2011-04-18T13:48:57Z</time>
      </trkpt>
      <trkpt lat="48.08098" lon="-4.57872">
        <ele>38</ele>
        <time>2011-04-18T13:49:00Z</time>
      </trkpt>
      <trkpt lat="48.08085" lon="-4.57844">
        <ele>42</ele>
        <time>2011-04-18T13:49:19Z</time>
      </trkpt>
      <trkpt lat="48.08075" lon="-4.57821">
        <ele>50</ele>
        <time>2011-04-18T13:49:37Z</time>
      </trkpt>
      <trkpt lat="48.0807" lon="-4.57797">
        <ele>53</ele>
        <time>2011-04-18T13:49:56Z</time>
      </trkpt>
      <trkpt lat="48.08085" lon="-4.57767">
        <ele>39</ele>
        <time>2011-04-18T13:50:18Z</time>
      </trkpt>
      <trkpt lat="48.08098" lon="-4.57744">
        <ele>40</ele>
        <time>2011-04-18T13:50:35Z</time>
      </trkpt>
      <trkpt lat="48.0811" lon="-4.57712">
        <ele>34</ele>
        <time>2011-04-18T13:50:55Z</time>
      </trkpt>
      <trkpt lat="48.08108" lon="-4.57672">
        <ele>38</ele>
        <time>2011-04-18T13:51:17Z</time>
      </trkpt>
      <trkpt lat="48.08107" lon="-4.57655">
        <ele>39</ele>
        <time>2011-04-18T13:51:29Z</time>
      </trkpt>
      <trkpt lat="48.08105" lon="-4.57635">
        <ele>38</ele>
        <time>2011-04-18T13:51:47Z</time>
      </trkpt>
      <trkpt lat="48.08099" lon="-4.57615">
        <ele>38</ele>
        <time>2011-04-18T13:52:03Z</time>
      </trkpt>
      <trkpt lat="48.08099" lon="-4.57613">
        <ele>39</ele>
        <time>2011-04-18T13:52:05Z</time>
      </trkpt>
      <trkpt lat="48.08095" lon="-4.57607">
        <ele>40</ele>
        <time>2011-04-18T13:52:11Z</time>
      </trkpt>
      <trkpt lat="48.08094" lon="-4.57604">
        <ele>40</ele>
        <time>2011-04-18T13:52:13Z</time>
      </trkpt>
      <trkpt lat="48.08083" lon="-4.57587">
        <ele>51</ele>
        <time>2011-04-18T13:52:30Z</time>
      </trkpt>
      <trkpt lat="48.08083" lon="-4.57579">
        <ele>51</ele>
        <time>2011-04-18T13:52:35Z</time>
      </trkpt>
      <trkpt lat="48.08079" lon="-4.57558">
        <ele>53</ele>
        <time>2011-04-18T13:52:50Z</time>
      </trkpt>
      <trkpt lat="48.08089" lon="-4.57554">
        <ele>40</ele>
        <time>2011-04-18T13:53:01Z</time>
      </trkpt>
      <trkpt lat="48.08093" lon="-4.57549">
        <ele>39</ele>
        <time>2011-04-18T13:53:05Z</time>
      </trkpt>
      <trkpt lat="48.08113" lon="-4.57546">
        <ele>36</ele>
        <time>2011-04-18T13:53:24Z</time>
      </trkpt>
      <trkpt lat="48.08131" lon="-4.57541">
        <ele>33</ele>
        <time>2011-04-18T13:53:39Z</time>
      </trkpt>
      <trkpt lat="48.0815" lon="-4.57532">
        <ele>30</ele>
        <time>2011-04-18T13:53:59Z</time>
      </trkpt>
      <trkpt lat="48.08151" lon="-4.57521">
        <ele>29</ele>
        <time>2011-04-18T13:54:05Z</time>
      </trkpt>
      <trkpt lat="48.08153" lon="-4.57504">
        <ele>27</ele>
        <time>2011-04-18T13:54:16Z</time>
      </trkpt>
      <trkpt lat="48.08153" lon="-4.57474">
        <ele>31</ele>
        <time>2011-04-18T13:54:34Z</time>
      </trkpt>
      <trkpt lat="48.08152" lon="-4.57469">
        <ele>31</ele>
        <time>2011-04-18T13:54:37Z</time>
      </trkpt>
      <trkpt lat="48.08159" lon="-4.57434">
        <ele>29</ele>
        <time>2011-04-18T13:54:58Z</time>
      </trkpt>
      <trkpt lat="48.08164" lon="-4.57406">
        <ele>25</ele>
        <time>2011-04-18T13:55:15Z</time>
      </trkpt>
      <trkpt lat="48.08165" lon="-4.57397">
        <ele>26</ele>
        <time>2011-04-18T13:55:21Z</time>
      </trkpt>
      <trkpt lat="48.08162" lon="-4.57373">
        <ele>26</ele>
        <time>2011-04-18T13:55:41Z</time>
      </trkpt>
      <trkpt lat="48.08168" lon="-4.57376">
        <ele>18</ele>
        <time>2011-04-18T13:55:52Z</time>
      </trkpt>
      <trkpt lat="48.08171" lon="-4.57357">
        <ele>16</ele>
        <time>2011-04-18T13:56:06Z</time>
      </trkpt>
      <trkpt lat="48.08176" lon="-4.57346">
        <ele>15</ele>
        <time>2011-04-18T13:56:14Z</time>
      </trkpt>
      <trkpt lat="48.0816" lon="-4.57325">
        <ele>16</ele>
        <time>2011-04-18T13:56:33Z</time>
      </trkpt>
      <trkpt lat="48.08142" lon="-4.57321">
        <ele>20</ele>
        <time>2011-04-18T13:56:54Z</time>
      </trkpt>
      <trkpt lat="48.08135" lon="-4.57333">
        <ele>22</ele>
        <time>2011-04-18T13:57:12Z</time>
      </trkpt>
      <trkpt lat="48.08125" lon="-4.57335">
        <ele>30</ele>
        <time>2011-04-18T13:57:35Z</time>
      </trkpt>
      <trkpt lat="48.08116" lon="-4.57328">
        <ele>26</ele>
        <time>2011-04-18T13:57:51Z</time>
      </trkpt>
      <trkpt lat="48.08102" lon="-4.57318">
        <ele>29</ele>
        <time>2011-04-18T13:58:11Z</time>
      </trkpt>
      <trkpt lat="48.08101" lon="-4.57317">
        <ele>29</ele>
        <time>2011-04-18T13:58:13Z</time>
      </trkpt>
      <trkpt lat="48.08089" lon="-4.57295">
        <ele>27</ele>
        <time>2011-04-18T13:58:35Z</time>
      </trkpt>
      <trkpt lat="48.08075" lon="-4.57276">
        <ele>41</ele>
        <time>2011-04-18T13:58:54Z</time>
      </trkpt>
      <trkpt lat="48.08059" lon="-4.57272">
        <ele>42</ele>
        <time>2011-04-18T13:59:13Z</time>
      </trkpt>
      <trkpt lat="48.08046" lon="-4.57269">
        <ele>45</ele>
        <time>2011-04-18T13:59:31Z</time>
      </trkpt>
      <trkpt lat="48.08027" lon="-4.57243">
        <ele>46</ele>
        <time>2011-04-18T13:59:51Z</time>
      </trkpt>
      <trkpt lat="48.08019" lon="-4.57217">
        <ele>47</ele>
        <time>2011-04-18T14:00:08Z</time>
      </trkpt>
      <trkpt lat="48.08022" lon="-4.57202">
        <ele>47</ele>
        <time>2011-04-18T14:00:24Z</time>
      </trkpt>
      <trkpt lat="48.08027" lon="-4.57197">
        <ele>46</ele>
        <time>2011-04-18T14:00:31Z</time>
      </trkpt>
      <trkpt lat="48.08048" lon="-4.57177">
        <ele>43</ele>
        <time>2011-04-18T14:00:53Z</time>
      </trkpt>
      <trkpt lat="48.08065" lon="-4.57151">
        <ele>46</ele>
        <time>2011-04-18T14:01:15Z</time>
      </trkpt>
      <trkpt lat="48.08059" lon="-4.57144">
        <ele>48</ele>
        <time>2011-04-18T14:01:24Z</time>
      </trkpt>
      <trkpt lat="48.08057" lon="-4.57143">
        <ele>48</ele>
        <time>2011-04-18T14:01:26Z</time>
      </trkpt>
      <trkpt lat="48.08048" lon="-4.57127">
        <ele>51</ele>
        <time>2011-04-18T14:01:43Z</time>
      </trkpt>
      <trkpt lat="48.08051" lon="-4.57121">
        <ele>51</ele>
        <time>2011-04-18T14:01:50Z</time>
      </trkpt>
      <trkpt lat="48.08057" lon="-4.57102">
        <ele>52</ele>
        <time>2011-04-18T14:02:08Z</time>
      </trkpt>
      <trkpt lat="48.08066" lon="-4.57069">
        <ele>57</ele>
        <time>2011-04-18T14:02:28Z</time>
      </trkpt>
      <trkpt lat="48.08079" lon="-4.5704">
        <ele>59</ele>
        <time>2011-04-18T14:02:49Z</time>
      </trkpt>
      <trkpt lat="48.08083" lon="-4.57029">
        <ele>60</ele>
        <time>2011-04-18T14:02:57Z</time>
      </trkpt>
      <trkpt lat="48.08094" lon="-4.56994">
        <ele>52</ele>
        <time>2011-04-18T14:03:19Z</time>
      </trkpt>
      <trkpt lat="48.08087" lon="-4.56957">
        <ele>49</ele>
        <time>2011-04-18T14:03:39Z</time>
      </trkpt>
      <trkpt lat="48.08102" lon="-4.56926">
        <ele>52</ele>
        <time>2011-04-18T14:04:01Z</time>
      </trkpt>
      <trkpt lat="48.08111" lon="-4.5691">
        <ele>53</ele>
        <time>2011-04-18T14:04:15Z</time>
      </trkpt>
      <trkpt lat="48.08114" lon="-4.56907">
        <ele>52</ele>
        <time>2011-04-18T14:04:19Z</time>
      </trkpt>
      <trkpt lat="48.08131" lon="-4.56897">
        <ele>48</ele>
        <time>2011-04-18T14:04:38Z</time>
      </trkpt>
      <trkpt lat="48.08143" lon="-4.56881">
        <ele>46</ele>
        <time>2011-04-18T14:05:12Z</time>
      </trkpt>
      <trkpt lat="48.08158" lon="-4.56848">
        <ele>44</ele>
        <time>2011-04-18T14:05:33Z</time>
      </trkpt>
      <trkpt lat="48.08165" lon="-4.56812">
        <ele>43</ele>
        <time>2011-04-18T14:05:52Z</time>
      </trkpt>
      <trkpt lat="48.08166" lon="-4.56771">
        <ele>40</ele>
        <time>2011-04-18T14:06:14Z</time>
      </trkpt>
      <trkpt lat="48.08165" lon="-4.5677">
        <ele>40</ele>
        <time>2011-04-18T14:06:15Z</time>
      </trkpt>
      <trkpt lat="48.08163" lon="-4.56762">
        <ele>38</ele>
        <time>2011-04-18T14:06:20Z</time>
      </trkpt>
      <trkpt lat="48.08146" lon="-4.56743">
        <ele>34</ele>
        <time>2011-04-18T14:06:41Z</time>
      </trkpt>
      <trkpt lat="48.08145" lon="-4.56736">
        <ele>34</ele>
        <time>2011-04-18T14:06:52Z</time>
      </trkpt>
      <trkpt lat="48.08152" lon="-4.56732">
        <ele>33</ele>
        <time>2011-04-18T14:07:04Z</time>
      </trkpt>
      <trkpt lat="48.08151" lon="-4.56726">
        <ele>32</ele>
        <time>2011-04-18T14:07:16Z</time>
      </trkpt>
      <trkpt lat="48.08144" lon="-4.56724">
        <ele>33</ele>
        <time>2011-04-18T14:07:22Z</time>
      </trkpt>
      <trkpt lat="48.0814" lon="-4.56723">
        <ele>33</ele>
        <time>2011-04-18T14:07:25Z</time>
      </trkpt>
      <trkpt lat="48.08122" lon="-4.5673">
        <ele>37</ele>
        <time>2011-04-18T14:07:44Z</time>
      </trkpt>
      <trkpt lat="48.08113" lon="-4.56736">
        <ele>40</ele>
        <time>2011-04-18T14:08:02Z</time>
      </trkpt>
      <trkpt lat="48.08101" lon="-4.56739">
        <ele>45</ele>
        <time>2011-04-18T14:08:27Z</time>
      </trkpt>
      <trkpt lat="48.08079" lon="-4.5673">
        <ele>57</ele>
        <time>2011-04-18T14:08:54Z</time>
      </trkpt>
      <trkpt lat="48.08074" lon="-4.56718">
        <ele>56</ele>
        <time>2011-04-18T14:09:04Z</time>
      </trkpt>
      <trkpt lat="48.08055" lon="-4.56689">
        <ele>54</ele>
        <time>2011-04-18T14:09:27Z</time>
      </trkpt>
      <trkpt lat="48.08035" lon="-4.56668">
        <ele>57</ele>
        <time>2011-04-18T14:09:48Z</time>
      </trkpt>
      <trkpt lat="48.08021" lon="-4.56659">
        <ele>50</ele>
        <time>2011-04-18T14:10:03Z</time>
      </trkpt>
      <trkpt lat="48.08004" lon="-4.56647">
        <ele>51</ele>
        <time>2011-04-18T14:10:20Z</time>
      </trkpt>
      <trkpt lat="48.07997" lon="-4.5664">
        <ele>63</ele>
        <time>2011-04-18T14:10:29Z</time>
      </trkpt>
      <trkpt lat="48.07985" lon="-4.5661">
        <ele>60</ele>
        <time>2011-04-18T14:10:48Z</time>
      </trkpt>
      <trkpt lat="48.07969" lon="-4.56586">
        <ele>61</ele>
        <time>2011-04-18T14:11:06Z</time>
      </trkpt>
      <trkpt lat="48.07962" lon="-4.56563">
        <ele>56</ele>
        <time>2011-04-18T14:11:22Z</time>
      </trkpt>
      <trkpt lat="48.07962" lon="-4.56561">
        <ele>56</ele>
        <time>2011-04-18T14:11:23Z</time>
      </trkpt>
      <trkpt lat="48.07961" lon="-4.56553">
        <ele>56</ele>
        <time>2011-04-18T14:11:29Z</time>
      </trkpt>
      <trkpt lat="48.07956" lon="-4.56536">
        <ele>56</ele>
        <time>2011-04-18T14:11:41Z</time>
      </trkpt>
      <trkpt lat="48.07952" lon="-4.56526">
        <ele>57</ele>
        <time>2011-04-18T14:12:00Z</time>
      </trkpt>
      <trkpt lat="48.07951" lon="-4.56523">
        <ele>57</ele>
        <time>2011-04-18T14:12:20Z</time>
      </trkpt>
      <trkpt lat="48.0795" lon="-4.56512">
        <ele>57</ele>
        <time>2011-04-18T14:30:42Z</time>
      </trkpt>
      <trkpt lat="48.07951" lon="-4.56503">
        <ele>57</ele>
        <time>2011-04-18T14:30:47Z</time>
      </trkpt>
      <trkpt lat="48.07949" lon="-4.56488">
        <ele>55</ele>
        <time>2011-04-18T14:30:58Z</time>
      </trkpt>
      <trkpt lat="48.07957" lon="-4.56443">
        <ele>52</ele>
        <time>2011-04-18T14:31:22Z</time>
      </trkpt>
      <trkpt lat="48.07958" lon="-4.56431">
        <ele>52</ele>
        <time>2011-04-18T14:31:29Z</time>
      </trkpt>
      <trkpt lat="48.07958" lon="-4.56427">
        <ele>52</ele>
        <time>2011-04-18T14:31:31Z</time>
      </trkpt>
      <trkpt lat="48.07958" lon="-4.56407">
        <ele>49</ele>
        <time>2011-04-18T14:31:48Z</time>
      </trkpt>
      <trkpt lat="48.07958" lon="-4.56393">
        <ele>49</ele>
        <time>2011-04-18T14:32:02Z</time>
      </trkpt>
      <trkpt lat="48.07956" lon="-4.56379">
        <ele>49</ele>
        <time>2011-04-18T14:32:14Z</time>
      </trkpt>
      <trkpt lat="48.07952" lon="-4.56373">
        <ele>50</ele>
        <time>2011-04-18T14:32:28Z</time>
      </trkpt>
      <trkpt lat="48.07945" lon="-4.56369">
        <ele>51</ele>
        <time>2011-04-18T14:32:42Z</time>
      </trkpt>
      <trkpt lat="48.07943" lon="-4.56363">
        <ele>52</ele>
        <time>2011-04-18T14:32:48Z</time>
      </trkpt>
      <trkpt lat="48.07937" lon="-4.56348">
        <ele>55</ele>
        <time>2011-04-18T14:33:03Z</time>
      </trkpt>
      <trkpt lat="48.07929" lon="-4.56342">
        <ele>59</ele>
        <time>2011-04-18T14:33:17Z</time>
      </trkpt>
      <trkpt lat="48.07926" lon="-4.56324">
        <ele>56</ele>
        <time>2011-04-18T14:33:30Z</time>
      </trkpt>
      <trkpt lat="48.07917" lon="-4.56304">
        <ele>49</ele>
        <time>2011-04-18T14:33:48Z</time>
      </trkpt>
      <trkpt lat="48.07914" lon="-4.56301">
        <ele>65</ele>
        <time>2011-04-18T14:33:52Z</time>
      </trkpt>
      <trkpt lat="48.07913" lon="-4.56297">
        <ele>65</ele>
        <time>2011-04-18T14:33:55Z</time>
      </trkpt>
      <trkpt lat="48.07912" lon="-4.56282">
        <ele>62</ele>
        <time>2011-04-18T14:34:07Z</time>
      </trkpt>
      <trkpt lat="48.07894" lon="-4.56275">
        <ele>62</ele>
        <time>2011-04-18T14:34:22Z</time>
      </trkpt>
      <trkpt lat="48.07892" lon="-4.56271">
        <ele>62</ele>
        <time>2011-04-18T14:34:26Z</time>
      </trkpt>
      <trkpt lat="48.0788" lon="-4.56256">
        <ele>63</ele>
        <time>2011-04-18T14:34:40Z</time>
      </trkpt>
      <trkpt lat="48.0788" lon="-4.56248">
        <ele>50</ele>
        <time>2011-04-18T14:34:46Z</time>
      </trkpt>
      <trkpt lat="48.07881" lon="-4.56237">
        <ele>50</ele>
        <time>2011-04-18T14:34:52Z</time>
      </trkpt>
      <trkpt lat="48.07877" lon="-4.5623">
        <ele>49</ele>
        <time>2011-04-18T14:34:57Z</time>
      </trkpt>
      <trkpt lat="48.07872" lon="-4.56227">
        <ele>50</ele>
        <time>2011-04-18T14:35:02Z</time>
      </trkpt>
      <trkpt lat="48.0785" lon="-4.5622">
        <ele>52</ele>
        <time>2011-04-18T14:35:22Z</time>
      </trkpt>
      <trkpt lat="48.07829" lon="-4.56209">
        <ele>62</ele>
        <time>2011-04-18T14:35:41Z</time>
      </trkpt>
      <trkpt lat="48.0782" lon="-4.56178">
        <ele>57</ele>
        <time>2011-04-18T14:36:00Z</time>
      </trkpt>
      <trkpt lat="48.07811" lon="-4.56148">
        <ele>49</ele>
        <time>2011-04-18T14:36:19Z</time>
      </trkpt>
      <trkpt lat="48.07801" lon="-4.56121">
        <ele>47</ele>
        <time>2011-04-18T14:36:36Z</time>
      </trkpt>
      <trkpt lat="48.07793" lon="-4.56101">
        <ele>46</ele>
        <time>2011-04-18T14:36:48Z</time>
      </trkpt>
      <trkpt lat="48.07793" lon="-4.56099">
        <ele>46</ele>
        <time>2011-04-18T14:36:50Z</time>
      </trkpt>
      <trkpt lat="48.07776" lon="-4.5607">
        <ele>39</ele>
        <time>2011-04-18T14:37:09Z</time>
      </trkpt>
      <trkpt lat="48.07762" lon="-4.56037">
        <ele>36</ele>
        <time>2011-04-18T14:37:29Z</time>
      </trkpt>
      <trkpt lat="48.07751" lon="-4.56012">
        <ele>37</ele>
        <time>2011-04-18T14:37:45Z</time>
      </trkpt>
      <trkpt lat="48.07741" lon="-4.56006">
        <ele>44</ele>
        <time>2011-04-18T14:37:54Z</time>
      </trkpt>
      <trkpt lat="48.07732" lon="-4.56002">
        <ele>47</ele>
        <time>2011-04-18T14:38:03Z</time>
      </trkpt>
      <trkpt lat="48.07725" lon="-4.55999">
        <ele>45</ele>
        <time>2011-04-18T14:38:16Z</time>
      </trkpt>
      <trkpt lat="48.07721" lon="-4.55995">
        <ele>46</ele>
        <time>2011-04-18T14:38:25Z</time>
      </trkpt>
      <trkpt lat="48.0772" lon="-4.55984">
        <ele>46</ele>
        <time>2011-04-18T14:38:31Z</time>
      </trkpt>
      <trkpt lat="48.07733" lon="-4.5596">
        <ele>45</ele>
        <time>2011-04-18T14:38:50Z</time>
      </trkpt>
      <trkpt lat="48.07736" lon="-4.55958">
        <ele>44</ele>
        <time>2011-04-18T14:38:53Z</time>
      </trkpt>
      <trkpt lat="48.07744" lon="-4.55948">
        <ele>43</ele>
        <time>2011-04-18T14:39:09Z</time>
      </trkpt>
      <trkpt lat="48.07746" lon="-4.55942">
        <ele>42</ele>
        <time>2011-04-18T14:39:13Z</time>
      </trkpt>
      <trkpt lat="48.07745" lon="-4.55927">
        <ele>39</ele>
        <time>2011-04-18T14:39:21Z</time>
      </trkpt>
      <trkpt lat="48.07745" lon="-4.55924">
        <ele>38</ele>
        <time>2011-04-18T14:39:23Z</time>
      </trkpt>
      <trkpt lat="48.07748" lon="-4.55894">
        <ele>40</ele>
        <time>2011-04-18T14:39:42Z</time>
      </trkpt>
      <trkpt lat="48.07756" lon="-4.55858">
        <ele>24</ele>
        <time>2011-04-18T14:40:03Z</time>
      </trkpt>
      <trkpt lat="48.07752" lon="-4.55816">
        <ele>27</ele>
        <time>2011-04-18T14:40:27Z</time>
      </trkpt>
      <trkpt lat="48.07745" lon="-4.55783">
        <ele>40</ele>
        <time>2011-04-18T14:40:46Z</time>
      </trkpt>
      <trkpt lat="48.0773" lon="-4.55772">
        <ele>40</ele>
        <time>2011-04-18T14:41:05Z</time>
      </trkpt>
      <trkpt lat="48.07725" lon="-4.5576">
        <ele>40</ele>
        <time>2011-04-18T14:41:16Z</time>
      </trkpt>
      <trkpt lat="48.07732" lon="-4.55736">
        <ele>41</ele>
        <time>2011-04-18T14:41:32Z</time>
      </trkpt>
      <trkpt lat="48.07759" lon="-4.55712">
        <ele>29</ele>
        <time>2011-04-18T14:41:57Z</time>
      </trkpt>
      <trkpt lat="48.07765" lon="-4.55699">
        <ele>29</ele>
        <time>2011-04-18T14:42:06Z</time>
      </trkpt>
      <trkpt lat="48.07772" lon="-4.55702">
        <ele>28</ele>
        <time>2011-04-18T14:42:13Z</time>
      </trkpt>
      <trkpt lat="48.07781" lon="-4.55707">
        <ele>26</ele>
        <time>2011-04-18T14:42:22Z</time>
      </trkpt>
      <trkpt lat="48.07803" lon="-4.55695">
        <ele>23</ele>
        <time>2011-04-18T14:42:42Z</time>
      </trkpt>
      <trkpt lat="48.0782" lon="-4.55703">
        <ele>21</ele>
        <time>2011-04-18T14:42:59Z</time>
      </trkpt>
      <trkpt lat="48.0783" lon="-4.55712">
        <ele>19</ele>
        <time>2011-04-18T14:43:18Z</time>
      </trkpt>
      <trkpt lat="48.07841" lon="-4.55726">
        <ele>10</ele>
        <time>2011-04-18T14:43:37Z</time>
      </trkpt>
      <trkpt lat="48.07849" lon="-4.55721">
        <ele>10</ele>
        <time>2011-04-18T14:43:49Z</time>
      </trkpt>
      <trkpt lat="48.07841" lon="-4.55703">
        <ele>11</ele>
        <time>2011-04-18T14:44:06Z</time>
      </trkpt>
      <trkpt lat="48.07838" lon="-4.55686">
        <ele>13</ele>
        <time>2011-04-18T14:44:18Z</time>
      </trkpt>
      <trkpt lat="48.07832" lon="-4.55676">
        <ele>17</ele>
        <time>2011-04-18T14:44:33Z</time>
      </trkpt>
      <trkpt lat="48.07826" lon="-4.5566">
        <ele>18</ele>
        <time>2011-04-18T14:44:49Z</time>
      </trkpt>
      <trkpt lat="48.07826" lon="-4.5566">
        <ele>18</ele>
        <time>2011-04-18T14:44:50Z</time>
      </trkpt>
      <trkpt lat="48.07832" lon="-4.55636">
        <ele>22</ele>
        <time>2011-04-18T14:45:05Z</time>
      </trkpt>
      <trkpt lat="48.07835" lon="-4.55601">
        <ele>12</ele>
        <time>2011-04-18T14:45:25Z</time>
      </trkpt>
      <trkpt lat="48.07829" lon="-4.55569">
        <ele>16</ele>
        <time>2011-04-18T14:45:44Z</time>
      </trkpt>
      <trkpt lat="48.07817" lon="-4.55546">
        <ele>17</ele>
        <time>2011-04-18T14:46:00Z</time>
      </trkpt>
      <trkpt lat="48.07813" lon="-4.55542">
        <ele>18</ele>
        <time>2011-04-18T14:46:05Z</time>
      </trkpt>
      <trkpt lat="48.07806" lon="-4.55537">
        <ele>18</ele>
        <time>2011-04-18T14:46:16Z</time>
      </trkpt>
      <trkpt lat="48.0779" lon="-4.55513">
        <ele>18</ele>
        <time>2011-04-18T14:46:34Z</time>
      </trkpt>
      <trkpt lat="48.07775" lon="-4.55489">
        <ele>15</ele>
        <time>2011-04-18T14:46:51Z</time>
      </trkpt>
      <trkpt lat="48.07764" lon="-4.55472">
        <ele>14</ele>
        <time>2011-04-18T14:47:05Z</time>
      </trkpt>
      <trkpt lat="48.0776" lon="-4.55468">
        <ele>14</ele>
        <time>2011-04-18T14:47:09Z</time>
      </trkpt>
      <trkpt lat="48.07748" lon="-4.55481">
        <ele>24</ele>
        <time>2011-04-18T14:47:26Z</time>
      </trkpt>
      <trkpt lat="48.07742" lon="-4.5549">
        <ele>24</ele>
        <time>2011-04-18T14:47:42Z</time>
      </trkpt>
      <trkpt lat="48.07733" lon="-4.55495">
        <ele>25</ele>
        <time>2011-04-18T14:47:58Z</time>
      </trkpt>
      <trkpt lat="48.0773" lon="-4.55484">
        <ele>26</ele>
        <time>2011-04-18T14:48:12Z</time>
      </trkpt>
      <trkpt lat="48.07719" lon="-4.55466">
        <ele>26</ele>
        <time>2011-04-18T14:48:27Z</time>
      </trkpt>
      <trkpt lat="48.0771" lon="-4.55443">
        <ele>26</ele>
        <time>2011-04-18T14:48:44Z</time>
      </trkpt>
      <trkpt lat="48.07699" lon="-4.55425">
        <ele>27</ele>
        <time>2011-04-18T14:49:02Z</time>
      </trkpt>
      <trkpt lat="48.07694" lon="-4.55412">
        <ele>22</ele>
        <time>2011-04-18T14:49:17Z</time>
      </trkpt>
      <trkpt lat="48.07694" lon="-4.55409">
        <ele>22</ele>
        <time>2011-04-18T14:49:19Z</time>
      </trkpt>
      <trkpt lat="48.0769" lon="-4.55368">
        <ele>18</ele>
        <time>2011-04-18T14:49:42Z</time>
      </trkpt>
      <trkpt lat="48.07676" lon="-4.55339">
        <ele>18</ele>
        <time>2011-04-18T14:50:00Z</time>
      </trkpt>
      <trkpt lat="48.07672" lon="-4.5532">
        <ele>14</ele>
        <time>2011-04-18T14:50:15Z</time>
      </trkpt>
      <trkpt lat="48.07671" lon="-4.55319">
        <ele>14</ele>
        <time>2011-04-18T14:50:16Z</time>
      </trkpt>
      <trkpt lat="48.07659" lon="-4.55303">
        <ele>18</ele>
        <time>2011-04-18T14:50:31Z</time>
      </trkpt>
      <trkpt lat="48.07645" lon="-4.55292">
        <ele>18</ele>
        <time>2011-04-18T14:50:45Z</time>
      </trkpt>
      <trkpt lat="48.0763" lon="-4.55283">
        <ele>18</ele>
        <time>2011-04-18T14:50:59Z</time>
      </trkpt>
      <trkpt lat="48.07623" lon="-4.55272">
        <ele>18</ele>
        <time>2011-04-18T14:51:10Z</time>
      </trkpt>
      <trkpt lat="48.0762" lon="-4.55263">
        <ele>17</ele>
        <time>2011-04-18T14:51:14Z</time>
      </trkpt>
      <trkpt lat="48.07603" lon="-4.55243">
        <ele>14</ele>
        <time>2011-04-18T14:51:31Z</time>
      </trkpt>
      <trkpt lat="48.07597" lon="-4.55228">
        <ele>14</ele>
        <time>2011-04-18T14:51:45Z</time>
      </trkpt>
      <trkpt lat="48.07597" lon="-4.55219">
        <ele>13</ele>
        <time>2011-04-18T14:52:01Z</time>
      </trkpt>
      <trkpt lat="48.07594" lon="-4.55214">
        <ele>13</ele>
        <time>2011-04-18T14:52:15Z</time>
      </trkpt>
      <trkpt lat="48.07594" lon="-4.55201">
        <ele>14</ele>
        <time>2011-04-18T14:52:34Z</time>
      </trkpt>
      <trkpt lat="48.07595" lon="-4.55192">
        <ele>14</ele>
        <time>2011-04-18T14:52:44Z</time>
      </trkpt>
      <trkpt lat="48.076" lon="-4.55168">
        <ele>14</ele>
        <time>2011-04-18T14:53:02Z</time>
      </trkpt>
      <trkpt lat="48.07607" lon="-4.55155">
        <ele>20</ele>
        <time>2011-04-18T14:53:19Z</time>
      </trkpt>
      <trkpt lat="48.07615" lon="-4.55138">
        <ele>21</ele>
        <time>2011-04-18T14:53:40Z</time>
      </trkpt>
      <trkpt lat="48.07619" lon="-4.55128">
        <ele>22</ele>
        <time>2011-04-18T14:53:57Z</time>
      </trkpt>
      <trkpt lat="48.07626" lon="-4.55117">
        <ele>23</ele>
        <time>2011-04-18T14:54:15Z</time>
      </trkpt>
      <trkpt lat="48.07635" lon="-4.55114">
        <ele>23</ele>
        <time>2011-04-18T14:54:34Z</time>
      </trkpt>
      <trkpt lat="48.07643" lon="-4.55108">
        <ele>23</ele>
        <time>2011-04-18T14:54:54Z</time>
      </trkpt>
      <trkpt lat="48.07659" lon="-4.55111">
        <ele>22</ele>
        <time>2011-04-18T14:55:15Z</time>
      </trkpt>
      <trkpt lat="48.07664" lon="-4.55101">
        <ele>24</ele>
        <time>2011-04-18T14:55:32Z</time>
      </trkpt>
      <trkpt lat="48.07669" lon="-4.55085">
        <ele>25</ele>
        <time>2011-04-18T14:55:50Z</time>
      </trkpt>
      <trkpt lat="48.07673" lon="-4.55073">
        <ele>25</ele>
        <time>2011-04-18T14:56:04Z</time>
      </trkpt>
      <trkpt lat="48.07682" lon="-4.55062">
        <ele>24</ele>
        <time>2011-04-18T14:56:22Z</time>
      </trkpt>
      <trkpt lat="48.07691" lon="-4.55051">
        <ele>23</ele>
        <time>2011-04-18T14:56:39Z</time>
      </trkpt>
      <trkpt lat="48.07692" lon="-4.55049">
        <ele>23</ele>
        <time>2011-04-18T14:56:41Z</time>
      </trkpt>
      <trkpt lat="48.07697" lon="-4.55033">
        <ele>24</ele>
        <time>2011-04-18T14:56:57Z</time>
      </trkpt>
      <trkpt lat="48.07699" lon="-4.55023">
        <ele>25</ele>
        <time>2011-04-18T14:57:09Z</time>
      </trkpt>
      <trkpt lat="48.07707" lon="-4.55012">
        <ele>24</ele>
        <time>2011-04-18T14:57:23Z</time>
      </trkpt>
      <trkpt lat="48.07713" lon="-4.55009">
        <ele>23</ele>
        <time>2011-04-18T14:57:28Z</time>
      </trkpt>
      <trkpt lat="48.07713" lon="-4.54989">
        <ele>28</ele>
        <time>2011-04-18T14:57:46Z</time>
      </trkpt>
      <trkpt lat="48.07712" lon="-4.54987">
        <ele>28</ele>
        <time>2011-04-18T14:57:48Z</time>
      </trkpt>
      <trkpt lat="48.07703" lon="-4.54964">
        <ele>31</ele>
        <time>2011-04-18T14:58:06Z</time>
      </trkpt>
      <trkpt lat="48.077" lon="-4.54958">
        <ele>31</ele>
        <time>2011-04-18T14:58:10Z</time>
      </trkpt>
      <trkpt lat="48.07701" lon="-4.5493">
        <ele>32</ele>
        <time>2011-04-18T14:58:31Z</time>
      </trkpt>
      <trkpt lat="48.07704" lon="-4.549">
        <ele>31</ele>
        <time>2011-04-18T14:58:50Z</time>
      </trkpt>
      <trkpt lat="48.07704" lon="-4.54899">
        <ele>31</ele>
        <time>2011-04-18T14:58:51Z</time>
      </trkpt>
      <trkpt lat="48.07703" lon="-4.54875">
        <ele>30</ele>
        <time>2011-04-18T14:59:11Z</time>
      </trkpt>
      <trkpt lat="48.07711" lon="-4.54864">
        <ele>29</ele>
        <time>2011-04-18T14:59:34Z</time>
      </trkpt>
      <trkpt lat="48.07722" lon="-4.54872">
        <ele>27</ele>
        <time>2011-04-18T14:59:52Z</time>
      </trkpt>
      <trkpt lat="48.07727" lon="-4.54858">
        <ele>26</ele>
        <time>2011-04-18T15:00:08Z</time>
      </trkpt>
      <trkpt lat="48.07728" lon="-4.5485">
        <ele>26</ele>
        <time>2011-04-18T15:00:17Z</time>
      </trkpt>
      <trkpt lat="48.07737" lon="-4.54841">
        <ele>23</ele>
        <time>2011-04-18T15:00:31Z</time>
      </trkpt>
      <trkpt lat="48.07745" lon="-4.54838">
        <ele>20</ele>
        <time>2011-04-18T15:00:48Z</time>
      </trkpt>
      <trkpt lat="48.07753" lon="-4.54833">
        <ele>17</ele>
        <time>2011-04-18T15:01:07Z</time>
      </trkpt>
      <trkpt lat="48.07747" lon="-4.54819">
        <ele>23</ele>
        <time>2011-04-18T15:01:30Z</time>
      </trkpt>
      <trkpt lat="48.07748" lon="-4.548">
        <ele>26</ele>
        <time>2011-04-18T15:01:48Z</time>
      </trkpt>
      <trkpt lat="48.07742" lon="-4.54777">
        <ele>27</ele>
        <time>2011-04-18T15:02:03Z</time>
      </trkpt>
      <trkpt lat="48.0774" lon="-4.54766">
        <ele>26</ele>
        <time>2011-04-18T15:02:12Z</time>
      </trkpt>
      <trkpt lat="48.07736" lon="-4.54744">
        <ele>28</ele>
        <time>2011-04-18T15:02:30Z</time>
      </trkpt>
      <trkpt lat="48.07733" lon="-4.54722">
        <ele>32</ele>
        <time>2011-04-18T15:02:46Z</time>
      </trkpt>
      <trkpt lat="48.07733" lon="-4.54719">
        <ele>32</ele>
        <time>2011-04-18T15:02:48Z</time>
      </trkpt>
      <trkpt lat="48.07729" lon="-4.54688">
        <ele>33</ele>
        <time>2011-04-18T15:03:08Z</time>
      </trkpt>
      <trkpt lat="48.07723" lon="-4.54669">
        <ele>34</ele>
        <time>2011-04-18T15:03:23Z</time>
      </trkpt>
      <trkpt lat="48.0772" lon="-4.54652">
        <ele>40</ele>
        <time>2011-04-18T15:03:38Z</time>
      </trkpt>
      <trkpt lat="48.07718" lon="-4.54632">
        <ele>42</ele>
        <time>2011-04-18T15:03:58Z</time>
      </trkpt>
      <trkpt lat="48.07719" lon="-4.54626">
        <ele>42</ele>
        <time>2011-04-18T15:04:04Z</time>
      </trkpt>
      <trkpt lat="48.0772" lon="-4.54616">
        <ele>43</ele>
        <time>2011-04-18T15:04:13Z</time>
      </trkpt>
      <trkpt lat="48.07721" lon="-4.54596">
        <ele>44</ele>
        <time>2011-04-18T15:04:29Z</time>
      </trkpt>
      <trkpt lat="48.07733" lon="-4.54569">
        <ele>48</ele>
        <time>2011-04-18T15:04:52Z</time>
      </trkpt>
      <trkpt lat="48.07741" lon="-4.54553">
        <ele>50</ele>
        <time>2011-04-18T15:05:07Z</time>
      </trkpt>
      <trkpt lat="48.07748" lon="-4.54551">
        <ele>49</ele>
        <time>2011-04-18T15:05:17Z</time>
      </trkpt>
      <trkpt lat="48.07773" lon="-4.54558">
        <ele>37</ele>
        <time>2011-04-18T15:05:38Z</time>
      </trkpt>
      <trkpt lat="48.07785" lon="-4.54553">
        <ele>35</ele>
        <time>2011-04-18T15:05:55Z</time>
      </trkpt>
      <trkpt lat="48.07786" lon="-4.5456">
        <ele>35</ele>
        <time>2011-04-18T15:06:15Z</time>
      </trkpt>
      <trkpt lat="48.0779" lon="-4.54568">
        <ele>33</ele>
        <time>2011-04-18T15:06:33Z</time>
      </trkpt>
      <trkpt lat="48.07792" lon="-4.54568">
        <ele>33</ele>
        <time>2011-04-18T15:06:34Z</time>
      </trkpt>
      <trkpt lat="48.07817" lon="-4.54573">
        <ele>26</ele>
        <time>2011-04-18T15:06:57Z</time>
      </trkpt>
      <trkpt lat="48.07835" lon="-4.54575">
        <ele>16</ele>
        <time>2011-04-18T15:07:17Z</time>
      </trkpt>
      <trkpt lat="48.0784" lon="-4.54575">
        <ele>16</ele>
        <time>2011-04-18T15:07:23Z</time>
      </trkpt>
      <trkpt lat="48.0784" lon="-4.54572">
        <ele>17</ele>
        <time>2011-04-18T15:07:25Z</time>
      </trkpt>
      <trkpt lat="48.07832" lon="-4.54557">
        <ele>28</ele>
        <time>2011-04-18T15:07:41Z</time>
      </trkpt>
      <trkpt lat="48.07827" lon="-4.54542">
        <ele>31</ele>
        <time>2011-04-18T15:07:54Z</time>
      </trkpt>
      <trkpt lat="48.07825" lon="-4.54518">
        <ele>33</ele>
        <time>2011-04-18T15:08:10Z</time>
      </trkpt>
      <trkpt lat="48.07826" lon="-4.54498">
        <ele>37</ele>
        <time>2011-04-18T15:08:28Z</time>
      </trkpt>
      <trkpt lat="48.07826" lon="-4.54493">
        <ele>38</ele>
        <time>2011-04-18T15:08:33Z</time>
      </trkpt>
      <trkpt lat="48.07839" lon="-4.54471">
        <ele>36</ele>
        <time>2011-04-18T15:08:55Z</time>
      </trkpt>
      <trkpt lat="48.07843" lon="-4.54467">
        <ele>36</ele>
        <time>2011-04-18T15:08:59Z</time>
      </trkpt>
      <trkpt lat="48.07863" lon="-4.54456">
        <ele>37</ele>
        <time>2011-04-18T15:09:18Z</time>
      </trkpt>
      <trkpt lat="48.07868" lon="-4.54452">
        <ele>37</ele>
        <time>2011-04-18T15:09:30Z</time>
      </trkpt>
      <trkpt lat="48.07876" lon="-4.54439">
        <ele>38</ele>
        <time>2011-04-18T15:09:43Z</time>
      </trkpt>
      <trkpt lat="48.07878" lon="-4.5444">
        <ele>38</ele>
        <time>2011-04-18T15:09:46Z</time>
      </trkpt>
      <trkpt lat="48.07882" lon="-4.54446">
        <ele>37</ele>
        <time>2011-04-18T15:09:51Z</time>
      </trkpt>
      <trkpt lat="48.07885" lon="-4.54448">
        <ele>37</ele>
        <time>2011-04-18T15:09:54Z</time>
      </trkpt>
      <trkpt lat="48.07902" lon="-4.54476">
        <ele>32</ele>
        <time>2011-04-18T15:10:16Z</time>
      </trkpt>
      <trkpt lat="48.07922" lon="-4.54501">
        <ele>23</ele>
        <time>2011-04-18T15:10:39Z</time>
      </trkpt>
      <trkpt lat="48.07933" lon="-4.54512">
        <ele>23</ele>
        <time>2011-04-18T15:10:58Z</time>
      </trkpt>
      <trkpt lat="48.07949" lon="-4.54527">
        <ele>22</ele>
        <time>2011-04-18T15:11:21Z</time>
      </trkpt>
      <trkpt lat="48.0796" lon="-4.54539">
        <ele>22</ele>
        <time>2011-04-18T15:11:40Z</time>
      </trkpt>
      <trkpt lat="48.07958" lon="-4.54538">
        <ele>22</ele>
        <time>2011-04-18T15:12:55Z</time>
      </trkpt>
      <trkpt lat="48.07959" lon="-4.54538">
        <ele>22</ele>
        <time>2011-04-18T15:13:22Z</time>
      </trkpt>
      <trkpt lat="48.07959" lon="-4.54539">
        <ele>22</ele>
        <time>2011-04-18T15:14:11Z</time>
      </trkpt>
      <trkpt lat="48.07962" lon="-4.5454">
        <ele>22</ele>
        <time>2011-04-18T15:14:22Z</time>
      </trkpt>
      <trkpt lat="48.07992" lon="-4.54548">
        <ele>22</ele>
        <time>2011-04-18T15:14:47Z</time>
      </trkpt>
      <trkpt lat="48.08015" lon="-4.54551">
        <ele>21</ele>
        <time>2011-04-18T15:15:07Z</time>
      </trkpt>
      <trkpt lat="48.08019" lon="-4.54554">
        <ele>21</ele>
        <time>2011-04-18T15:15:11Z</time>
      </trkpt>
      <trkpt lat="48.0802" lon="-4.54555">
        <ele>20</ele>
        <time>2011-04-18T15:15:13Z</time>
      </trkpt>
      <trkpt lat="48.08023" lon="-4.54555">
        <ele>20</ele>
        <time>2011-04-18T15:15:15Z</time>
      </trkpt>
      <trkpt lat="48.08028" lon="-4.54541">
        <ele>22</ele>
        <time>2011-04-18T15:15:33Z</time>
      </trkpt>
      <trkpt lat="48.08029" lon="-4.54526">
        <ele>24</ele>
        <time>2011-04-18T15:15:44Z</time>
      </trkpt>
      <trkpt lat="48.08035" lon="-4.54496">
        <ele>36</ele>
        <time>2011-04-18T15:16:03Z</time>
      </trkpt>
      <trkpt lat="48.08038" lon="-4.54492">
        <ele>36</ele>
        <time>2011-04-18T15:16:07Z</time>
      </trkpt>
      <trkpt lat="48.08047" lon="-4.54461">
        <ele>37</ele>
        <time>2011-04-18T15:16:27Z</time>
      </trkpt>
      <trkpt lat="48.08059" lon="-4.54432">
        <ele>38</ele>
        <time>2011-04-18T15:16:47Z</time>
      </trkpt>
      <trkpt lat="48.08073" lon="-4.54415">
        <ele>41</ele>
        <time>2011-04-18T15:17:09Z</time>
      </trkpt>
      <trkpt lat="48.08074" lon="-4.54416">
        <ele>41</ele>
        <time>2011-04-18T15:17:10Z</time>
      </trkpt>
      <trkpt lat="48.08078" lon="-4.54421">
        <ele>38</ele>
        <time>2011-04-18T15:17:14Z</time>
      </trkpt>
      <trkpt lat="48.08083" lon="-4.54425">
        <ele>38</ele>
        <time>2011-04-18T15:17:34Z</time>
      </trkpt>
      <trkpt lat="48.08091" lon="-4.54429">
        <ele>29</ele>
        <time>2011-04-18T15:17:57Z</time>
      </trkpt>
      <trkpt lat="48.08088" lon="-4.54427">
        <ele>31</ele>
        <time>2011-04-18T15:18:10Z</time>
      </trkpt>
      <trkpt lat="48.08092" lon="-4.54429">
        <ele>29</ele>
        <time>2011-04-18T15:18:50Z</time>
      </trkpt>
      <trkpt lat="48.08103" lon="-4.5442">
        <ele>27</ele>
        <time>2011-04-18T15:19:01Z</time>
      </trkpt>
      <trkpt lat="48.08104" lon="-4.5441">
        <ele>29</ele>
        <time>2011-04-18T15:19:06Z</time>
      </trkpt>
      <trkpt lat="48.08102" lon="-4.54403">
        <ele>29</ele>
        <time>2011-04-18T15:19:11Z</time>
      </trkpt>
      <trkpt lat="48.08106" lon="-4.54375">
        <ele>27</ele>
        <time>2011-04-18T15:19:29Z</time>
      </trkpt>
      <trkpt lat="48.08104" lon="-4.54356">
        <ele>29</ele>
        <time>2011-04-18T15:19:40Z</time>
      </trkpt>
      <trkpt lat="48.08104" lon="-4.54311">
        <ele>28</ele>
        <time>2011-04-18T15:20:06Z</time>
      </trkpt>
      <trkpt lat="48.08102" lon="-4.54265">
        <ele>28</ele>
        <time>2011-04-18T15:20:30Z</time>
      </trkpt>
      <trkpt lat="48.08087" lon="-4.54226">
        <ele>28</ele>
        <time>2011-04-18T15:20:54Z</time>
      </trkpt>
      <trkpt lat="48.08095" lon="-4.54195">
        <ele>26</ele>
        <time>2011-04-18T15:21:15Z</time>
      </trkpt>
      <trkpt lat="48.08103" lon="-4.54163">
        <ele>28</ele>
        <time>2011-04-18T15:21:36Z</time>
      </trkpt>
      <trkpt lat="48.08111" lon="-4.54117">
        <ele>25</ele>
        <time>2011-04-18T15:22:02Z</time>
      </trkpt>
      <trkpt lat="48.08112" lon="-4.54117">
        <ele>25</ele>
        <time>2011-04-18T15:22:24Z</time>
      </trkpt>
      <trkpt lat="48.0811" lon="-4.54094">
        <ele>26</ele>
        <time>2011-04-18T15:22:38Z</time>
      </trkpt>
      <trkpt lat="48.0811" lon="-4.54087">
        <ele>26</ele>
        <time>2011-04-18T15:22:42Z</time>
      </trkpt>
      <trkpt lat="48.08101" lon="-4.54055">
        <ele>30</ele>
        <time>2011-04-18T15:23:00Z</time>
      </trkpt>
      <trkpt lat="48.08093" lon="-4.5402">
        <ele>30</ele>
        <time>2011-04-18T15:23:21Z</time>
      </trkpt>
      <trkpt lat="48.08099" lon="-4.54013">
        <ele>30</ele>
        <time>2011-04-18T15:23:38Z</time>
      </trkpt>
      <trkpt lat="48.08106" lon="-4.54009">
        <ele>30</ele>
        <time>2011-04-18T15:23:54Z</time>
      </trkpt>
      <trkpt lat="48.08125" lon="-4.54032">
        <ele>29</ele>
        <time>2011-04-18T15:24:14Z</time>
      </trkpt>
      <trkpt lat="48.08147" lon="-4.54048">
        <ele>28</ele>
        <time>2011-04-18T15:24:34Z</time>
      </trkpt>
      <trkpt lat="48.08155" lon="-4.54054">
        <ele>26</ele>
        <time>2011-04-18T15:24:54Z</time>
      </trkpt>
      <trkpt lat="48.08158" lon="-4.54056">
        <ele>26</ele>
        <time>2011-04-18T15:24:56Z</time>
      </trkpt>
      <trkpt lat="48.08176" lon="-4.54081">
        <ele>22</ele>
        <time>2011-04-18T15:25:18Z</time>
      </trkpt>
      <trkpt lat="48.08199" lon="-4.54087">
        <ele>18</ele>
        <time>2011-04-18T15:25:40Z</time>
      </trkpt>
      <trkpt lat="48.08221" lon="-4.54091">
        <ele>20</ele>
        <time>2011-04-18T15:26:02Z</time>
      </trkpt>
      <trkpt lat="48.08245" lon="-4.541">
        <ele>22</ele>
        <time>2011-04-18T15:26:25Z</time>
      </trkpt>
      <trkpt lat="48.08265" lon="-4.54103">
        <ele>23</ele>
        <time>2011-04-18T15:26:44Z</time>
      </trkpt>
      <trkpt lat="48.08282" lon="-4.541">
        <ele>22</ele>
        <time>2011-04-18T15:27:01Z</time>
      </trkpt>
      <trkpt lat="48.08304" lon="-4.54096">
        <ele>22</ele>
        <time>2011-04-18T15:27:23Z</time>
      </trkpt>
      <trkpt lat="48.08323" lon="-4.541">
        <ele>22</ele>
        <time>2011-04-18T15:27:46Z</time>
      </trkpt>
      <trkpt lat="48.0833" lon="-4.54093">
        <ele>24</ele>
        <time>2011-04-18T15:28:05Z</time>
      </trkpt>
      <trkpt lat="48.08329" lon="-4.54084">
        <ele>25</ele>
        <time>2011-04-18T15:28:13Z</time>
      </trkpt>
      <trkpt lat="48.08328" lon="-4.54066">
        <ele>31</ele>
        <time>2011-04-18T15:28:24Z</time>
      </trkpt>
      <trkpt lat="48.08331" lon="-4.54032">
        <ele>37</ele>
        <time>2011-04-18T15:28:43Z</time>
      </trkpt>
      <trkpt lat="48.0834" lon="-4.54003">
        <ele>37</ele>
        <time>2011-04-18T15:29:02Z</time>
      </trkpt>
      <trkpt lat="48.08346" lon="-4.53987">
        <ele>40</ele>
        <time>2011-04-18T15:29:21Z</time>
      </trkpt>
      <trkpt lat="48.08356" lon="-4.53973">
        <ele>40</ele>
        <time>2011-04-18T15:29:37Z</time>
      </trkpt>
      <trkpt lat="48.08378" lon="-4.53964">
        <ele>39</ele>
        <time>2011-04-18T15:29:57Z</time>
      </trkpt>
      <trkpt lat="48.084" lon="-4.53955">
        <ele>38</ele>
        <time>2011-04-18T15:30:15Z</time>
      </trkpt>
      <trkpt lat="48.08428" lon="-4.53943">
        <ele>33</ele>
        <time>2011-04-18T15:30:39Z</time>
      </trkpt>
      <trkpt lat="48.08454" lon="-4.53938">
        <ele>32</ele>
        <time>2011-04-18T15:31:04Z</time>
      </trkpt>
      <trkpt lat="48.08486" lon="-4.53945">
        <ele>31</ele>
        <time>2011-04-18T15:31:30Z</time>
      </trkpt>
      <trkpt lat="48.08497" lon="-4.5395">
        <ele>30</ele>
        <time>2011-04-18T15:31:40Z</time>
      </trkpt>
      <trkpt lat="48.08501" lon="-4.53956">
        <ele>25</ele>
        <time>2011-04-18T15:31:45Z</time>
      </trkpt>
      <trkpt lat="48.08519" lon="-4.53956">
        <ele>24</ele>
        <time>2011-04-18T15:32:00Z</time>
      </trkpt>
      <trkpt lat="48.0852" lon="-4.53953">
        <ele>25</ele>
        <time>2011-04-18T15:32:02Z</time>
      </trkpt>
      <trkpt lat="48.0852" lon="-4.53946">
        <ele>26</ele>
        <time>2011-04-18T15:32:07Z</time>
      </trkpt>
      <trkpt lat="48.0852" lon="-4.53916">
        <ele>39</ele>
        <time>2011-04-18T15:32:27Z</time>
      </trkpt>
      <trkpt lat="48.08521" lon="-4.53899">
        <ele>39</ele>
        <time>2011-04-18T15:32:37Z</time>
      </trkpt>
      <trkpt lat="48.0852" lon="-4.5389">
        <ele>40</ele>
        <time>2011-04-18T15:32:42Z</time>
      </trkpt>
      <trkpt lat="48.08526" lon="-4.53854">
        <ele>43</ele>
        <time>2011-04-18T15:33:04Z</time>
      </trkpt>
      <trkpt lat="48.08545" lon="-4.53841">
        <ele>43</ele>
        <time>2011-04-18T15:33:23Z</time>
      </trkpt>
      <trkpt lat="48.08563" lon="-4.53853">
        <ele>43</ele>
        <time>2011-04-18T15:33:40Z</time>
      </trkpt>
      <trkpt lat="48.08576" lon="-4.53879">
        <ele>39</ele>
        <time>2011-04-18T15:34:01Z</time>
      </trkpt>
      <trkpt lat="48.08581" lon="-4.5389">
        <ele>36</ele>
        <time>2011-04-18T15:34:10Z</time>
      </trkpt>
      <trkpt lat="48.08582" lon="-4.53893">
        <ele>36</ele>
        <time>2011-04-18T15:34:12Z</time>
      </trkpt>
      <trkpt lat="48.08584" lon="-4.53898">
        <ele>33</ele>
        <time>2011-04-18T15:34:16Z</time>
      </trkpt>
      <trkpt lat="48.08591" lon="-4.53921">
        <ele>25</ele>
        <time>2011-04-18T15:34:32Z</time>
      </trkpt>
      <trkpt lat="48.08612" lon="-4.5394">
        <ele>21</ele>
        <time>2011-04-18T15:34:53Z</time>
      </trkpt>
      <trkpt lat="48.08628" lon="-4.53938">
        <ele>21</ele>
        <time>2011-04-18T15:35:06Z</time>
      </trkpt>
      <trkpt lat="48.08641" lon="-4.53942">
        <ele>21</ele>
        <time>2011-04-18T15:35:18Z</time>
      </trkpt>
      <trkpt lat="48.08645" lon="-4.53947">
        <ele>20</ele>
        <time>2011-04-18T15:35:42Z</time>
      </trkpt>
      <trkpt lat="48.08646" lon="-4.53948">
        <ele>20</ele>
        <time>2011-04-18T15:36:21Z</time>
      </trkpt>
      <trkpt lat="48.08647" lon="-4.53948">
        <ele>20</ele>
        <time>2011-04-18T15:36:55Z</time>
      </trkpt>
      <trkpt lat="48.08646" lon="-4.53947">
        <ele>20</ele>
        <time>2011-04-18T15:37:47Z</time>
      </trkpt>
      <trkpt lat="48.08644" lon="-4.53947">
        <ele>20</ele>
        <time>2011-04-18T15:40:14Z</time>
      </trkpt>
      <trkpt lat="48.08644" lon="-4.53948">
        <ele>20</ele>
        <time>2011-04-18T15:41:42Z</time>
      </trkpt>
      <trkpt lat="48.08644" lon="-4.53948">
        <ele>20</ele>
        <time>2011-04-18T15:42:14Z</time>
      </trkpt>
      <trkpt lat="48.08645" lon="-4.53958">
        <ele>19</ele>
        <time>2011-04-18T15:42:33Z</time>
      </trkpt>
      <trkpt lat="48.08643" lon="-4.53951">
        <ele>20</ele>
        <time>2011-04-18T15:43:01Z</time>
      </trkpt>
      <trkpt lat="48.08647" lon="-4.53935">
        <ele>22</ele>
        <time>2011-04-18T15:43:15Z</time>
      </trkpt>
      <trkpt lat="48.08649" lon="-4.53935">
        <ele>22</ele>
        <time>2011-04-18T15:43:16Z</time>
      </trkpt>
      <trkpt lat="48.08651" lon="-4.53931">
        <ele>23</ele>
        <time>2011-04-18T15:43:20Z</time>
      </trkpt>
      <trkpt lat="48.08674" lon="-4.53916">
        <ele>30</ele>
        <time>2011-04-18T15:43:39Z</time>
      </trkpt>
      <trkpt lat="48.08701" lon="-4.53912">
        <ele>30</ele>
        <time>2011-04-18T15:44:00Z</time>
      </trkpt>
      <trkpt lat="48.08708" lon="-4.53911">
        <ele>29</ele>
        <time>2011-04-18T15:44:09Z</time>
      </trkpt>
      <trkpt lat="48.08721" lon="-4.53909">
        <ele>28</ele>
        <time>2011-04-18T15:44:20Z</time>
      </trkpt>
      <trkpt lat="48.08727" lon="-4.5391">
        <ele>26</ele>
        <time>2011-04-18T15:44:27Z</time>
      </trkpt>
      <trkpt lat="48.08739" lon="-4.53894">
        <ele>27</ele>
        <time>2011-04-18T15:44:39Z</time>
      </trkpt>
      <trkpt lat="48.08745" lon="-4.53874">
        <ele>31</ele>
        <time>2011-04-18T15:44:50Z</time>
      </trkpt>
      <trkpt lat="48.0875" lon="-4.53839">
        <ele>34</ele>
        <time>2011-04-18T15:45:09Z</time>
      </trkpt>
      <trkpt lat="48.0876" lon="-4.53802">
        <ele>31</ele>
        <time>2011-04-18T15:45:31Z</time>
      </trkpt>
      <trkpt lat="48.08771" lon="-4.53778">
        <ele>31</ele>
        <time>2011-04-18T15:45:50Z</time>
      </trkpt>
      <trkpt lat="48.08784" lon="-4.53749">
        <ele>36</ele>
        <time>2011-04-18T15:46:11Z</time>
      </trkpt>
      <trkpt lat="48.08797" lon="-4.53719">
        <ele>34</ele>
        <time>2011-04-18T15:46:30Z</time>
      </trkpt>
      <trkpt lat="48.08799" lon="-4.5371">
        <ele>34</ele>
        <time>2011-04-18T15:46:35Z</time>
      </trkpt>
      <trkpt lat="48.08804" lon="-4.53668">
        <ele>34</ele>
        <time>2011-04-18T15:46:59Z</time>
      </trkpt>
      <trkpt lat="48.08803" lon="-4.53632">
        <ele>42</ele>
        <time>2011-04-18T15:47:19Z</time>
      </trkpt>
      <trkpt lat="48.08803" lon="-4.53627">
        <ele>42</ele>
        <time>2011-04-18T15:47:22Z</time>
      </trkpt>
      <trkpt lat="48.08814" lon="-4.53594">
        <ele>41</ele>
        <time>2011-04-18T15:47:42Z</time>
      </trkpt>
      <trkpt lat="48.08831" lon="-4.53553">
        <ele>44</ele>
        <time>2011-04-18T15:48:06Z</time>
      </trkpt>
      <trkpt lat="48.08841" lon="-4.53531">
        <ele>31</ele>
        <time>2011-04-18T15:48:21Z</time>
      </trkpt>
      <trkpt lat="48.08843" lon="-4.53526">
        <ele>31</ele>
        <time>2011-04-18T15:48:33Z</time>
      </trkpt>
      <trkpt lat="48.08846" lon="-4.53512">
        <ele>33</ele>
        <time>2011-04-18T15:49:03Z</time>
      </trkpt>
      <trkpt lat="48.08845" lon="-4.53497">
        <ele>36</ele>
        <time>2011-04-18T15:49:12Z</time>
      </trkpt>
      <trkpt lat="48.08837" lon="-4.53464">
        <ele>33</ele>
        <time>2011-04-18T15:49:31Z</time>
      </trkpt>
      <trkpt lat="48.0883" lon="-4.53443">
        <ele>42</ele>
        <time>2011-04-18T15:49:43Z</time>
      </trkpt>
      <trkpt lat="48.08829" lon="-4.53424">
        <ele>38</ele>
        <time>2011-04-18T15:49:54Z</time>
      </trkpt>
      <trkpt lat="48.08824" lon="-4.53392">
        <ele>34</ele>
        <time>2011-04-18T15:50:12Z</time>
      </trkpt>
      <trkpt lat="48.08824" lon="-4.53384">
        <ele>34</ele>
        <time>2011-04-18T15:50:17Z</time>
      </trkpt>
      <trkpt lat="48.0882" lon="-4.53364">
        <ele>31</ele>
        <time>2011-04-18T15:50:31Z</time>
      </trkpt>
      <trkpt lat="48.0882" lon="-4.53357">
        <ele>30</ele>
        <time>2011-04-18T15:50:38Z</time>
      </trkpt>
      <trkpt lat="48.0882" lon="-4.53353">
        <ele>29</ele>
        <time>2011-04-18T15:50:41Z</time>
      </trkpt>
      <trkpt lat="48.08816" lon="-4.53333">
        <ele>18</ele>
        <time>2011-04-18T15:50:59Z</time>
      </trkpt>
      <trkpt lat="48.08815" lon="-4.53325">
        <ele>18</ele>
        <time>2011-04-18T15:51:09Z</time>
      </trkpt>
      <trkpt lat="48.08795" lon="-4.53308">
        <ele>18</ele>
        <time>2011-04-18T15:51:29Z</time>
      </trkpt>
      <trkpt lat="48.08774" lon="-4.53304">
        <ele>20</ele>
        <time>2011-04-18T15:51:47Z</time>
      </trkpt>
      <trkpt lat="48.08757" lon="-4.53308">
        <ele>23</ele>
        <time>2011-04-18T15:52:01Z</time>
      </trkpt>
      <trkpt lat="48.08741" lon="-4.53316">
        <ele>32</ele>
        <time>2011-04-18T15:52:19Z</time>
      </trkpt>
      <trkpt lat="48.08729" lon="-4.5332">
        <ele>33</ele>
        <time>2011-04-18T15:52:32Z</time>
      </trkpt>
      <trkpt lat="48.08712" lon="-4.53328">
        <ele>34</ele>
        <time>2011-04-18T15:52:49Z</time>
      </trkpt>
      <trkpt lat="48.08697" lon="-4.53333">
        <ele>36</ele>
        <time>2011-04-18T15:53:07Z</time>
      </trkpt>
      <trkpt lat="48.08678" lon="-4.5332">
        <ele>39</ele>
        <time>2011-04-18T15:53:27Z</time>
      </trkpt>
      <trkpt lat="48.08652" lon="-4.53283">
        <ele>40</ele>
        <time>2011-04-18T15:53:56Z</time>
      </trkpt>
      <trkpt lat="48.08644" lon="-4.53244">
        <ele>30</ele>
        <time>2011-04-18T15:54:18Z</time>
      </trkpt>
      <trkpt lat="48.08636" lon="-4.53206">
        <ele>29</ele>
        <time>2011-04-18T15:54:41Z</time>
      </trkpt>
      <trkpt lat="48.08628" lon="-4.53167">
        <ele>27</ele>
        <time>2011-04-18T15:55:04Z</time>
      </trkpt>
      <trkpt lat="48.0862" lon="-4.53136">
        <ele>24</ele>
        <time>2011-04-18T15:55:23Z</time>
      </trkpt>
      <trkpt lat="48.08616" lon="-4.53097">
        <ele>24</ele>
        <time>2011-04-18T15:55:44Z</time>
      </trkpt>
      <trkpt lat="48.08624" lon="-4.53058">
        <ele>23</ele>
        <time>2011-04-18T15:56:05Z</time>
      </trkpt>
      <trkpt lat="48.08642" lon="-4.53024">
        <ele>22</ele>
        <time>2011-04-18T15:56:29Z</time>
      </trkpt>
      <trkpt lat="48.0864" lon="-4.53025">
        <ele>23</ele>
        <time>2011-04-18T15:56:42Z</time>
      </trkpt>
      <trkpt lat="48.08645" lon="-4.53022">
        <ele>22</ele>
        <time>2011-04-18T15:57:17Z</time>
      </trkpt>
      <trkpt lat="48.08658" lon="-4.53015">
        <ele>21</ele>
        <time>2011-04-18T15:57:30Z</time>
      </trkpt>
      <trkpt lat="48.08664" lon="-4.53016">
        <ele>20</ele>
        <time>2011-04-18T15:57:35Z</time>
      </trkpt>
      <trkpt lat="48.08668" lon="-4.53012">
        <ele>14</ele>
        <time>2011-04-18T15:57:39Z</time>
      </trkpt>
      <trkpt lat="48.08689" lon="-4.53002">
        <ele>12</ele>
        <time>2011-04-18T15:57:57Z</time>
      </trkpt>
      <trkpt lat="48.0869" lon="-4.53002">
        <ele>12</ele>
        <time>2011-04-18T15:57:58Z</time>
      </trkpt>
      <trkpt lat="48.08694" lon="-4.52998">
        <ele>12</ele>
        <time>2011-04-18T15:58:02Z</time>
      </trkpt>
      <trkpt lat="48.08696" lon="-4.52994">
        <ele>12</ele>
        <time>2011-04-18T15:58:05Z</time>
      </trkpt>
      <trkpt lat="48.08694" lon="-4.5299">
        <ele>12</ele>
        <time>2011-04-18T15:58:08Z</time>
      </trkpt>
      <trkpt lat="48.0869" lon="-4.52984">
        <ele>12</ele>
        <time>2011-04-18T15:58:13Z</time>
      </trkpt>
      <trkpt lat="48.08682" lon="-4.52962">
        <ele>12</ele>
        <time>2011-04-18T15:58:28Z</time>
      </trkpt>
      <trkpt lat="48.08665" lon="-4.5293">
        <ele>20</ele>
        <time>2011-04-18T15:58:51Z</time>
      </trkpt>
      <trkpt lat="48.08653" lon="-4.52897">
        <ele>18</ele>
        <time>2011-04-18T15:59:12Z</time>
      </trkpt>
      <trkpt lat="48.08647" lon="-4.52886">
        <ele>18</ele>
        <time>2011-04-18T15:59:24Z</time>
      </trkpt>
      <trkpt lat="48.08643" lon="-4.52885">
        <ele>18</ele>
        <time>2011-04-18T15:59:28Z</time>
      </trkpt>
      <trkpt lat="48.08629" lon="-4.52866">
        <ele>18</ele>
        <time>2011-04-18T15:59:45Z</time>
      </trkpt>
      <trkpt lat="48.0861" lon="-4.52861">
        <ele>20</ele>
        <time>2011-04-18T16:00:03Z</time>
      </trkpt>
      <trkpt lat="48.08583" lon="-4.52842">
        <ele>25</ele>
        <time>2011-04-18T16:00:28Z</time>
      </trkpt>
      <trkpt lat="48.0857" lon="-4.52839">
        <ele>28</ele>
        <time>2011-04-18T16:00:40Z</time>
      </trkpt>
      <trkpt lat="48.08554" lon="-4.52815">
        <ele>25</ele>
        <time>2011-04-18T16:00:59Z</time>
      </trkpt>
      <trkpt lat="48.08537" lon="-4.528">
        <ele>27</ele>
        <time>2011-04-18T16:01:19Z</time>
      </trkpt>
      <trkpt lat="48.08522" lon="-4.52805">
        <ele>30</ele>
        <time>2011-04-18T16:01:35Z</time>
      </trkpt>
      <trkpt lat="48.08506" lon="-4.52804">
        <ele>31</ele>
        <time>2011-04-18T16:01:50Z</time>
      </trkpt>
      <trkpt lat="48.08498" lon="-4.52796">
        <ele>41</ele>
        <time>2011-04-18T16:02:04Z</time>
      </trkpt>
      <trkpt lat="48.08503" lon="-4.52792">
        <ele>30</ele>
        <time>2011-04-18T16:02:11Z</time>
      </trkpt>
      <trkpt lat="48.08504" lon="-4.52793">
        <ele>30</ele>
        <time>2011-04-18T16:02:13Z</time>
      </trkpt>
      <trkpt lat="48.08509" lon="-4.52794">
        <ele>30</ele>
        <time>2011-04-18T16:02:16Z</time>
      </trkpt>
      <trkpt lat="48.08506" lon="-4.52779">
        <ele>30</ele>
        <time>2011-04-18T16:02:32Z</time>
      </trkpt>
      <trkpt lat="48.08508" lon="-4.52775">
        <ele>30</ele>
        <time>2011-04-18T16:02:45Z</time>
      </trkpt>
      <trkpt lat="48.0851" lon="-4.52773">
        <ele>30</ele>
        <time>2011-04-18T16:02:49Z</time>
      </trkpt>
      <trkpt lat="48.0853" lon="-4.52762">
        <ele>27</ele>
        <time>2011-04-18T16:03:08Z</time>
      </trkpt>
      <trkpt lat="48.08547" lon="-4.52746">
        <ele>20</ele>
        <time>2011-04-18T16:03:28Z</time>
      </trkpt>
      <trkpt lat="48.08546" lon="-4.52743">
        <ele>20</ele>
        <time>2011-04-18T16:03:30Z</time>
      </trkpt>
      <trkpt lat="48.08531" lon="-4.52721">
        <ele>23</ele>
        <time>2011-04-18T16:03:49Z</time>
      </trkpt>
      <trkpt lat="48.08522" lon="-4.52701">
        <ele>24</ele>
        <time>2011-04-18T16:04:07Z</time>
      </trkpt>
      <trkpt lat="48.08522" lon="-4.527">
        <ele>25</ele>
        <time>2011-04-18T16:04:08Z</time>
      </trkpt>
      <trkpt lat="48.08521" lon="-4.52688">
        <ele>26</ele>
        <time>2011-04-18T16:04:24Z</time>
      </trkpt>
      <trkpt lat="48.08507" lon="-4.52665">
        <ele>33</ele>
        <time>2011-04-18T16:04:45Z</time>
      </trkpt>
      <trkpt lat="48.08509" lon="-4.52656">
        <ele>30</ele>
        <time>2011-04-18T16:04:51Z</time>
      </trkpt>
      <trkpt lat="48.08507" lon="-4.52651">
        <ele>29</ele>
        <time>2011-04-18T16:04:55Z</time>
      </trkpt>
      <trkpt lat="48.08492" lon="-4.5263">
        <ele>41</ele>
        <time>2011-04-18T16:05:16Z</time>
      </trkpt>
      <trkpt lat="48.08493" lon="-4.52581">
        <ele>38</ele>
        <time>2011-04-18T16:05:40Z</time>
      </trkpt>
      <trkpt lat="48.08495" lon="-4.52566">
        <ele>41</ele>
        <time>2011-04-18T16:05:51Z</time>
      </trkpt>
      <trkpt lat="48.08513" lon="-4.52538">
        <ele>31</ele>
        <time>2011-04-18T16:06:12Z</time>
      </trkpt>
      <trkpt lat="48.08519" lon="-4.52531">
        <ele>31</ele>
        <time>2011-04-18T16:06:20Z</time>
      </trkpt>
      <trkpt lat="48.08534" lon="-4.52496">
        <ele>38</ele>
        <time>2011-04-18T16:06:42Z</time>
      </trkpt>
      <trkpt lat="48.08555" lon="-4.52466">
        <ele>37</ele>
        <time>2011-04-18T16:07:06Z</time>
      </trkpt>
      <trkpt lat="48.08567" lon="-4.52444">
        <ele>37</ele>
        <time>2011-04-18T16:07:26Z</time>
      </trkpt>
      <trkpt lat="48.08575" lon="-4.52435">
        <ele>37</ele>
        <time>2011-04-18T16:07:41Z</time>
      </trkpt>
      <trkpt lat="48.08584" lon="-4.52437">
        <ele>26</ele>
        <time>2011-04-18T16:07:51Z</time>
      </trkpt>
      <trkpt lat="48.08604" lon="-4.52434">
        <ele>24</ele>
        <time>2011-04-18T16:08:08Z</time>
      </trkpt>
      <trkpt lat="48.0861" lon="-4.52421">
        <ele>23</ele>
        <time>2011-04-18T16:08:19Z</time>
      </trkpt>
      <trkpt lat="48.08608" lon="-4.52416">
        <ele>27</ele>
        <time>2011-04-18T16:08:25Z</time>
      </trkpt>
      <trkpt lat="48.08606" lon="-4.52417">
        <ele>27</ele>
        <time>2011-04-18T16:08:27Z</time>
      </trkpt>
      <trkpt lat="48.08599" lon="-4.52418">
        <ele>27</ele>
        <time>2011-04-18T16:08:34Z</time>
      </trkpt>
      <trkpt lat="48.08595" lon="-4.52414">
        <ele>31</ele>
        <time>2011-04-18T16:08:38Z</time>
      </trkpt>
      <trkpt lat="48.08577" lon="-4.52409">
        <ele>37</ele>
        <time>2011-04-18T16:08:57Z</time>
      </trkpt>
      <trkpt lat="48.08576" lon="-4.52407">
        <ele>37</ele>
        <time>2011-04-18T16:08:59Z</time>
      </trkpt>
      <trkpt lat="48.08571" lon="-4.52407">
        <ele>38</ele>
        <time>2011-04-18T16:09:03Z</time>
      </trkpt>
      <trkpt lat="48.08555" lon="-4.52391">
        <ele>39</ele>
        <time>2011-04-18T16:09:20Z</time>
      </trkpt>
      <trkpt lat="48.08551" lon="-4.52385">
        <ele>39</ele>
        <time>2011-04-18T16:09:25Z</time>
      </trkpt>
      <trkpt lat="48.08537" lon="-4.52366">
        <ele>40</ele>
        <time>2011-04-18T16:09:43Z</time>
      </trkpt>
      <trkpt lat="48.08536" lon="-4.52365">
        <ele>40</ele>
        <time>2011-04-18T16:09:44Z</time>
      </trkpt>
      <trkpt lat="48.08532" lon="-4.52358">
        <ele>41</ele>
        <time>2011-04-18T16:09:49Z</time>
      </trkpt>
      <trkpt lat="48.08512" lon="-4.5234">
        <ele>45</ele>
        <time>2011-04-18T16:10:11Z</time>
      </trkpt>
      <trkpt lat="48.08512" lon="-4.52336">
        <ele>46</ele>
        <time>2011-04-18T16:10:16Z</time>
      </trkpt>
      <trkpt lat="48.08512" lon="-4.52311">
        <ele>43</ele>
        <time>2011-04-18T16:10:31Z</time>
      </trkpt>
      <trkpt lat="48.08511" lon="-4.52293">
        <ele>43</ele>
        <time>2011-04-18T16:10:48Z</time>
      </trkpt>
      <trkpt lat="48.08512" lon="-4.5229">
        <ele>43</ele>
        <time>2011-04-18T16:10:50Z</time>
      </trkpt>
      <trkpt lat="48.08527" lon="-4.52263">
        <ele>43</ele>
        <time>2011-04-18T16:11:12Z</time>
      </trkpt>
      <trkpt lat="48.08551" lon="-4.52246">
        <ele>42</ele>
        <time>2011-04-18T16:11:34Z</time>
      </trkpt>
      <trkpt lat="48.0857" lon="-4.52235">
        <ele>36</ele>
        <time>2011-04-18T16:11:49Z</time>
      </trkpt>
      <trkpt lat="48.08576" lon="-4.5223">
        <ele>37</ele>
        <time>2011-04-18T16:11:58Z</time>
      </trkpt>
      <trkpt lat="48.08573" lon="-4.52231">
        <ele>37</ele>
        <time>2011-04-18T16:12:09Z</time>
      </trkpt>
      <trkpt lat="48.08597" lon="-4.52206">
        <ele>28</ele>
        <time>2011-04-18T16:12:32Z</time>
      </trkpt>
      <trkpt lat="48.08615" lon="-4.52163">
        <ele>36</ele>
        <time>2011-04-18T16:12:59Z</time>
      </trkpt>
      <trkpt lat="48.0862" lon="-4.5213">
        <ele>37</ele>
        <time>2011-04-18T16:13:18Z</time>
      </trkpt>
      <trkpt lat="48.08637" lon="-4.52105">
        <ele>37</ele>
        <time>2011-04-18T16:13:37Z</time>
      </trkpt>
      <trkpt lat="48.08653" lon="-4.52079">
        <ele>41</ele>
        <time>2011-04-18T16:13:57Z</time>
      </trkpt>
      <trkpt lat="48.0866" lon="-4.52066">
        <ele>43</ele>
        <time>2011-04-18T16:14:10Z</time>
      </trkpt>
      <trkpt lat="48.08668" lon="-4.52049">
        <ele>35</ele>
        <time>2011-04-18T16:14:28Z</time>
      </trkpt>
      <trkpt lat="48.08678" lon="-4.52032">
        <ele>38</ele>
        <time>2011-04-18T16:14:48Z</time>
      </trkpt>
      <trkpt lat="48.08684" lon="-4.52016">
        <ele>40</ele>
        <time>2011-04-18T16:15:06Z</time>
      </trkpt>
      <trkpt lat="48.08686" lon="-4.52005">
        <ele>42</ele>
        <time>2011-04-18T16:15:20Z</time>
      </trkpt>
      <trkpt lat="48.08683" lon="-4.51974">
        <ele>47</ele>
        <time>2011-04-18T16:15:39Z</time>
      </trkpt>
      <trkpt lat="48.08681" lon="-4.51964">
        <ele>47</ele>
        <time>2011-04-18T16:15:45Z</time>
      </trkpt>
      <trkpt lat="48.08679" lon="-4.51955">
        <ele>48</ele>
        <time>2011-04-18T16:15:51Z</time>
      </trkpt>
      <trkpt lat="48.0866" lon="-4.51938">
        <ele>59</ele>
        <time>2011-04-18T16:16:13Z</time>
      </trkpt>
      <trkpt lat="48.08659" lon="-4.51937">
        <ele>59</ele>
        <time>2011-04-18T16:16:14Z</time>
      </trkpt>
      <trkpt lat="48.08653" lon="-4.51926">
        <ele>59</ele>
        <time>2011-04-18T16:16:23Z</time>
      </trkpt>
      <trkpt lat="48.0864" lon="-4.51915">
        <ele>61</ele>
        <time>2011-04-18T16:16:39Z</time>
      </trkpt>
      <trkpt lat="48.08631" lon="-4.51908">
        <ele>62</ele>
        <time>2011-04-18T16:16:49Z</time>
      </trkpt>
      <trkpt lat="48.08614" lon="-4.51892">
        <ele>64</ele>
        <time>2011-04-18T16:17:09Z</time>
      </trkpt>
      <trkpt lat="48.08598" lon="-4.51881">
        <ele>65</ele>
        <time>2011-04-18T16:17:25Z</time>
      </trkpt>
      <trkpt lat="48.08575" lon="-4.51871">
        <ele>72</ele>
        <time>2011-04-18T16:17:47Z</time>
      </trkpt>
      <trkpt lat="48.08557" lon="-4.51873">
        <ele>73</ele>
        <time>2011-04-18T16:18:09Z</time>
      </trkpt>
      <trkpt lat="48.08541" lon="-4.51873">
        <ele>74</ele>
        <time>2011-04-18T16:18:28Z</time>
      </trkpt>
      <trkpt lat="48.08529" lon="-4.51867">
        <ele>74</ele>
        <time>2011-04-18T16:18:41Z</time>
      </trkpt>
      <trkpt lat="48.08521" lon="-4.51865">
        <ele>75</ele>
        <time>2011-04-18T16:18:53Z</time>
      </trkpt>
      <trkpt lat="48.08509" lon="-4.51872">
        <ele>75</ele>
        <time>2011-04-18T16:19:06Z</time>
      </trkpt>
      <trkpt lat="48.08487" lon="-4.51865">
        <ele>81</ele>
        <time>2011-04-18T16:19:26Z</time>
      </trkpt>
      <trkpt lat="48.08486" lon="-4.51864">
        <ele>81</ele>
        <time>2011-04-18T16:19:27Z</time>
      </trkpt>
      <trkpt lat="48.08459" lon="-4.51842">
        <ele>81</ele>
        <time>2011-04-18T16:19:51Z</time>
      </trkpt>
      <trkpt lat="48.08427" lon="-4.51822">
        <ele>81</ele>
        <time>2011-04-18T16:20:16Z</time>
      </trkpt>
      <trkpt lat="48.08396" lon="-4.51805">
        <ele>82</ele>
        <time>2011-04-18T16:20:38Z</time>
      </trkpt>
      <trkpt lat="48.08365" lon="-4.51788">
        <ele>82</ele>
        <time>2011-04-18T16:21:01Z</time>
      </trkpt>
      <trkpt lat="48.08328" lon="-4.51763">
        <ele>82</ele>
        <time>2011-04-18T16:21:29Z</time>
      </trkpt>
      <trkpt lat="48.08314" lon="-4.51754">
        <ele>81</ele>
        <time>2011-04-18T16:21:43Z</time>
      </trkpt>
      <trkpt lat="48.08306" lon="-4.5175">
        <ele>80</ele>
        <time>2011-04-18T16:21:48Z</time>
      </trkpt>
      <trkpt lat="48.08284" lon="-4.51737">
        <ele>79</ele>
        <time>2011-04-18T16:22:03Z</time>
      </trkpt>
      <trkpt lat="48.08259" lon="-4.51723">
        <ele>79</ele>
        <time>2011-04-18T16:22:19Z</time>
      </trkpt>
      <trkpt lat="48.08232" lon="-4.51708">
        <ele>78</ele>
        <time>2011-04-18T16:22:37Z</time>
      </trkpt>
      <trkpt lat="48.08205" lon="-4.5169">
        <ele>78</ele>
        <time>2011-04-18T16:22:57Z</time>
      </trkpt>
      <trkpt lat="48.08182" lon="-4.51675">
        <ele>78</ele>
        <time>2011-04-18T16:23:13Z</time>
      </trkpt>
      <trkpt lat="48.08155" lon="-4.51659">
        <ele>79</ele>
        <time>2011-04-18T16:23:32Z</time>
      </trkpt>
      <trkpt lat="48.08116" lon="-4.51635">
        <ele>79</ele>
        <time>2011-04-18T16:24:01Z</time>
      </trkpt>
      <trkpt lat="48.08089" lon="-4.51618">
        <ele>79</ele>
        <time>2011-04-18T16:24:21Z</time>
      </trkpt>
      <trkpt lat="48.08065" lon="-4.51602">
        <ele>80</ele>
        <time>2011-04-18T16:24:39Z</time>
      </trkpt>
      <trkpt lat="48.08039" lon="-4.51587">
        <ele>80</ele>
        <time>2011-04-18T16:24:58Z</time>
      </trkpt>
      <trkpt lat="48.08013" lon="-4.51571">
        <ele>80</ele>
        <time>2011-04-18T16:25:17Z</time>
      </trkpt>
      <trkpt lat="48.07983" lon="-4.51557">
        <ele>81</ele>
        <time>2011-04-18T16:25:38Z</time>
      </trkpt>
      <trkpt lat="48.07936" lon="-4.51542">
        <ele>81</ele>
        <time>2011-04-18T16:26:10Z</time>
      </trkpt>
      <trkpt lat="48.07892" lon="-4.51534">
        <ele>81</ele>
        <time>2011-04-18T16:26:39Z</time>
      </trkpt>
      <trkpt lat="48.07852" lon="-4.51523">
        <ele>81</ele>
        <time>2011-04-18T16:27:05Z</time>
      </trkpt>
      <trkpt lat="48.07819" lon="-4.51516">
        <ele>80</ele>
        <time>2011-04-18T16:27:27Z</time>
      </trkpt>
      <trkpt lat="48.07781" lon="-4.51507">
        <ele>80</ele>
        <time>2011-04-18T16:27:52Z</time>
      </trkpt>
      <trkpt lat="48.07764" lon="-4.51502">
        <ele>80</ele>
        <time>2011-04-18T16:28:03Z</time>
      </trkpt>
      <trkpt lat="48.07767" lon="-4.51481">
        <ele>81</ele>
        <time>2011-04-18T16:28:18Z</time>
      </trkpt>
      <trkpt lat="48.07767" lon="-4.51482">
        <ele>81</ele>
        <time>2011-04-18T16:28:23Z</time>
      </trkpt>
      <trkpt lat="48.07765" lon="-4.51439">
        <ele>81</ele>
        <time>2011-04-18T16:28:42Z</time>
      </trkpt>
      <trkpt lat="48.0776" lon="-4.51397">
        <ele>82</ele>
        <time>2011-04-18T16:29:01Z</time>
      </trkpt>
      <trkpt lat="48.07751" lon="-4.51362">
        <ele>83</ele>
        <time>2011-04-18T16:29:18Z</time>
      </trkpt>
      <trkpt lat="48.0772" lon="-4.5133">
        <ele>85</ele>
        <time>2011-04-18T16:29:43Z</time>
      </trkpt>
      <trkpt lat="48.07684" lon="-4.51316">
        <ele>86</ele>
        <time>2011-04-18T16:30:08Z</time>
      </trkpt>
      <trkpt lat="48.07653" lon="-4.51294">
        <ele>88</ele>
        <time>2011-04-18T16:30:32Z</time>
      </trkpt>
      <trkpt lat="48.07617" lon="-4.51261">
        <ele>89</ele>
        <time>2011-04-18T16:31:01Z</time>
      </trkpt>
      <trkpt lat="48.07608" lon="-4.51251">
        <ele>90</ele>
        <time>2011-04-18T16:31:09Z</time>
      </trkpt>
      <trkpt lat="48.07604" lon="-4.51243">
        <ele>91</ele>
        <time>2011-04-18T16:31:14Z</time>
      </trkpt>
      <trkpt lat="48.07599" lon="-4.51234">
        <ele>91</ele>
        <time>2011-04-18T16:31:19Z</time>
      </trkpt>
      <trkpt lat="48.07591" lon="-4.51214">
        <ele>91</ele>
        <time>2011-04-18T16:31:31Z</time>
      </trkpt>
      <trkpt lat="48.07592" lon="-4.51212">
        <ele>91</ele>
        <time>2011-04-18T16:31:33Z</time>
      </trkpt>
      <trkpt lat="48.07586" lon="-4.51207">
        <ele>91</ele>
        <time>2011-04-18T16:31:37Z</time>
      </trkpt>
      <trkpt lat="48.07564" lon="-4.51203">
        <ele>91</ele>
        <time>2011-04-18T16:31:51Z</time>
      </trkpt>
      <trkpt lat="48.07562" lon="-4.51208">
        <ele>91</ele>
        <time>2011-04-18T16:31:55Z</time>
      </trkpt>
      <trkpt lat="48.07565" lon="-4.51219">
        <ele>91</ele>
        <time>2011-04-18T16:32:15Z</time>
      </trkpt>
      <trkpt lat="48.07562" lon="-4.51224">
        <ele>90</ele>
        <time>2011-04-18T16:32:25Z</time>
      </trkpt>
      <trkpt lat="48.0756" lon="-4.5123">
        <ele>90</ele>
        <time>2011-04-18T16:32:28Z</time>
      </trkpt>
      <trkpt lat="48.07559" lon="-4.51253">
        <ele>89</ele>
        <time>2011-04-18T16:32:39Z</time>
      </trkpt>
      <trkpt lat="48.07563" lon="-4.51261">
        <ele>89</ele>
        <time>2011-04-18T16:32:44Z</time>
      </trkpt>
      <trkpt lat="48.07564" lon="-4.513">
        <ele>88</ele>
        <time>2011-04-18T16:33:04Z</time>
      </trkpt>
      <trkpt lat="48.07563" lon="-4.5133">
        <ele>88</ele>
        <time>2011-04-18T16:33:20Z</time>
      </trkpt>
      <trkpt lat="48.07563" lon="-4.51355">
        <ele>87</ele>
        <time>2011-04-18T16:33:34Z</time>
      </trkpt>
      <trkpt lat="48.07555" lon="-4.51379">
        <ele>87</ele>
        <time>2011-04-18T16:33:47Z</time>
      </trkpt>
      <trkpt lat="48.07551" lon="-4.51386">
        <ele>86</ele>
        <time>2011-04-18T16:33:52Z</time>
      </trkpt>
      <trkpt lat="48.07549" lon="-4.51393">
        <ele>86</ele>
        <time>2011-04-18T16:33:56Z</time>
      </trkpt>
      <trkpt lat="48.07551" lon="-4.51399">
        <ele>86</ele>
        <time>2011-04-18T16:34:00Z</time>
      </trkpt>
      <trkpt lat="48.07554" lon="-4.51403">
        <ele>87</ele>
        <time>2011-04-18T16:34:03Z</time>
      </trkpt>
      <trkpt lat="48.07565" lon="-4.51427">
        <ele>87</ele>
        <time>2011-04-18T16:34:19Z</time>
      </trkpt>
      <trkpt lat="48.07573" lon="-4.51414">
        <ele>87</ele>
        <time>2011-04-18T16:34:51Z</time>
      </trkpt>
      <trkpt lat="48.07567" lon="-4.51421">
        <ele>87</ele>
        <time>2011-04-18T16:35:14Z</time>
      </trkpt>
      <trkpt lat="48.07575" lon="-4.51429">
        <ele>87</ele>
        <time>2011-04-18T16:36:19Z</time>
      </trkpt>
      <trkpt lat="48.07584" lon="-4.51432">
        <ele>87</ele>
        <time>2011-04-18T16:36:39Z</time>
      </trkpt>
      <trkpt lat="48.0758" lon="-4.51435">
        <ele>87</ele>
        <time>2011-04-18T16:37:02Z</time>
      </trkpt>
    </trkseg>
  </trk>
</gpx>